<?xml version="1.0" encoding="UTF-8" standalone="no" ?>
<gpx xmlns="http://www.topografix.com/GPX/1/1" xmlns:xsi="http://www.w3.org/2001/XMLSchema-instance" xsi:schemaLocation="http://www.topografix.com/GPX/1/1 http://www.topografix.com/GPX/1/1/gpx.xsd" version="1.1" creator="VisuGPX - https://www.visugpx.com">
  <metadata>
    <name>boigny sur bionne . chateauneuf sur loire</name>
    <desc><![CDATA[[url][/url]]]></desc>
  </metadata>
  <trk>
    <name><![CDATA[boigny sur bionne . chateauneuf sur loire_1]]></name>
    <trkseg>
      <trkpt lat="47.92301" lon="2.02727">
        <ele>103</ele>
        <time>2014-01-26T07:32:32Z</time>
      </trkpt>
      <trkpt lat="47.92291" lon="2.02748">
        <ele>103</ele>
        <time>2014-01-26T07:32:44Z</time>
      </trkpt>
      <trkpt lat="47.92282" lon="2.02751">
        <ele>103</ele>
        <time>2014-01-26T07:32:48Z</time>
      </trkpt>
      <trkpt lat="47.92275" lon="2.02744">
        <ele>103</ele>
        <time>2014-01-26T07:32:52Z</time>
      </trkpt>
      <trkpt lat="47.92266" lon="2.02733">
        <ele>103</ele>
        <time>2014-01-26T07:32:56Z</time>
      </trkpt>
      <trkpt lat="47.92257" lon="2.02717">
        <ele>103</ele>
        <time>2014-01-26T07:33:00Z</time>
      </trkpt>
      <trkpt lat="47.92248" lon="2.02698">
        <ele>103</ele>
        <time>2014-01-26T07:33:04Z</time>
      </trkpt>
      <trkpt lat="47.92241" lon="2.02677">
        <ele>104</ele>
        <time>2014-01-26T07:33:08Z</time>
      </trkpt>
      <trkpt lat="47.92235" lon="2.02656">
        <ele>104</ele>
        <time>2014-01-26T07:33:12Z</time>
      </trkpt>
      <trkpt lat="47.92228" lon="2.02634">
        <ele>104</ele>
        <time>2014-01-26T07:33:16Z</time>
      </trkpt>
      <trkpt lat="47.92221" lon="2.02612">
        <ele>103</ele>
        <time>2014-01-26T07:33:20Z</time>
      </trkpt>
      <trkpt lat="47.92214" lon="2.02586">
        <ele>103</ele>
        <time>2014-01-26T07:33:24Z</time>
      </trkpt>
      <trkpt lat="47.92209" lon="2.02559">
        <ele>104</ele>
        <time>2014-01-26T07:33:28Z</time>
      </trkpt>
      <trkpt lat="47.92206" lon="2.02529">
        <ele>103</ele>
        <time>2014-01-26T07:33:32Z</time>
      </trkpt>
      <trkpt lat="47.92207" lon="2.025">
        <ele>103</ele>
        <time>2014-01-26T07:33:36Z</time>
      </trkpt>
      <trkpt lat="47.92209" lon="2.02472">
        <ele>103</ele>
        <time>2014-01-26T07:33:40Z</time>
      </trkpt>
      <trkpt lat="47.92212" lon="2.02441">
        <ele>103</ele>
        <time>2014-01-26T07:33:44Z</time>
      </trkpt>
      <trkpt lat="47.92215" lon="2.02412">
        <ele>102</ele>
        <time>2014-01-26T07:33:48Z</time>
      </trkpt>
      <trkpt lat="47.92221" lon="2.02386">
        <ele>102</ele>
        <time>2014-01-26T07:33:52Z</time>
      </trkpt>
      <trkpt lat="47.92223" lon="2.02358">
        <ele>102</ele>
        <time>2014-01-26T07:33:56Z</time>
      </trkpt>
      <trkpt lat="47.92223" lon="2.02331">
        <ele>103</ele>
        <time>2014-01-26T07:34:00Z</time>
      </trkpt>
      <trkpt lat="47.92218" lon="2.02306">
        <ele>102</ele>
        <time>2014-01-26T07:34:04Z</time>
      </trkpt>
      <trkpt lat="47.92212" lon="2.02279">
        <ele>102</ele>
        <time>2014-01-26T07:34:08Z</time>
      </trkpt>
      <trkpt lat="47.92209" lon="2.02251">
        <ele>102</ele>
        <time>2014-01-26T07:34:12Z</time>
      </trkpt>
      <trkpt lat="47.92211" lon="2.0222">
        <ele>101</ele>
        <time>2014-01-26T07:34:16Z</time>
      </trkpt>
      <trkpt lat="47.92211" lon="2.02187">
        <ele>100</ele>
        <time>2014-01-26T07:34:20Z</time>
      </trkpt>
      <trkpt lat="47.92209" lon="2.0215">
        <ele>99</ele>
        <time>2014-01-26T07:34:24Z</time>
      </trkpt>
      <trkpt lat="47.92206" lon="2.02111">
        <ele>98</ele>
        <time>2014-01-26T07:34:28Z</time>
      </trkpt>
      <trkpt lat="47.92204" lon="2.0207">
        <ele>97</ele>
        <time>2014-01-26T07:34:32Z</time>
      </trkpt>
      <trkpt lat="47.922" lon="2.02028">
        <ele>97</ele>
        <time>2014-01-26T07:34:36Z</time>
      </trkpt>
      <trkpt lat="47.92198" lon="2.01988">
        <ele>97</ele>
        <time>2014-01-26T07:34:40Z</time>
      </trkpt>
      <trkpt lat="47.92196" lon="2.01947">
        <ele>96</ele>
        <time>2014-01-26T07:34:44Z</time>
      </trkpt>
      <trkpt lat="47.92193" lon="2.01907">
        <ele>95</ele>
        <time>2014-01-26T07:34:48Z</time>
      </trkpt>
      <trkpt lat="47.92191" lon="2.01867">
        <ele>95</ele>
        <time>2014-01-26T07:34:52Z</time>
      </trkpt>
      <trkpt lat="47.92187" lon="2.01828">
        <ele>95</ele>
        <time>2014-01-26T07:34:56Z</time>
      </trkpt>
      <trkpt lat="47.92186" lon="2.01797">
        <ele>94</ele>
        <time>2014-01-26T07:35:00Z</time>
      </trkpt>
      <trkpt lat="47.92187" lon="2.01764">
        <ele>94</ele>
        <time>2014-01-26T07:35:04Z</time>
      </trkpt>
      <trkpt lat="47.92185" lon="2.01729">
        <ele>93</ele>
        <time>2014-01-26T07:35:08Z</time>
      </trkpt>
      <trkpt lat="47.92181" lon="2.01697">
        <ele>93</ele>
        <time>2014-01-26T07:35:12Z</time>
      </trkpt>
      <trkpt lat="47.92174" lon="2.01667">
        <ele>93</ele>
        <time>2014-01-26T07:35:16Z</time>
      </trkpt>
      <trkpt lat="47.92176" lon="2.01637">
        <ele>93</ele>
        <time>2014-01-26T07:35:20Z</time>
      </trkpt>
      <trkpt lat="47.92177" lon="2.01604">
        <ele>93</ele>
        <time>2014-01-26T07:35:24Z</time>
      </trkpt>
      <trkpt lat="47.92174" lon="2.01567">
        <ele>92</ele>
        <time>2014-01-26T07:35:28Z</time>
      </trkpt>
      <trkpt lat="47.92176" lon="2.01532">
        <ele>92</ele>
        <time>2014-01-26T07:35:32Z</time>
      </trkpt>
      <trkpt lat="47.92198" lon="2.01519">
        <ele>91</ele>
        <time>2014-01-26T07:35:36Z</time>
      </trkpt>
      <trkpt lat="47.92223" lon="2.01515">
        <ele>91</ele>
        <time>2014-01-26T07:35:40Z</time>
      </trkpt>
      <trkpt lat="47.92236" lon="2.01502">
        <ele>89</ele>
        <time>2014-01-26T07:38:48Z</time>
      </trkpt>
      <trkpt lat="47.92231" lon="2.0149">
        <ele>89</ele>
        <time>2014-01-26T07:39:00Z</time>
      </trkpt>
      <trkpt lat="47.92239" lon="2.01497">
        <ele>89</ele>
        <time>2014-01-26T07:39:04Z</time>
      </trkpt>
      <trkpt lat="47.9225" lon="2.01511">
        <ele>89</ele>
        <time>2014-01-26T07:39:08Z</time>
      </trkpt>
      <trkpt lat="47.92267" lon="2.01517">
        <ele>89</ele>
        <time>2014-01-26T07:39:12Z</time>
      </trkpt>
      <trkpt lat="47.92288" lon="2.01516">
        <ele>89</ele>
        <time>2014-01-26T07:39:16Z</time>
      </trkpt>
      <trkpt lat="47.92309" lon="2.01504">
        <ele>89</ele>
        <time>2014-01-26T07:39:20Z</time>
      </trkpt>
      <trkpt lat="47.92329" lon="2.01491">
        <ele>88</ele>
        <time>2014-01-26T07:39:24Z</time>
      </trkpt>
      <trkpt lat="47.92346" lon="2.01478">
        <ele>88</ele>
        <time>2014-01-26T07:39:28Z</time>
      </trkpt>
      <trkpt lat="47.92359" lon="2.01469">
        <ele>88</ele>
        <time>2014-01-26T07:39:36Z</time>
      </trkpt>
      <trkpt lat="47.92366" lon="2.01463">
        <ele>88</ele>
        <time>2014-01-26T07:39:40Z</time>
      </trkpt>
      <trkpt lat="47.92373" lon="2.01453">
        <ele>89</ele>
        <time>2014-01-26T07:39:44Z</time>
      </trkpt>
      <trkpt lat="47.92381" lon="2.01435">
        <ele>89</ele>
        <time>2014-01-26T07:39:48Z</time>
      </trkpt>
      <trkpt lat="47.92387" lon="2.01412">
        <ele>89</ele>
        <time>2014-01-26T07:39:52Z</time>
      </trkpt>
      <trkpt lat="47.92389" lon="2.01392">
        <ele>90</ele>
        <time>2014-01-26T07:39:56Z</time>
      </trkpt>
      <trkpt lat="47.9239" lon="2.01376">
        <ele>89</ele>
        <time>2014-01-26T07:40:00Z</time>
      </trkpt>
      <trkpt lat="47.92385" lon="2.01349">
        <ele>89</ele>
        <time>2014-01-26T07:40:04Z</time>
      </trkpt>
      <trkpt lat="47.92379" lon="2.01314">
        <ele>90</ele>
        <time>2014-01-26T07:40:08Z</time>
      </trkpt>
      <trkpt lat="47.92375" lon="2.01282">
        <ele>90</ele>
        <time>2014-01-26T07:40:12Z</time>
      </trkpt>
      <trkpt lat="47.92372" lon="2.01252">
        <ele>90</ele>
        <time>2014-01-26T07:40:16Z</time>
      </trkpt>
      <trkpt lat="47.92368" lon="2.01222">
        <ele>89</ele>
        <time>2014-01-26T07:40:20Z</time>
      </trkpt>
      <trkpt lat="47.92359" lon="2.01201">
        <ele>89</ele>
        <time>2014-01-26T07:40:24Z</time>
      </trkpt>
      <trkpt lat="47.9234" lon="2.01201">
        <ele>89</ele>
        <time>2014-01-26T07:40:28Z</time>
      </trkpt>
      <trkpt lat="47.9232" lon="2.01206">
        <ele>88</ele>
        <time>2014-01-26T07:40:32Z</time>
      </trkpt>
      <trkpt lat="47.92299" lon="2.01204">
        <ele>89</ele>
        <time>2014-01-26T07:40:36Z</time>
      </trkpt>
      <trkpt lat="47.92283" lon="2.01192">
        <ele>89</ele>
        <time>2014-01-26T07:40:40Z</time>
      </trkpt>
      <trkpt lat="47.92274" lon="2.01179">
        <ele>88</ele>
        <time>2014-01-26T07:41:36Z</time>
      </trkpt>
      <trkpt lat="47.92267" lon="2.01183">
        <ele>88</ele>
        <time>2014-01-26T07:41:40Z</time>
      </trkpt>
      <trkpt lat="47.92256" lon="2.01183">
        <ele>88</ele>
        <time>2014-01-26T07:41:44Z</time>
      </trkpt>
      <trkpt lat="47.92243" lon="2.01183">
        <ele>88</ele>
        <time>2014-01-26T07:41:48Z</time>
      </trkpt>
      <trkpt lat="47.92228" lon="2.01183">
        <ele>88</ele>
        <time>2014-01-26T07:41:52Z</time>
      </trkpt>
      <trkpt lat="47.92217" lon="2.01178">
        <ele>88</ele>
        <time>2014-01-26T07:41:56Z</time>
      </trkpt>
      <trkpt lat="47.92211" lon="2.01161">
        <ele>88</ele>
        <time>2014-01-26T07:42:00Z</time>
      </trkpt>
      <trkpt lat="47.92212" lon="2.01138">
        <ele>88</ele>
        <time>2014-01-26T07:42:04Z</time>
      </trkpt>
      <trkpt lat="47.92217" lon="2.01117">
        <ele>88</ele>
        <time>2014-01-26T07:42:08Z</time>
      </trkpt>
      <trkpt lat="47.92218" lon="2.01095">
        <ele>88</ele>
        <time>2014-01-26T07:42:12Z</time>
      </trkpt>
      <trkpt lat="47.92211" lon="2.01087">
        <ele>88</ele>
        <time>2014-01-26T07:42:16Z</time>
      </trkpt>
      <trkpt lat="47.92199" lon="2.01078">
        <ele>88</ele>
        <time>2014-01-26T07:42:20Z</time>
      </trkpt>
      <trkpt lat="47.92183" lon="2.01075">
        <ele>88</ele>
        <time>2014-01-26T07:42:24Z</time>
      </trkpt>
      <trkpt lat="47.9217" lon="2.01075">
        <ele>88</ele>
        <time>2014-01-26T07:42:28Z</time>
      </trkpt>
      <trkpt lat="47.92159" lon="2.0108">
        <ele>88</ele>
        <time>2014-01-26T07:42:32Z</time>
      </trkpt>
      <trkpt lat="47.92147" lon="2.01081">
        <ele>87</ele>
        <time>2014-01-26T07:42:36Z</time>
      </trkpt>
      <trkpt lat="47.92137" lon="2.01073">
        <ele>88</ele>
        <time>2014-01-26T07:42:40Z</time>
      </trkpt>
      <trkpt lat="47.9213" lon="2.01062">
        <ele>87</ele>
        <time>2014-01-26T07:42:44Z</time>
      </trkpt>
      <trkpt lat="47.92127" lon="2.01051">
        <ele>87</ele>
        <time>2014-01-26T07:42:48Z</time>
      </trkpt>
      <trkpt lat="47.9212" lon="2.01043">
        <ele>87</ele>
        <time>2014-01-26T07:42:52Z</time>
      </trkpt>
      <trkpt lat="47.92114" lon="2.01037">
        <ele>87</ele>
        <time>2014-01-26T07:42:56Z</time>
      </trkpt>
      <trkpt lat="47.92112" lon="2.0103">
        <ele>87</ele>
        <time>2014-01-26T07:43:00Z</time>
      </trkpt>
      <trkpt lat="47.92115" lon="2.01034">
        <ele>87</ele>
        <time>2014-01-26T07:43:04Z</time>
      </trkpt>
      <trkpt lat="47.92124" lon="2.01048">
        <ele>87</ele>
        <time>2014-01-26T07:43:08Z</time>
      </trkpt>
      <trkpt lat="47.92131" lon="2.01066">
        <ele>87</ele>
        <time>2014-01-26T07:43:12Z</time>
      </trkpt>
      <trkpt lat="47.92145" lon="2.01076">
        <ele>87</ele>
        <time>2014-01-26T07:43:16Z</time>
      </trkpt>
      <trkpt lat="47.92152" lon="2.01076">
        <ele>87</ele>
        <time>2014-01-26T07:43:20Z</time>
      </trkpt>
      <trkpt lat="47.92156" lon="2.01083">
        <ele>87</ele>
        <time>2014-01-26T07:43:52Z</time>
      </trkpt>
      <trkpt lat="47.92153" lon="2.01083">
        <ele>87</ele>
        <time>2014-01-26T07:43:56Z</time>
      </trkpt>
      <trkpt lat="47.92143" lon="2.01076">
        <ele>87</ele>
        <time>2014-01-26T07:44:00Z</time>
      </trkpt>
      <trkpt lat="47.92141" lon="2.01077">
        <ele>87</ele>
        <time>2014-01-26T07:44:04Z</time>
      </trkpt>
      <trkpt lat="47.92133" lon="2.01066">
        <ele>87</ele>
        <time>2014-01-26T07:44:08Z</time>
      </trkpt>
      <trkpt lat="47.92126" lon="2.01057">
        <ele>88</ele>
        <time>2014-01-26T07:44:12Z</time>
      </trkpt>
      <trkpt lat="47.92122" lon="2.01048">
        <ele>88</ele>
        <time>2014-01-26T07:44:16Z</time>
      </trkpt>
      <trkpt lat="47.92115" lon="2.01037">
        <ele>87</ele>
        <time>2014-01-26T07:44:20Z</time>
      </trkpt>
      <trkpt lat="47.92108" lon="2.0103">
        <ele>87</ele>
        <time>2014-01-26T07:44:24Z</time>
      </trkpt>
      <trkpt lat="47.921" lon="2.01015">
        <ele>87</ele>
        <time>2014-01-26T07:44:28Z</time>
      </trkpt>
      <trkpt lat="47.92094" lon="2.0101">
        <ele>87</ele>
        <time>2014-01-26T07:44:32Z</time>
      </trkpt>
      <trkpt lat="47.92088" lon="2.00996">
        <ele>87</ele>
        <time>2014-01-26T07:44:36Z</time>
      </trkpt>
      <trkpt lat="47.92078" lon="2.00984">
        <ele>87</ele>
        <time>2014-01-26T07:44:40Z</time>
      </trkpt>
      <trkpt lat="47.92069" lon="2.00967">
        <ele>87</ele>
        <time>2014-01-26T07:44:44Z</time>
      </trkpt>
      <trkpt lat="47.92058" lon="2.00954">
        <ele>87</ele>
        <time>2014-01-26T07:44:48Z</time>
      </trkpt>
      <trkpt lat="47.92046" lon="2.00946">
        <ele>87</ele>
        <time>2014-01-26T07:44:52Z</time>
      </trkpt>
      <trkpt lat="47.92034" lon="2.00932">
        <ele>87</ele>
        <time>2014-01-26T07:44:56Z</time>
      </trkpt>
      <trkpt lat="47.92021" lon="2.00916">
        <ele>87</ele>
        <time>2014-01-26T07:45:00Z</time>
      </trkpt>
      <trkpt lat="47.92008" lon="2.00904">
        <ele>86</ele>
        <time>2014-01-26T07:45:04Z</time>
      </trkpt>
      <trkpt lat="47.91995" lon="2.00888">
        <ele>87</ele>
        <time>2014-01-26T07:45:08Z</time>
      </trkpt>
      <trkpt lat="47.91985" lon="2.00875">
        <ele>87</ele>
        <time>2014-01-26T07:45:12Z</time>
      </trkpt>
      <trkpt lat="47.91973" lon="2.00859">
        <ele>87</ele>
        <time>2014-01-26T07:45:16Z</time>
      </trkpt>
      <trkpt lat="47.91963" lon="2.0084">
        <ele>86</ele>
        <time>2014-01-26T07:45:20Z</time>
      </trkpt>
      <trkpt lat="47.91948" lon="2.00826">
        <ele>86</ele>
        <time>2014-01-26T07:45:24Z</time>
      </trkpt>
      <trkpt lat="47.91938" lon="2.00811">
        <ele>87</ele>
        <time>2014-01-26T07:45:28Z</time>
      </trkpt>
      <trkpt lat="47.91929" lon="2.00795">
        <ele>87</ele>
        <time>2014-01-26T07:45:32Z</time>
      </trkpt>
      <trkpt lat="47.91917" lon="2.00777">
        <ele>87</ele>
        <time>2014-01-26T07:45:36Z</time>
      </trkpt>
      <trkpt lat="47.91905" lon="2.00759">
        <ele>87</ele>
        <time>2014-01-26T07:45:40Z</time>
      </trkpt>
      <trkpt lat="47.91894" lon="2.00737">
        <ele>87</ele>
        <time>2014-01-26T07:45:44Z</time>
      </trkpt>
      <trkpt lat="47.91893" lon="2.00717">
        <ele>87</ele>
        <time>2014-01-26T07:45:48Z</time>
      </trkpt>
      <trkpt lat="47.91904" lon="2.00701">
        <ele>88</ele>
        <time>2014-01-26T07:45:52Z</time>
      </trkpt>
      <trkpt lat="47.91918" lon="2.00684">
        <ele>88</ele>
        <time>2014-01-26T07:45:56Z</time>
      </trkpt>
      <trkpt lat="47.91916" lon="2.0066">
        <ele>88</ele>
        <time>2014-01-26T07:46:00Z</time>
      </trkpt>
      <trkpt lat="47.91907" lon="2.00641">
        <ele>88</ele>
        <time>2014-01-26T07:46:04Z</time>
      </trkpt>
      <trkpt lat="47.91902" lon="2.0062">
        <ele>88</ele>
        <time>2014-01-26T07:46:08Z</time>
      </trkpt>
      <trkpt lat="47.91896" lon="2.006">
        <ele>88</ele>
        <time>2014-01-26T07:46:12Z</time>
      </trkpt>
      <trkpt lat="47.91897" lon="2.00577">
        <ele>89</ele>
        <time>2014-01-26T07:46:16Z</time>
      </trkpt>
      <trkpt lat="47.91909" lon="2.00562">
        <ele>89</ele>
        <time>2014-01-26T07:46:20Z</time>
      </trkpt>
      <trkpt lat="47.91912" lon="2.00545">
        <ele>88</ele>
        <time>2014-01-26T07:46:24Z</time>
      </trkpt>
      <trkpt lat="47.91903" lon="2.00531">
        <ele>88</ele>
        <time>2014-01-26T07:46:28Z</time>
      </trkpt>
      <trkpt lat="47.91891" lon="2.00521">
        <ele>87</ele>
        <time>2014-01-26T07:46:32Z</time>
      </trkpt>
      <trkpt lat="47.91874" lon="2.00504">
        <ele>87</ele>
        <time>2014-01-26T07:46:40Z</time>
      </trkpt>
      <trkpt lat="47.9184" lon="2.00473">
        <ele>88</ele>
        <time>2014-01-26T07:46:44Z</time>
      </trkpt>
      <trkpt lat="47.9183" lon="2.00462">
        <ele>89</ele>
        <time>2014-01-26T07:46:48Z</time>
      </trkpt>
      <trkpt lat="47.91815" lon="2.00446">
        <ele>89</ele>
        <time>2014-01-26T07:46:52Z</time>
      </trkpt>
      <trkpt lat="47.91803" lon="2.0043">
        <ele>89</ele>
        <time>2014-01-26T07:46:56Z</time>
      </trkpt>
      <trkpt lat="47.9179" lon="2.00414">
        <ele>89</ele>
        <time>2014-01-26T07:47:00Z</time>
      </trkpt>
      <trkpt lat="47.91778" lon="2.00401">
        <ele>89</ele>
        <time>2014-01-26T07:47:04Z</time>
      </trkpt>
      <trkpt lat="47.91766" lon="2.00385">
        <ele>89</ele>
        <time>2014-01-26T07:47:08Z</time>
      </trkpt>
      <trkpt lat="47.91759" lon="2.00371">
        <ele>89</ele>
        <time>2014-01-26T07:47:12Z</time>
      </trkpt>
      <trkpt lat="47.91749" lon="2.00358">
        <ele>89</ele>
        <time>2014-01-26T07:47:16Z</time>
      </trkpt>
      <trkpt lat="47.9174" lon="2.0035">
        <ele>89</ele>
        <time>2014-01-26T07:47:20Z</time>
      </trkpt>
      <trkpt lat="47.91728" lon="2.00336">
        <ele>89</ele>
        <time>2014-01-26T07:47:24Z</time>
      </trkpt>
      <trkpt lat="47.9172" lon="2.00322">
        <ele>88</ele>
        <time>2014-01-26T07:47:28Z</time>
      </trkpt>
      <trkpt lat="47.91709" lon="2.00301">
        <ele>88</ele>
        <time>2014-01-26T07:47:32Z</time>
      </trkpt>
      <trkpt lat="47.91695" lon="2.00282">
        <ele>88</ele>
        <time>2014-01-26T07:47:36Z</time>
      </trkpt>
      <trkpt lat="47.91683" lon="2.00261">
        <ele>88</ele>
        <time>2014-01-26T07:47:40Z</time>
      </trkpt>
      <trkpt lat="47.91669" lon="2.00244">
        <ele>88</ele>
        <time>2014-01-26T07:47:44Z</time>
      </trkpt>
      <trkpt lat="47.91656" lon="2.00225">
        <ele>88</ele>
        <time>2014-01-26T07:47:48Z</time>
      </trkpt>
      <trkpt lat="47.91647" lon="2.00212">
        <ele>88</ele>
        <time>2014-01-26T07:47:52Z</time>
      </trkpt>
      <trkpt lat="47.91642" lon="2.00201">
        <ele>88</ele>
        <time>2014-01-26T07:47:56Z</time>
      </trkpt>
      <trkpt lat="47.91631" lon="2.00173">
        <ele>88</ele>
        <time>2014-01-26T07:48:00Z</time>
      </trkpt>
      <trkpt lat="47.9162" lon="2.00154">
        <ele>88</ele>
        <time>2014-01-26T07:48:04Z</time>
      </trkpt>
      <trkpt lat="47.91613" lon="2.00133">
        <ele>88</ele>
        <time>2014-01-26T07:48:08Z</time>
      </trkpt>
      <trkpt lat="47.91606" lon="2.00113">
        <ele>88</ele>
        <time>2014-01-26T07:48:12Z</time>
      </trkpt>
      <trkpt lat="47.916" lon="2.001">
        <ele>88</ele>
        <time>2014-01-26T07:48:16Z</time>
      </trkpt>
      <trkpt lat="47.91589" lon="2.00095">
        <ele>88</ele>
        <time>2014-01-26T07:48:20Z</time>
      </trkpt>
      <trkpt lat="47.91576" lon="2.00087">
        <ele>88</ele>
        <time>2014-01-26T07:48:24Z</time>
      </trkpt>
      <trkpt lat="47.91566" lon="2.00068">
        <ele>88</ele>
        <time>2014-01-26T07:48:28Z</time>
      </trkpt>
      <trkpt lat="47.9156" lon="2.00047">
        <ele>88</ele>
        <time>2014-01-26T07:48:32Z</time>
      </trkpt>
      <trkpt lat="47.91552" lon="2.00032">
        <ele>88</ele>
        <time>2014-01-26T07:48:36Z</time>
      </trkpt>
      <trkpt lat="47.91541" lon="2.00016">
        <ele>88</ele>
        <time>2014-01-26T07:48:40Z</time>
      </trkpt>
      <trkpt lat="47.91535" lon="1.99992">
        <ele>88</ele>
        <time>2014-01-26T07:48:44Z</time>
      </trkpt>
      <trkpt lat="47.9153" lon="1.99969">
        <ele>88</ele>
        <time>2014-01-26T07:48:48Z</time>
      </trkpt>
      <trkpt lat="47.91535" lon="1.99946">
        <ele>89</ele>
        <time>2014-01-26T07:48:52Z</time>
      </trkpt>
      <trkpt lat="47.91539" lon="1.99927">
        <ele>88</ele>
        <time>2014-01-26T07:48:56Z</time>
      </trkpt>
      <trkpt lat="47.91529" lon="1.999">
        <ele>88</ele>
        <time>2014-01-26T07:49:00Z</time>
      </trkpt>
      <trkpt lat="47.91522" lon="1.99879">
        <ele>88</ele>
        <time>2014-01-26T07:49:04Z</time>
      </trkpt>
      <trkpt lat="47.91518" lon="1.99863">
        <ele>89</ele>
        <time>2014-01-26T07:49:08Z</time>
      </trkpt>
      <trkpt lat="47.91509" lon="1.99843">
        <ele>89</ele>
        <time>2014-01-26T07:49:12Z</time>
      </trkpt>
      <trkpt lat="47.91502" lon="1.99828">
        <ele>89</ele>
        <time>2014-01-26T07:49:16Z</time>
      </trkpt>
      <trkpt lat="47.91494" lon="1.99806">
        <ele>90</ele>
        <time>2014-01-26T07:49:20Z</time>
      </trkpt>
      <trkpt lat="47.91487" lon="1.99783">
        <ele>90</ele>
        <time>2014-01-26T07:49:24Z</time>
      </trkpt>
      <trkpt lat="47.91482" lon="1.99766">
        <ele>90</ele>
        <time>2014-01-26T07:49:28Z</time>
      </trkpt>
      <trkpt lat="47.91472" lon="1.99746">
        <ele>90</ele>
        <time>2014-01-26T07:49:32Z</time>
      </trkpt>
      <trkpt lat="47.91462" lon="1.99725">
        <ele>90</ele>
        <time>2014-01-26T07:49:36Z</time>
      </trkpt>
      <trkpt lat="47.91447" lon="1.99696">
        <ele>90</ele>
        <time>2014-01-26T07:49:40Z</time>
      </trkpt>
      <trkpt lat="47.91433" lon="1.99679">
        <ele>90</ele>
        <time>2014-01-26T07:49:44Z</time>
      </trkpt>
      <trkpt lat="47.9142" lon="1.99668">
        <ele>90</ele>
        <time>2014-01-26T07:49:48Z</time>
      </trkpt>
      <trkpt lat="47.91414" lon="1.99657">
        <ele>90</ele>
        <time>2014-01-26T07:49:52Z</time>
      </trkpt>
      <trkpt lat="47.91401" lon="1.99641">
        <ele>89</ele>
        <time>2014-01-26T07:49:56Z</time>
      </trkpt>
      <trkpt lat="47.91383" lon="1.9963">
        <ele>90</ele>
        <time>2014-01-26T07:50:00Z</time>
      </trkpt>
      <trkpt lat="47.9137" lon="1.99617">
        <ele>90</ele>
        <time>2014-01-26T07:50:04Z</time>
      </trkpt>
      <trkpt lat="47.91359" lon="1.99606">
        <ele>90</ele>
        <time>2014-01-26T07:50:08Z</time>
      </trkpt>
      <trkpt lat="47.9135" lon="1.99594">
        <ele>90</ele>
        <time>2014-01-26T07:50:12Z</time>
      </trkpt>
      <trkpt lat="47.91335" lon="1.99576">
        <ele>90</ele>
        <time>2014-01-26T07:50:16Z</time>
      </trkpt>
      <trkpt lat="47.91323" lon="1.99554">
        <ele>90</ele>
        <time>2014-01-26T07:50:20Z</time>
      </trkpt>
      <trkpt lat="47.91316" lon="1.99531">
        <ele>90</ele>
        <time>2014-01-26T07:50:24Z</time>
      </trkpt>
      <trkpt lat="47.91311" lon="1.9951">
        <ele>90</ele>
        <time>2014-01-26T07:50:28Z</time>
      </trkpt>
      <trkpt lat="47.91299" lon="1.99485">
        <ele>90</ele>
        <time>2014-01-26T07:50:32Z</time>
      </trkpt>
      <trkpt lat="47.91288" lon="1.99461">
        <ele>90</ele>
        <time>2014-01-26T07:50:36Z</time>
      </trkpt>
      <trkpt lat="47.91275" lon="1.99435">
        <ele>90</ele>
        <time>2014-01-26T07:50:40Z</time>
      </trkpt>
      <trkpt lat="47.91261" lon="1.99419">
        <ele>90</ele>
        <time>2014-01-26T07:50:44Z</time>
      </trkpt>
      <trkpt lat="47.91243" lon="1.99402">
        <ele>90</ele>
        <time>2014-01-26T07:50:48Z</time>
      </trkpt>
      <trkpt lat="47.91231" lon="1.99381">
        <ele>90</ele>
        <time>2014-01-26T07:50:52Z</time>
      </trkpt>
      <trkpt lat="47.91219" lon="1.9937">
        <ele>90</ele>
        <time>2014-01-26T07:50:56Z</time>
      </trkpt>
      <trkpt lat="47.91203" lon="1.99347">
        <ele>90</ele>
        <time>2014-01-26T07:51:00Z</time>
      </trkpt>
      <trkpt lat="47.91186" lon="1.99339">
        <ele>90</ele>
        <time>2014-01-26T07:51:04Z</time>
      </trkpt>
      <trkpt lat="47.91169" lon="1.99311">
        <ele>90</ele>
        <time>2014-01-26T07:51:08Z</time>
      </trkpt>
      <trkpt lat="47.91152" lon="1.99298">
        <ele>90</ele>
        <time>2014-01-26T07:51:12Z</time>
      </trkpt>
      <trkpt lat="47.91137" lon="1.99279">
        <ele>90</ele>
        <time>2014-01-26T07:51:16Z</time>
      </trkpt>
      <trkpt lat="47.91119" lon="1.99263">
        <ele>90</ele>
        <time>2014-01-26T07:51:20Z</time>
      </trkpt>
      <trkpt lat="47.91102" lon="1.99245">
        <ele>90</ele>
        <time>2014-01-26T07:51:24Z</time>
      </trkpt>
      <trkpt lat="47.91086" lon="1.99232">
        <ele>90</ele>
        <time>2014-01-26T07:51:28Z</time>
      </trkpt>
      <trkpt lat="47.91066" lon="1.99226">
        <ele>90</ele>
        <time>2014-01-26T07:51:32Z</time>
      </trkpt>
      <trkpt lat="47.91046" lon="1.99223">
        <ele>90</ele>
        <time>2014-01-26T07:51:36Z</time>
      </trkpt>
      <trkpt lat="47.91026" lon="1.99219">
        <ele>91</ele>
        <time>2014-01-26T07:51:40Z</time>
      </trkpt>
      <trkpt lat="47.91008" lon="1.99217">
        <ele>91</ele>
        <time>2014-01-26T07:51:44Z</time>
      </trkpt>
      <trkpt lat="47.90988" lon="1.99215">
        <ele>91</ele>
        <time>2014-01-26T07:51:48Z</time>
      </trkpt>
      <trkpt lat="47.90969" lon="1.9921">
        <ele>91</ele>
        <time>2014-01-26T07:51:52Z</time>
      </trkpt>
      <trkpt lat="47.90952" lon="1.99204">
        <ele>92</ele>
        <time>2014-01-26T07:51:56Z</time>
      </trkpt>
      <trkpt lat="47.90931" lon="1.992">
        <ele>92</ele>
        <time>2014-01-26T07:52:00Z</time>
      </trkpt>
      <trkpt lat="47.90913" lon="1.99194">
        <ele>92</ele>
        <time>2014-01-26T07:52:04Z</time>
      </trkpt>
      <trkpt lat="47.90894" lon="1.99184">
        <ele>92</ele>
        <time>2014-01-26T07:52:08Z</time>
      </trkpt>
      <trkpt lat="47.90874" lon="1.99178">
        <ele>92</ele>
        <time>2014-01-26T07:52:12Z</time>
      </trkpt>
      <trkpt lat="47.90859" lon="1.99173">
        <ele>92</ele>
        <time>2014-01-26T07:52:16Z</time>
      </trkpt>
      <trkpt lat="47.90841" lon="1.99163">
        <ele>92</ele>
        <time>2014-01-26T07:52:20Z</time>
      </trkpt>
      <trkpt lat="47.90822" lon="1.99155">
        <ele>92</ele>
        <time>2014-01-26T07:52:24Z</time>
      </trkpt>
      <trkpt lat="47.90802" lon="1.99143">
        <ele>93</ele>
        <time>2014-01-26T07:52:28Z</time>
      </trkpt>
      <trkpt lat="47.90785" lon="1.99132">
        <ele>93</ele>
        <time>2014-01-26T07:52:32Z</time>
      </trkpt>
      <trkpt lat="47.90771" lon="1.99119">
        <ele>93</ele>
        <time>2014-01-26T07:52:36Z</time>
      </trkpt>
      <trkpt lat="47.90754" lon="1.99105">
        <ele>93</ele>
        <time>2014-01-26T07:52:40Z</time>
      </trkpt>
      <trkpt lat="47.90739" lon="1.99088">
        <ele>93</ele>
        <time>2014-01-26T07:52:44Z</time>
      </trkpt>
      <trkpt lat="47.90724" lon="1.99071">
        <ele>93</ele>
        <time>2014-01-26T07:52:48Z</time>
      </trkpt>
      <trkpt lat="47.90707" lon="1.99053">
        <ele>93</ele>
        <time>2014-01-26T07:52:52Z</time>
      </trkpt>
      <trkpt lat="47.90694" lon="1.99034">
        <ele>93</ele>
        <time>2014-01-26T07:52:56Z</time>
      </trkpt>
      <trkpt lat="47.90678" lon="1.99015">
        <ele>93</ele>
        <time>2014-01-26T07:53:00Z</time>
      </trkpt>
      <trkpt lat="47.90662" lon="1.99001">
        <ele>93</ele>
        <time>2014-01-26T07:53:04Z</time>
      </trkpt>
      <trkpt lat="47.90645" lon="1.98983">
        <ele>93</ele>
        <time>2014-01-26T07:53:08Z</time>
      </trkpt>
      <trkpt lat="47.90628" lon="1.98968">
        <ele>92</ele>
        <time>2014-01-26T07:53:12Z</time>
      </trkpt>
      <trkpt lat="47.9061" lon="1.98951">
        <ele>92</ele>
        <time>2014-01-26T07:53:16Z</time>
      </trkpt>
      <trkpt lat="47.90596" lon="1.98936">
        <ele>93</ele>
        <time>2014-01-26T07:53:20Z</time>
      </trkpt>
      <trkpt lat="47.90582" lon="1.98922">
        <ele>93</ele>
        <time>2014-01-26T07:53:24Z</time>
      </trkpt>
      <trkpt lat="47.90565" lon="1.98909">
        <ele>92</ele>
        <time>2014-01-26T07:53:28Z</time>
      </trkpt>
      <trkpt lat="47.9055" lon="1.98899">
        <ele>91</ele>
        <time>2014-01-26T07:53:32Z</time>
      </trkpt>
      <trkpt lat="47.90538" lon="1.98897">
        <ele>91</ele>
        <time>2014-01-26T07:53:36Z</time>
      </trkpt>
      <trkpt lat="47.90533" lon="1.98912">
        <ele>91</ele>
        <time>2014-01-26T07:53:40Z</time>
      </trkpt>
      <trkpt lat="47.90526" lon="1.98934">
        <ele>91</ele>
        <time>2014-01-26T07:53:44Z</time>
      </trkpt>
      <trkpt lat="47.90518" lon="1.98961">
        <ele>91</ele>
        <time>2014-01-26T07:53:48Z</time>
      </trkpt>
      <trkpt lat="47.90511" lon="1.98987">
        <ele>91</ele>
        <time>2014-01-26T07:53:52Z</time>
      </trkpt>
      <trkpt lat="47.90503" lon="1.99013">
        <ele>91</ele>
        <time>2014-01-26T07:53:56Z</time>
      </trkpt>
      <trkpt lat="47.905" lon="1.99043">
        <ele>91</ele>
        <time>2014-01-26T07:54:00Z</time>
      </trkpt>
      <trkpt lat="47.90495" lon="1.99066">
        <ele>92</ele>
        <time>2014-01-26T07:54:04Z</time>
      </trkpt>
      <trkpt lat="47.90488" lon="1.9909">
        <ele>91</ele>
        <time>2014-01-26T07:54:08Z</time>
      </trkpt>
      <trkpt lat="47.90476" lon="1.99119">
        <ele>91</ele>
        <time>2014-01-26T07:54:12Z</time>
      </trkpt>
      <trkpt lat="47.90465" lon="1.99149">
        <ele>91</ele>
        <time>2014-01-26T07:54:16Z</time>
      </trkpt>
      <trkpt lat="47.90455" lon="1.99175">
        <ele>92</ele>
        <time>2014-01-26T07:54:20Z</time>
      </trkpt>
      <trkpt lat="47.90441" lon="1.99184">
        <ele>92</ele>
        <time>2014-01-26T07:54:24Z</time>
      </trkpt>
      <trkpt lat="47.90424" lon="1.9918">
        <ele>93</ele>
        <time>2014-01-26T07:54:28Z</time>
      </trkpt>
      <trkpt lat="47.90408" lon="1.9917">
        <ele>94</ele>
        <time>2014-01-26T07:54:32Z</time>
      </trkpt>
      <trkpt lat="47.90392" lon="1.99156">
        <ele>94</ele>
        <time>2014-01-26T07:54:36Z</time>
      </trkpt>
      <trkpt lat="47.90374" lon="1.99146">
        <ele>95</ele>
        <time>2014-01-26T07:54:40Z</time>
      </trkpt>
      <trkpt lat="47.90361" lon="1.99129">
        <ele>95</ele>
        <time>2014-01-26T07:54:44Z</time>
      </trkpt>
      <trkpt lat="47.90352" lon="1.99099">
        <ele>95</ele>
        <time>2014-01-26T07:54:48Z</time>
      </trkpt>
      <trkpt lat="47.90347" lon="1.99076">
        <ele>95</ele>
        <time>2014-01-26T07:54:52Z</time>
      </trkpt>
      <trkpt lat="47.90341" lon="1.99051">
        <ele>95</ele>
        <time>2014-01-26T07:54:56Z</time>
      </trkpt>
      <trkpt lat="47.90335" lon="1.99028">
        <ele>96</ele>
        <time>2014-01-26T07:55:00Z</time>
      </trkpt>
      <trkpt lat="47.90328" lon="1.99006">
        <ele>96</ele>
        <time>2014-01-26T07:55:04Z</time>
      </trkpt>
      <trkpt lat="47.90323" lon="1.98976">
        <ele>95</ele>
        <time>2014-01-26T07:55:08Z</time>
      </trkpt>
      <trkpt lat="47.9032" lon="1.98951">
        <ele>95</ele>
        <time>2014-01-26T07:55:12Z</time>
      </trkpt>
      <trkpt lat="47.90315" lon="1.98924">
        <ele>95</ele>
        <time>2014-01-26T07:55:16Z</time>
      </trkpt>
      <trkpt lat="47.90311" lon="1.98906">
        <ele>95</ele>
        <time>2014-01-26T07:55:20Z</time>
      </trkpt>
      <trkpt lat="47.90298" lon="1.98903">
        <ele>96</ele>
        <time>2014-01-26T07:55:24Z</time>
      </trkpt>
      <trkpt lat="47.90283" lon="1.98907">
        <ele>97</ele>
        <time>2014-01-26T07:55:28Z</time>
      </trkpt>
      <trkpt lat="47.90268" lon="1.98907">
        <ele>98</ele>
        <time>2014-01-26T07:55:32Z</time>
      </trkpt>
      <trkpt lat="47.90252" lon="1.98903">
        <ele>98</ele>
        <time>2014-01-26T07:55:36Z</time>
      </trkpt>
      <trkpt lat="47.90241" lon="1.98905">
        <ele>99</ele>
        <time>2014-01-26T07:55:40Z</time>
      </trkpt>
      <trkpt lat="47.90225" lon="1.98905">
        <ele>100</ele>
        <time>2014-01-26T07:55:44Z</time>
      </trkpt>
      <trkpt lat="47.90209" lon="1.98905">
        <ele>100</ele>
        <time>2014-01-26T07:55:48Z</time>
      </trkpt>
      <trkpt lat="47.90195" lon="1.98911">
        <ele>100</ele>
        <time>2014-01-26T07:55:52Z</time>
      </trkpt>
      <trkpt lat="47.90186" lon="1.98914">
        <ele>100</ele>
        <time>2014-01-26T07:55:56Z</time>
      </trkpt>
      <trkpt lat="47.9018" lon="1.98929">
        <ele>99</ele>
        <time>2014-01-26T07:56:00Z</time>
      </trkpt>
      <trkpt lat="47.90169" lon="1.98917">
        <ele>99</ele>
        <time>2014-01-26T07:56:04Z</time>
      </trkpt>
      <trkpt lat="47.90158" lon="1.98905">
        <ele>98</ele>
        <time>2014-01-26T07:56:08Z</time>
      </trkpt>
      <trkpt lat="47.90144" lon="1.98896">
        <ele>97</ele>
        <time>2014-01-26T07:56:12Z</time>
      </trkpt>
      <trkpt lat="47.90125" lon="1.98889">
        <ele>96</ele>
        <time>2014-01-26T07:56:16Z</time>
      </trkpt>
      <trkpt lat="47.90103" lon="1.98875">
        <ele>95</ele>
        <time>2014-01-26T07:56:20Z</time>
      </trkpt>
      <trkpt lat="47.9008" lon="1.98863">
        <ele>94</ele>
        <time>2014-01-26T07:56:24Z</time>
      </trkpt>
      <trkpt lat="47.9006" lon="1.98854">
        <ele>94</ele>
        <time>2014-01-26T07:56:28Z</time>
      </trkpt>
      <trkpt lat="47.90043" lon="1.98843">
        <ele>94</ele>
        <time>2014-01-26T07:56:32Z</time>
      </trkpt>
      <trkpt lat="47.90025" lon="1.98832">
        <ele>93</ele>
        <time>2014-01-26T07:56:36Z</time>
      </trkpt>
      <trkpt lat="47.90007" lon="1.98819">
        <ele>92</ele>
        <time>2014-01-26T07:56:40Z</time>
      </trkpt>
      <trkpt lat="47.89989" lon="1.98808">
        <ele>93</ele>
        <time>2014-01-26T07:56:44Z</time>
      </trkpt>
      <trkpt lat="47.89981" lon="1.98787">
        <ele>92</ele>
        <time>2014-01-26T07:56:48Z</time>
      </trkpt>
      <trkpt lat="47.89991" lon="1.98765">
        <ele>92</ele>
        <time>2014-01-26T07:56:52Z</time>
      </trkpt>
      <trkpt lat="47.90002" lon="1.98748">
        <ele>92</ele>
        <time>2014-01-26T07:56:56Z</time>
      </trkpt>
      <trkpt lat="47.90013" lon="1.98728">
        <ele>92</ele>
        <time>2014-01-26T07:57:00Z</time>
      </trkpt>
      <trkpt lat="47.90023" lon="1.9871">
        <ele>92</ele>
        <time>2014-01-26T07:57:04Z</time>
      </trkpt>
      <trkpt lat="47.90025" lon="1.9869">
        <ele>92</ele>
        <time>2014-01-26T07:57:08Z</time>
      </trkpt>
      <trkpt lat="47.90015" lon="1.98672">
        <ele>92</ele>
        <time>2014-01-26T07:57:12Z</time>
      </trkpt>
      <trkpt lat="47.9" lon="1.98658">
        <ele>92</ele>
        <time>2014-01-26T07:57:16Z</time>
      </trkpt>
      <trkpt lat="47.89984" lon="1.98644">
        <ele>92</ele>
        <time>2014-01-26T07:57:20Z</time>
      </trkpt>
      <trkpt lat="47.8997" lon="1.98631">
        <ele>93</ele>
        <time>2014-01-26T07:57:24Z</time>
      </trkpt>
      <trkpt lat="47.89957" lon="1.98616">
        <ele>93</ele>
        <time>2014-01-26T07:57:28Z</time>
      </trkpt>
      <trkpt lat="47.89945" lon="1.98605">
        <ele>92</ele>
        <time>2014-01-26T07:57:32Z</time>
      </trkpt>
      <trkpt lat="47.89928" lon="1.98597">
        <ele>92</ele>
        <time>2014-01-26T07:57:36Z</time>
      </trkpt>
      <trkpt lat="47.89911" lon="1.9859">
        <ele>93</ele>
        <time>2014-01-26T07:57:40Z</time>
      </trkpt>
      <trkpt lat="47.89906" lon="1.9857">
        <ele>93</ele>
        <time>2014-01-26T07:57:44Z</time>
      </trkpt>
      <trkpt lat="47.89906" lon="1.98548">
        <ele>93</ele>
        <time>2014-01-26T07:57:48Z</time>
      </trkpt>
      <trkpt lat="47.89895" lon="1.9854">
        <ele>93</ele>
        <time>2014-01-26T07:57:52Z</time>
      </trkpt>
      <trkpt lat="47.89883" lon="1.98539">
        <ele>92</ele>
        <time>2014-01-26T07:57:56Z</time>
      </trkpt>
      <trkpt lat="47.89865" lon="1.9854">
        <ele>92</ele>
        <time>2014-01-26T07:58:00Z</time>
      </trkpt>
      <trkpt lat="47.89855" lon="1.98558">
        <ele>92</ele>
        <time>2014-01-26T07:58:04Z</time>
      </trkpt>
      <trkpt lat="47.89847" lon="1.98579">
        <ele>92</ele>
        <time>2014-01-26T07:58:08Z</time>
      </trkpt>
      <trkpt lat="47.89841" lon="1.98602">
        <ele>92</ele>
        <time>2014-01-26T07:58:12Z</time>
      </trkpt>
      <trkpt lat="47.89834" lon="1.98628">
        <ele>92</ele>
        <time>2014-01-26T07:58:16Z</time>
      </trkpt>
      <trkpt lat="47.89827" lon="1.98654">
        <ele>92</ele>
        <time>2014-01-26T07:58:20Z</time>
      </trkpt>
      <trkpt lat="47.89821" lon="1.98676">
        <ele>92</ele>
        <time>2014-01-26T07:58:24Z</time>
      </trkpt>
      <trkpt lat="47.89815" lon="1.987">
        <ele>92</ele>
        <time>2014-01-26T07:58:28Z</time>
      </trkpt>
      <trkpt lat="47.89814" lon="1.98727">
        <ele>92</ele>
        <time>2014-01-26T07:58:32Z</time>
      </trkpt>
      <trkpt lat="47.89804" lon="1.98753">
        <ele>92</ele>
        <time>2014-01-26T07:58:36Z</time>
      </trkpt>
      <trkpt lat="47.89799" lon="1.98777">
        <ele>92</ele>
        <time>2014-01-26T07:58:40Z</time>
      </trkpt>
      <trkpt lat="47.89792" lon="1.98801">
        <ele>92</ele>
        <time>2014-01-26T07:58:44Z</time>
      </trkpt>
      <trkpt lat="47.89789" lon="1.98824">
        <ele>92</ele>
        <time>2014-01-26T07:58:48Z</time>
      </trkpt>
      <trkpt lat="47.89783" lon="1.98849">
        <ele>92</ele>
        <time>2014-01-26T07:58:52Z</time>
      </trkpt>
      <trkpt lat="47.89782" lon="1.98877">
        <ele>91</ele>
        <time>2014-01-26T07:58:56Z</time>
      </trkpt>
      <trkpt lat="47.89774" lon="1.98902">
        <ele>91</ele>
        <time>2014-01-26T07:59:00Z</time>
      </trkpt>
      <trkpt lat="47.89765" lon="1.98933">
        <ele>91</ele>
        <time>2014-01-26T07:59:04Z</time>
      </trkpt>
      <trkpt lat="47.89757" lon="1.98957">
        <ele>91</ele>
        <time>2014-01-26T07:59:08Z</time>
      </trkpt>
      <trkpt lat="47.8975" lon="1.98983">
        <ele>90</ele>
        <time>2014-01-26T07:59:12Z</time>
      </trkpt>
      <trkpt lat="47.89741" lon="1.99007">
        <ele>90</ele>
        <time>2014-01-26T07:59:16Z</time>
      </trkpt>
      <trkpt lat="47.89742" lon="1.99023">
        <ele>90</ele>
        <time>2014-01-26T07:59:20Z</time>
      </trkpt>
      <trkpt lat="47.89758" lon="1.99032">
        <ele>90</ele>
        <time>2014-01-26T07:59:24Z</time>
      </trkpt>
      <trkpt lat="47.89778" lon="1.99038">
        <ele>92</ele>
        <time>2014-01-26T07:59:28Z</time>
      </trkpt>
      <trkpt lat="47.8979" lon="1.99041">
        <ele>92</ele>
        <time>2014-01-26T07:59:32Z</time>
      </trkpt>
      <trkpt lat="47.89802" lon="1.99049">
        <ele>92</ele>
        <time>2014-01-26T07:59:36Z</time>
      </trkpt>
      <trkpt lat="47.89811" lon="1.99057">
        <ele>93</ele>
        <time>2014-01-26T07:59:40Z</time>
      </trkpt>
      <trkpt lat="47.89815" lon="1.99068">
        <ele>94</ele>
        <time>2014-01-26T07:59:44Z</time>
      </trkpt>
      <trkpt lat="47.89814" lon="1.99081">
        <ele>93</ele>
        <time>2014-01-26T07:59:48Z</time>
      </trkpt>
      <trkpt lat="47.89807" lon="1.99101">
        <ele>92</ele>
        <time>2014-01-26T07:59:52Z</time>
      </trkpt>
      <trkpt lat="47.89792" lon="1.99098">
        <ele>92</ele>
        <time>2014-01-26T07:59:56Z</time>
      </trkpt>
      <trkpt lat="47.89781" lon="1.99093">
        <ele>92</ele>
        <time>2014-01-26T08:00:00Z</time>
      </trkpt>
      <trkpt lat="47.89766" lon="1.99082">
        <ele>91</ele>
        <time>2014-01-26T08:00:04Z</time>
      </trkpt>
      <trkpt lat="47.89735" lon="1.99079">
        <ele>93</ele>
        <time>2014-01-26T08:01:40Z</time>
      </trkpt>
      <trkpt lat="47.89733" lon="1.99076">
        <ele>92</ele>
        <time>2014-01-26T08:01:44Z</time>
      </trkpt>
      <trkpt lat="47.89723" lon="1.99076">
        <ele>92</ele>
        <time>2014-01-26T08:01:48Z</time>
      </trkpt>
      <trkpt lat="47.89711" lon="1.9908">
        <ele>92</ele>
        <time>2014-01-26T08:01:52Z</time>
      </trkpt>
      <trkpt lat="47.89706" lon="1.99087">
        <ele>93</ele>
        <time>2014-01-26T08:01:56Z</time>
      </trkpt>
      <trkpt lat="47.89701" lon="1.99097">
        <ele>93</ele>
        <time>2014-01-26T08:02:04Z</time>
      </trkpt>
      <trkpt lat="47.89692" lon="1.99108">
        <ele>93</ele>
        <time>2014-01-26T08:02:08Z</time>
      </trkpt>
      <trkpt lat="47.89684" lon="1.99117">
        <ele>93</ele>
        <time>2014-01-26T08:02:12Z</time>
      </trkpt>
      <trkpt lat="47.89676" lon="1.99128">
        <ele>93</ele>
        <time>2014-01-26T08:02:16Z</time>
      </trkpt>
      <trkpt lat="47.89671" lon="1.99144">
        <ele>93</ele>
        <time>2014-01-26T08:02:20Z</time>
      </trkpt>
      <trkpt lat="47.89662" lon="1.99156">
        <ele>94</ele>
        <time>2014-01-26T08:02:24Z</time>
      </trkpt>
      <trkpt lat="47.89654" lon="1.99171">
        <ele>94</ele>
        <time>2014-01-26T08:02:28Z</time>
      </trkpt>
      <trkpt lat="47.89645" lon="1.99184">
        <ele>94</ele>
        <time>2014-01-26T08:02:32Z</time>
      </trkpt>
      <trkpt lat="47.8964" lon="1.992">
        <ele>94</ele>
        <time>2014-01-26T08:02:36Z</time>
      </trkpt>
      <trkpt lat="47.89632" lon="1.99214">
        <ele>94</ele>
        <time>2014-01-26T08:02:40Z</time>
      </trkpt>
      <trkpt lat="47.89623" lon="1.9923">
        <ele>94</ele>
        <time>2014-01-26T08:02:44Z</time>
      </trkpt>
      <trkpt lat="47.89614" lon="1.99239">
        <ele>94</ele>
        <time>2014-01-26T08:02:48Z</time>
      </trkpt>
      <trkpt lat="47.89602" lon="1.99252">
        <ele>94</ele>
        <time>2014-01-26T08:02:52Z</time>
      </trkpt>
      <trkpt lat="47.89594" lon="1.99269">
        <ele>95</ele>
        <time>2014-01-26T08:02:56Z</time>
      </trkpt>
      <trkpt lat="47.8958" lon="1.99286">
        <ele>95</ele>
        <time>2014-01-26T08:03:00Z</time>
      </trkpt>
      <trkpt lat="47.89575" lon="1.993">
        <ele>96</ele>
        <time>2014-01-26T08:03:04Z</time>
      </trkpt>
      <trkpt lat="47.89559" lon="1.99313">
        <ele>96</ele>
        <time>2014-01-26T08:03:08Z</time>
      </trkpt>
      <trkpt lat="47.89547" lon="1.99329">
        <ele>96</ele>
        <time>2014-01-26T08:03:12Z</time>
      </trkpt>
      <trkpt lat="47.89532" lon="1.99342">
        <ele>96</ele>
        <time>2014-01-26T08:03:16Z</time>
      </trkpt>
      <trkpt lat="47.89523" lon="1.99358">
        <ele>96</ele>
        <time>2014-01-26T08:03:20Z</time>
      </trkpt>
      <trkpt lat="47.89504" lon="1.99365">
        <ele>96</ele>
        <time>2014-01-26T08:03:24Z</time>
      </trkpt>
      <trkpt lat="47.89494" lon="1.99387">
        <ele>96</ele>
        <time>2014-01-26T08:03:28Z</time>
      </trkpt>
      <trkpt lat="47.89481" lon="1.99415">
        <ele>97</ele>
        <time>2014-01-26T08:03:32Z</time>
      </trkpt>
      <trkpt lat="47.89467" lon="1.99421">
        <ele>97</ele>
        <time>2014-01-26T08:03:36Z</time>
      </trkpt>
      <trkpt lat="47.89452" lon="1.9943">
        <ele>97</ele>
        <time>2014-01-26T08:03:40Z</time>
      </trkpt>
      <trkpt lat="47.89441" lon="1.99441">
        <ele>97</ele>
        <time>2014-01-26T08:03:44Z</time>
      </trkpt>
      <trkpt lat="47.8943" lon="1.99452">
        <ele>97</ele>
        <time>2014-01-26T08:03:48Z</time>
      </trkpt>
      <trkpt lat="47.89419" lon="1.99459">
        <ele>97</ele>
        <time>2014-01-26T08:03:52Z</time>
      </trkpt>
      <trkpt lat="47.89413" lon="1.99474">
        <ele>97</ele>
        <time>2014-01-26T08:03:56Z</time>
      </trkpt>
      <trkpt lat="47.89399" lon="1.99488">
        <ele>98</ele>
        <time>2014-01-26T08:04:00Z</time>
      </trkpt>
      <trkpt lat="47.89385" lon="1.99508">
        <ele>98</ele>
        <time>2014-01-26T08:04:04Z</time>
      </trkpt>
      <trkpt lat="47.89371" lon="1.99529">
        <ele>98</ele>
        <time>2014-01-26T08:04:08Z</time>
      </trkpt>
      <trkpt lat="47.89358" lon="1.99551">
        <ele>98</ele>
        <time>2014-01-26T08:04:12Z</time>
      </trkpt>
      <trkpt lat="47.89341" lon="1.99571">
        <ele>98</ele>
        <time>2014-01-26T08:04:16Z</time>
      </trkpt>
      <trkpt lat="47.89326" lon="1.99595">
        <ele>98</ele>
        <time>2014-01-26T08:04:20Z</time>
      </trkpt>
      <trkpt lat="47.89316" lon="1.99616">
        <ele>98</ele>
        <time>2014-01-26T08:04:24Z</time>
      </trkpt>
      <trkpt lat="47.89305" lon="1.99626">
        <ele>98</ele>
        <time>2014-01-26T08:04:28Z</time>
      </trkpt>
      <trkpt lat="47.89289" lon="1.99637">
        <ele>98</ele>
        <time>2014-01-26T08:04:32Z</time>
      </trkpt>
      <trkpt lat="47.89278" lon="1.99647">
        <ele>97</ele>
        <time>2014-01-26T08:04:36Z</time>
      </trkpt>
      <trkpt lat="47.89259" lon="1.99667">
        <ele>98</ele>
        <time>2014-01-26T08:04:40Z</time>
      </trkpt>
      <trkpt lat="47.89244" lon="1.99692">
        <ele>98</ele>
        <time>2014-01-26T08:04:44Z</time>
      </trkpt>
      <trkpt lat="47.89234" lon="1.99714">
        <ele>98</ele>
        <time>2014-01-26T08:04:48Z</time>
      </trkpt>
      <trkpt lat="47.89219" lon="1.99734">
        <ele>97</ele>
        <time>2014-01-26T08:04:52Z</time>
      </trkpt>
      <trkpt lat="47.89205" lon="1.9975">
        <ele>98</ele>
        <time>2014-01-26T08:04:56Z</time>
      </trkpt>
      <trkpt lat="47.89201" lon="1.99769">
        <ele>97</ele>
        <time>2014-01-26T08:05:00Z</time>
      </trkpt>
      <trkpt lat="47.89191" lon="1.99792">
        <ele>97</ele>
        <time>2014-01-26T08:05:04Z</time>
      </trkpt>
      <trkpt lat="47.89179" lon="1.99804">
        <ele>97</ele>
        <time>2014-01-26T08:05:08Z</time>
      </trkpt>
      <trkpt lat="47.89166" lon="1.99821">
        <ele>98</ele>
        <time>2014-01-26T08:05:12Z</time>
      </trkpt>
      <trkpt lat="47.89149" lon="1.99836">
        <ele>97</ele>
        <time>2014-01-26T08:05:16Z</time>
      </trkpt>
      <trkpt lat="47.8914" lon="1.99846">
        <ele>97</ele>
        <time>2014-01-26T08:05:20Z</time>
      </trkpt>
      <trkpt lat="47.89126" lon="1.9987">
        <ele>98</ele>
        <time>2014-01-26T08:05:24Z</time>
      </trkpt>
      <trkpt lat="47.89111" lon="1.99892">
        <ele>98</ele>
        <time>2014-01-26T08:05:28Z</time>
      </trkpt>
      <trkpt lat="47.89097" lon="1.99909">
        <ele>98</ele>
        <time>2014-01-26T08:05:32Z</time>
      </trkpt>
      <trkpt lat="47.89081" lon="1.99923">
        <ele>99</ele>
        <time>2014-01-26T08:05:36Z</time>
      </trkpt>
      <trkpt lat="47.89069" lon="1.99946">
        <ele>98</ele>
        <time>2014-01-26T08:05:40Z</time>
      </trkpt>
      <trkpt lat="47.89057" lon="1.99978">
        <ele>98</ele>
        <time>2014-01-26T08:05:44Z</time>
      </trkpt>
      <trkpt lat="47.8905" lon="1.99996">
        <ele>99</ele>
        <time>2014-01-26T08:05:48Z</time>
      </trkpt>
      <trkpt lat="47.89043" lon="2.00025">
        <ele>99</ele>
        <time>2014-01-26T08:05:52Z</time>
      </trkpt>
      <trkpt lat="47.89041" lon="2.00051">
        <ele>98</ele>
        <time>2014-01-26T08:05:56Z</time>
      </trkpt>
      <trkpt lat="47.8904" lon="2.00079">
        <ele>98</ele>
        <time>2014-01-26T08:06:00Z</time>
      </trkpt>
      <trkpt lat="47.89031" lon="2.00103">
        <ele>98</ele>
        <time>2014-01-26T08:06:04Z</time>
      </trkpt>
      <trkpt lat="47.89023" lon="2.00132">
        <ele>97</ele>
        <time>2014-01-26T08:06:08Z</time>
      </trkpt>
      <trkpt lat="47.89014" lon="2.00161">
        <ele>98</ele>
        <time>2014-01-26T08:06:12Z</time>
      </trkpt>
      <trkpt lat="47.89007" lon="2.00188">
        <ele>97</ele>
        <time>2014-01-26T08:06:16Z</time>
      </trkpt>
      <trkpt lat="47.89" lon="2.00218">
        <ele>97</ele>
        <time>2014-01-26T08:06:20Z</time>
      </trkpt>
      <trkpt lat="47.88986" lon="2.00247">
        <ele>97</ele>
        <time>2014-01-26T08:06:24Z</time>
      </trkpt>
      <trkpt lat="47.88977" lon="2.00271">
        <ele>97</ele>
        <time>2014-01-26T08:06:28Z</time>
      </trkpt>
      <trkpt lat="47.88966" lon="2.00297">
        <ele>98</ele>
        <time>2014-01-26T08:06:32Z</time>
      </trkpt>
      <trkpt lat="47.88959" lon="2.00334">
        <ele>98</ele>
        <time>2014-01-26T08:06:36Z</time>
      </trkpt>
      <trkpt lat="47.88955" lon="2.00358">
        <ele>98</ele>
        <time>2014-01-26T08:06:40Z</time>
      </trkpt>
      <trkpt lat="47.88949" lon="2.00386">
        <ele>99</ele>
        <time>2014-01-26T08:06:44Z</time>
      </trkpt>
      <trkpt lat="47.88937" lon="2.00412">
        <ele>98</ele>
        <time>2014-01-26T08:06:48Z</time>
      </trkpt>
      <trkpt lat="47.88928" lon="2.00438">
        <ele>99</ele>
        <time>2014-01-26T08:06:52Z</time>
      </trkpt>
      <trkpt lat="47.88917" lon="2.00464">
        <ele>98</ele>
        <time>2014-01-26T08:06:56Z</time>
      </trkpt>
      <trkpt lat="47.88913" lon="2.005">
        <ele>99</ele>
        <time>2014-01-26T08:07:00Z</time>
      </trkpt>
      <trkpt lat="47.88911" lon="2.00532">
        <ele>99</ele>
        <time>2014-01-26T08:07:04Z</time>
      </trkpt>
      <trkpt lat="47.88908" lon="2.00567">
        <ele>99</ele>
        <time>2014-01-26T08:07:08Z</time>
      </trkpt>
      <trkpt lat="47.88908" lon="2.00601">
        <ele>99</ele>
        <time>2014-01-26T08:07:12Z</time>
      </trkpt>
      <trkpt lat="47.88905" lon="2.0063">
        <ele>99</ele>
        <time>2014-01-26T08:07:16Z</time>
      </trkpt>
      <trkpt lat="47.88897" lon="2.00662">
        <ele>98</ele>
        <time>2014-01-26T08:07:20Z</time>
      </trkpt>
      <trkpt lat="47.88894" lon="2.0069">
        <ele>99</ele>
        <time>2014-01-26T08:07:24Z</time>
      </trkpt>
      <trkpt lat="47.88891" lon="2.00723">
        <ele>99</ele>
        <time>2014-01-26T08:07:28Z</time>
      </trkpt>
      <trkpt lat="47.88894" lon="2.00753">
        <ele>99</ele>
        <time>2014-01-26T08:07:32Z</time>
      </trkpt>
      <trkpt lat="47.88897" lon="2.00783">
        <ele>99</ele>
        <time>2014-01-26T08:07:36Z</time>
      </trkpt>
      <trkpt lat="47.88905" lon="2.00809">
        <ele>100</ele>
        <time>2014-01-26T08:07:40Z</time>
      </trkpt>
      <trkpt lat="47.88908" lon="2.00837">
        <ele>99</ele>
        <time>2014-01-26T08:07:44Z</time>
      </trkpt>
      <trkpt lat="47.88908" lon="2.00869">
        <ele>100</ele>
        <time>2014-01-26T08:07:48Z</time>
      </trkpt>
      <trkpt lat="47.88909" lon="2.00896">
        <ele>99</ele>
        <time>2014-01-26T08:07:52Z</time>
      </trkpt>
      <trkpt lat="47.88911" lon="2.00922">
        <ele>99</ele>
        <time>2014-01-26T08:07:56Z</time>
      </trkpt>
      <trkpt lat="47.88911" lon="2.00942">
        <ele>99</ele>
        <time>2014-01-26T08:08:00Z</time>
      </trkpt>
      <trkpt lat="47.88916" lon="2.00965">
        <ele>99</ele>
        <time>2014-01-26T08:08:04Z</time>
      </trkpt>
      <trkpt lat="47.88917" lon="2.00991">
        <ele>98</ele>
        <time>2014-01-26T08:08:08Z</time>
      </trkpt>
      <trkpt lat="47.88917" lon="2.01019">
        <ele>97</ele>
        <time>2014-01-26T08:08:12Z</time>
      </trkpt>
      <trkpt lat="47.88917" lon="2.0105">
        <ele>97</ele>
        <time>2014-01-26T08:08:16Z</time>
      </trkpt>
      <trkpt lat="47.88916" lon="2.01075">
        <ele>97</ele>
        <time>2014-01-26T08:08:20Z</time>
      </trkpt>
      <trkpt lat="47.88916" lon="2.01104">
        <ele>98</ele>
        <time>2014-01-26T08:08:24Z</time>
      </trkpt>
      <trkpt lat="47.88919" lon="2.01127">
        <ele>97</ele>
        <time>2014-01-26T08:08:28Z</time>
      </trkpt>
      <trkpt lat="47.88917" lon="2.01159">
        <ele>97</ele>
        <time>2014-01-26T08:08:32Z</time>
      </trkpt>
      <trkpt lat="47.88916" lon="2.0119">
        <ele>96</ele>
        <time>2014-01-26T08:08:36Z</time>
      </trkpt>
      <trkpt lat="47.88914" lon="2.01218">
        <ele>96</ele>
        <time>2014-01-26T08:08:40Z</time>
      </trkpt>
      <trkpt lat="47.8891" lon="2.01249">
        <ele>97</ele>
        <time>2014-01-26T08:08:44Z</time>
      </trkpt>
      <trkpt lat="47.88904" lon="2.01282">
        <ele>96</ele>
        <time>2014-01-26T08:08:48Z</time>
      </trkpt>
      <trkpt lat="47.88901" lon="2.01307">
        <ele>96</ele>
        <time>2014-01-26T08:08:52Z</time>
      </trkpt>
      <trkpt lat="47.88903" lon="2.01337">
        <ele>97</ele>
        <time>2014-01-26T08:08:56Z</time>
      </trkpt>
      <trkpt lat="47.88905" lon="2.01369">
        <ele>97</ele>
        <time>2014-01-26T08:09:00Z</time>
      </trkpt>
      <trkpt lat="47.88903" lon="2.014">
        <ele>97</ele>
        <time>2014-01-26T08:09:04Z</time>
      </trkpt>
      <trkpt lat="47.88902" lon="2.01429">
        <ele>97</ele>
        <time>2014-01-26T08:09:08Z</time>
      </trkpt>
      <trkpt lat="47.88901" lon="2.01459">
        <ele>97</ele>
        <time>2014-01-26T08:09:12Z</time>
      </trkpt>
      <trkpt lat="47.88903" lon="2.01481">
        <ele>98</ele>
        <time>2014-01-26T08:09:16Z</time>
      </trkpt>
      <trkpt lat="47.88904" lon="2.01513">
        <ele>97</ele>
        <time>2014-01-26T08:09:20Z</time>
      </trkpt>
      <trkpt lat="47.88905" lon="2.01541">
        <ele>98</ele>
        <time>2014-01-26T08:09:24Z</time>
      </trkpt>
      <trkpt lat="47.88905" lon="2.01567">
        <ele>98</ele>
        <time>2014-01-26T08:09:28Z</time>
      </trkpt>
      <trkpt lat="47.88902" lon="2.01595">
        <ele>98</ele>
        <time>2014-01-26T08:09:32Z</time>
      </trkpt>
      <trkpt lat="47.88901" lon="2.01621">
        <ele>99</ele>
        <time>2014-01-26T08:09:36Z</time>
      </trkpt>
      <trkpt lat="47.88896" lon="2.01651">
        <ele>99</ele>
        <time>2014-01-26T08:09:40Z</time>
      </trkpt>
      <trkpt lat="47.88892" lon="2.01677">
        <ele>98</ele>
        <time>2014-01-26T08:09:44Z</time>
      </trkpt>
      <trkpt lat="47.88888" lon="2.01701">
        <ele>99</ele>
        <time>2014-01-26T08:09:48Z</time>
      </trkpt>
      <trkpt lat="47.8888" lon="2.01721">
        <ele>99</ele>
        <time>2014-01-26T08:09:52Z</time>
      </trkpt>
      <trkpt lat="47.88868" lon="2.01745">
        <ele>99</ele>
        <time>2014-01-26T08:09:56Z</time>
      </trkpt>
      <trkpt lat="47.88859" lon="2.01764">
        <ele>99</ele>
        <time>2014-01-26T08:10:00Z</time>
      </trkpt>
      <trkpt lat="47.88847" lon="2.01787">
        <ele>99</ele>
        <time>2014-01-26T08:10:04Z</time>
      </trkpt>
      <trkpt lat="47.88836" lon="2.0181">
        <ele>99</ele>
        <time>2014-01-26T08:10:08Z</time>
      </trkpt>
      <trkpt lat="47.88824" lon="2.01828">
        <ele>99</ele>
        <time>2014-01-26T08:10:12Z</time>
      </trkpt>
      <trkpt lat="47.88806" lon="2.01849">
        <ele>99</ele>
        <time>2014-01-26T08:10:16Z</time>
      </trkpt>
      <trkpt lat="47.88799" lon="2.01867">
        <ele>99</ele>
        <time>2014-01-26T08:10:20Z</time>
      </trkpt>
      <trkpt lat="47.88786" lon="2.0189">
        <ele>100</ele>
        <time>2014-01-26T08:10:24Z</time>
      </trkpt>
      <trkpt lat="47.88774" lon="2.0191">
        <ele>101</ele>
        <time>2014-01-26T08:10:28Z</time>
      </trkpt>
      <trkpt lat="47.88762" lon="2.0194">
        <ele>101</ele>
        <time>2014-01-26T08:10:32Z</time>
      </trkpt>
      <trkpt lat="47.88751" lon="2.01967">
        <ele>101</ele>
        <time>2014-01-26T08:10:36Z</time>
      </trkpt>
      <trkpt lat="47.8874" lon="2.01996">
        <ele>100</ele>
        <time>2014-01-26T08:10:40Z</time>
      </trkpt>
      <trkpt lat="47.88735" lon="2.02019">
        <ele>100</ele>
        <time>2014-01-26T08:10:44Z</time>
      </trkpt>
      <trkpt lat="47.88726" lon="2.0205">
        <ele>101</ele>
        <time>2014-01-26T08:10:48Z</time>
      </trkpt>
      <trkpt lat="47.8872" lon="2.02077">
        <ele>101</ele>
        <time>2014-01-26T08:10:52Z</time>
      </trkpt>
      <trkpt lat="47.88714" lon="2.02106">
        <ele>101</ele>
        <time>2014-01-26T08:10:56Z</time>
      </trkpt>
      <trkpt lat="47.88706" lon="2.02138">
        <ele>101</ele>
        <time>2014-01-26T08:11:00Z</time>
      </trkpt>
      <trkpt lat="47.88704" lon="2.02166">
        <ele>101</ele>
        <time>2014-01-26T08:11:04Z</time>
      </trkpt>
      <trkpt lat="47.88697" lon="2.02197">
        <ele>101</ele>
        <time>2014-01-26T08:11:08Z</time>
      </trkpt>
      <trkpt lat="47.88692" lon="2.02227">
        <ele>101</ele>
        <time>2014-01-26T08:11:12Z</time>
      </trkpt>
      <trkpt lat="47.88691" lon="2.02254">
        <ele>101</ele>
        <time>2014-01-26T08:11:16Z</time>
      </trkpt>
      <trkpt lat="47.88691" lon="2.02278">
        <ele>101</ele>
        <time>2014-01-26T08:11:20Z</time>
      </trkpt>
      <trkpt lat="47.8869" lon="2.02308">
        <ele>101</ele>
        <time>2014-01-26T08:11:24Z</time>
      </trkpt>
      <trkpt lat="47.88688" lon="2.02336">
        <ele>101</ele>
        <time>2014-01-26T08:11:28Z</time>
      </trkpt>
      <trkpt lat="47.88685" lon="2.02371">
        <ele>101</ele>
        <time>2014-01-26T08:11:32Z</time>
      </trkpt>
      <trkpt lat="47.88683" lon="2.02397">
        <ele>101</ele>
        <time>2014-01-26T08:11:36Z</time>
      </trkpt>
      <trkpt lat="47.88679" lon="2.0243">
        <ele>101</ele>
        <time>2014-01-26T08:11:40Z</time>
      </trkpt>
      <trkpt lat="47.88674" lon="2.02458">
        <ele>101</ele>
        <time>2014-01-26T08:11:44Z</time>
      </trkpt>
      <trkpt lat="47.88666" lon="2.02493">
        <ele>101</ele>
        <time>2014-01-26T08:11:48Z</time>
      </trkpt>
      <trkpt lat="47.88663" lon="2.02517">
        <ele>101</ele>
        <time>2014-01-26T08:11:52Z</time>
      </trkpt>
      <trkpt lat="47.88659" lon="2.02545">
        <ele>101</ele>
        <time>2014-01-26T08:11:56Z</time>
      </trkpt>
      <trkpt lat="47.88653" lon="2.0257">
        <ele>101</ele>
        <time>2014-01-26T08:12:00Z</time>
      </trkpt>
      <trkpt lat="47.88644" lon="2.02596">
        <ele>102</ele>
        <time>2014-01-26T08:12:04Z</time>
      </trkpt>
      <trkpt lat="47.88638" lon="2.02622">
        <ele>102</ele>
        <time>2014-01-26T08:12:08Z</time>
      </trkpt>
      <trkpt lat="47.88629" lon="2.02648">
        <ele>101</ele>
        <time>2014-01-26T08:12:12Z</time>
      </trkpt>
      <trkpt lat="47.88619" lon="2.02674">
        <ele>102</ele>
        <time>2014-01-26T08:12:16Z</time>
      </trkpt>
      <trkpt lat="47.88608" lon="2.02691">
        <ele>101</ele>
        <time>2014-01-26T08:12:20Z</time>
      </trkpt>
      <trkpt lat="47.88604" lon="2.0271">
        <ele>101</ele>
        <time>2014-01-26T08:12:24Z</time>
      </trkpt>
      <trkpt lat="47.88593" lon="2.02723">
        <ele>101</ele>
        <time>2014-01-26T08:12:28Z</time>
      </trkpt>
      <trkpt lat="47.88585" lon="2.02746">
        <ele>101</ele>
        <time>2014-01-26T08:12:32Z</time>
      </trkpt>
      <trkpt lat="47.88579" lon="2.02771">
        <ele>101</ele>
        <time>2014-01-26T08:12:36Z</time>
      </trkpt>
      <trkpt lat="47.88573" lon="2.02787">
        <ele>101</ele>
        <time>2014-01-26T08:12:40Z</time>
      </trkpt>
      <trkpt lat="47.88566" lon="2.02795">
        <ele>101</ele>
        <time>2014-01-26T08:12:44Z</time>
      </trkpt>
      <trkpt lat="47.88552" lon="2.02811">
        <ele>102</ele>
        <time>2014-01-26T08:12:48Z</time>
      </trkpt>
      <trkpt lat="47.8854" lon="2.02838">
        <ele>102</ele>
        <time>2014-01-26T08:12:52Z</time>
      </trkpt>
      <trkpt lat="47.8853" lon="2.02855">
        <ele>102</ele>
        <time>2014-01-26T08:12:56Z</time>
      </trkpt>
      <trkpt lat="47.88521" lon="2.02874">
        <ele>102</ele>
        <time>2014-01-26T08:13:00Z</time>
      </trkpt>
      <trkpt lat="47.88513" lon="2.02886">
        <ele>102</ele>
        <time>2014-01-26T08:13:04Z</time>
      </trkpt>
      <trkpt lat="47.88503" lon="2.02902">
        <ele>102</ele>
        <time>2014-01-26T08:13:08Z</time>
      </trkpt>
      <trkpt lat="47.88487" lon="2.02924">
        <ele>102</ele>
        <time>2014-01-26T08:13:12Z</time>
      </trkpt>
      <trkpt lat="47.8847" lon="2.02942">
        <ele>102</ele>
        <time>2014-01-26T08:13:16Z</time>
      </trkpt>
      <trkpt lat="47.88449" lon="2.02964">
        <ele>102</ele>
        <time>2014-01-26T08:13:20Z</time>
      </trkpt>
      <trkpt lat="47.88424" lon="2.02978">
        <ele>102</ele>
        <time>2014-01-26T08:13:24Z</time>
      </trkpt>
      <trkpt lat="47.88403" lon="2.02984">
        <ele>103</ele>
        <time>2014-01-26T08:13:28Z</time>
      </trkpt>
      <trkpt lat="47.8838" lon="2.02998">
        <ele>104</ele>
        <time>2014-01-26T08:13:32Z</time>
      </trkpt>
      <trkpt lat="47.88361" lon="2.03009">
        <ele>104</ele>
        <time>2014-01-26T08:13:36Z</time>
      </trkpt>
      <trkpt lat="47.88348" lon="2.03027">
        <ele>104</ele>
        <time>2014-01-26T08:13:40Z</time>
      </trkpt>
      <trkpt lat="47.88334" lon="2.03048">
        <ele>104</ele>
        <time>2014-01-26T08:13:44Z</time>
      </trkpt>
      <trkpt lat="47.88323" lon="2.03066">
        <ele>104</ele>
        <time>2014-01-26T08:13:48Z</time>
      </trkpt>
      <trkpt lat="47.88311" lon="2.03081">
        <ele>103</ele>
        <time>2014-01-26T08:13:52Z</time>
      </trkpt>
      <trkpt lat="47.88298" lon="2.031">
        <ele>103</ele>
        <time>2014-01-26T08:13:56Z</time>
      </trkpt>
      <trkpt lat="47.88284" lon="2.03118">
        <ele>103</ele>
        <time>2014-01-26T08:14:00Z</time>
      </trkpt>
      <trkpt lat="47.88273" lon="2.03139">
        <ele>103</ele>
        <time>2014-01-26T08:14:04Z</time>
      </trkpt>
      <trkpt lat="47.88257" lon="2.03158">
        <ele>103</ele>
        <time>2014-01-26T08:14:08Z</time>
      </trkpt>
      <trkpt lat="47.88244" lon="2.03177">
        <ele>102</ele>
        <time>2014-01-26T08:14:12Z</time>
      </trkpt>
      <trkpt lat="47.88231" lon="2.03197">
        <ele>102</ele>
        <time>2014-01-26T08:14:16Z</time>
      </trkpt>
      <trkpt lat="47.88215" lon="2.03218">
        <ele>102</ele>
        <time>2014-01-26T08:14:20Z</time>
      </trkpt>
      <trkpt lat="47.882" lon="2.03239">
        <ele>102</ele>
        <time>2014-01-26T08:14:24Z</time>
      </trkpt>
      <trkpt lat="47.88186" lon="2.0326">
        <ele>102</ele>
        <time>2014-01-26T08:14:28Z</time>
      </trkpt>
      <trkpt lat="47.88168" lon="2.03277">
        <ele>102</ele>
        <time>2014-01-26T08:14:32Z</time>
      </trkpt>
      <trkpt lat="47.8815" lon="2.03298">
        <ele>102</ele>
        <time>2014-01-26T08:14:36Z</time>
      </trkpt>
      <trkpt lat="47.88132" lon="2.03317">
        <ele>102</ele>
        <time>2014-01-26T08:14:40Z</time>
      </trkpt>
      <trkpt lat="47.88114" lon="2.03333">
        <ele>102</ele>
        <time>2014-01-26T08:14:44Z</time>
      </trkpt>
      <trkpt lat="47.88094" lon="2.03353">
        <ele>102</ele>
        <time>2014-01-26T08:14:48Z</time>
      </trkpt>
      <trkpt lat="47.88077" lon="2.03367">
        <ele>101</ele>
        <time>2014-01-26T08:14:52Z</time>
      </trkpt>
      <trkpt lat="47.88059" lon="2.03383">
        <ele>102</ele>
        <time>2014-01-26T08:14:56Z</time>
      </trkpt>
      <trkpt lat="47.88039" lon="2.034">
        <ele>101</ele>
        <time>2014-01-26T08:15:00Z</time>
      </trkpt>
      <trkpt lat="47.88023" lon="2.03413">
        <ele>102</ele>
        <time>2014-01-26T08:15:04Z</time>
      </trkpt>
      <trkpt lat="47.88007" lon="2.03427">
        <ele>101</ele>
        <time>2014-01-26T08:15:08Z</time>
      </trkpt>
      <trkpt lat="47.87989" lon="2.03446">
        <ele>101</ele>
        <time>2014-01-26T08:15:12Z</time>
      </trkpt>
      <trkpt lat="47.87972" lon="2.03462">
        <ele>101</ele>
        <time>2014-01-26T08:15:16Z</time>
      </trkpt>
      <trkpt lat="47.87955" lon="2.03479">
        <ele>101</ele>
        <time>2014-01-26T08:15:20Z</time>
      </trkpt>
      <trkpt lat="47.87939" lon="2.03493">
        <ele>101</ele>
        <time>2014-01-26T08:15:24Z</time>
      </trkpt>
      <trkpt lat="47.8792" lon="2.03507">
        <ele>101</ele>
        <time>2014-01-26T08:15:28Z</time>
      </trkpt>
      <trkpt lat="47.87902" lon="2.03517">
        <ele>100</ele>
        <time>2014-01-26T08:15:32Z</time>
      </trkpt>
      <trkpt lat="47.8788" lon="2.03529">
        <ele>100</ele>
        <time>2014-01-26T08:15:36Z</time>
      </trkpt>
      <trkpt lat="47.87862" lon="2.03537">
        <ele>100</ele>
        <time>2014-01-26T08:15:40Z</time>
      </trkpt>
      <trkpt lat="47.87842" lon="2.03551">
        <ele>100</ele>
        <time>2014-01-26T08:15:44Z</time>
      </trkpt>
      <trkpt lat="47.87821" lon="2.03559">
        <ele>100</ele>
        <time>2014-01-26T08:15:48Z</time>
      </trkpt>
      <trkpt lat="47.87799" lon="2.03568">
        <ele>99</ele>
        <time>2014-01-26T08:15:52Z</time>
      </trkpt>
      <trkpt lat="47.87777" lon="2.03575">
        <ele>99</ele>
        <time>2014-01-26T08:15:56Z</time>
      </trkpt>
      <trkpt lat="47.87757" lon="2.03576">
        <ele>99</ele>
        <time>2014-01-26T08:16:00Z</time>
      </trkpt>
      <trkpt lat="47.87737" lon="2.03579">
        <ele>99</ele>
        <time>2014-01-26T08:16:04Z</time>
      </trkpt>
      <trkpt lat="47.87716" lon="2.0358">
        <ele>99</ele>
        <time>2014-01-26T08:16:08Z</time>
      </trkpt>
      <trkpt lat="47.87697" lon="2.0358">
        <ele>100</ele>
        <time>2014-01-26T08:16:12Z</time>
      </trkpt>
      <trkpt lat="47.87678" lon="2.03576">
        <ele>99</ele>
        <time>2014-01-26T08:16:16Z</time>
      </trkpt>
      <trkpt lat="47.87657" lon="2.03573">
        <ele>100</ele>
        <time>2014-01-26T08:16:20Z</time>
      </trkpt>
      <trkpt lat="47.87637" lon="2.03571">
        <ele>100</ele>
        <time>2014-01-26T08:16:24Z</time>
      </trkpt>
      <trkpt lat="47.87619" lon="2.03574">
        <ele>100</ele>
        <time>2014-01-26T08:16:28Z</time>
      </trkpt>
      <trkpt lat="47.87599" lon="2.03581">
        <ele>99</ele>
        <time>2014-01-26T08:16:32Z</time>
      </trkpt>
      <trkpt lat="47.87578" lon="2.03589">
        <ele>99</ele>
        <time>2014-01-26T08:16:36Z</time>
      </trkpt>
      <trkpt lat="47.87562" lon="2.03595">
        <ele>99</ele>
        <time>2014-01-26T08:16:40Z</time>
      </trkpt>
      <trkpt lat="47.87546" lon="2.036">
        <ele>99</ele>
        <time>2014-01-26T08:16:44Z</time>
      </trkpt>
      <trkpt lat="47.87533" lon="2.03598">
        <ele>97</ele>
        <time>2014-01-26T08:16:48Z</time>
      </trkpt>
      <trkpt lat="47.87514" lon="2.03594">
        <ele>95</ele>
        <time>2014-01-26T08:17:04Z</time>
      </trkpt>
      <trkpt lat="47.87507" lon="2.03592">
        <ele>95</ele>
        <time>2014-01-26T08:17:20Z</time>
      </trkpt>
      <trkpt lat="47.87499" lon="2.03586">
        <ele>94</ele>
        <time>2014-01-26T08:17:24Z</time>
      </trkpt>
      <trkpt lat="47.87484" lon="2.0358">
        <ele>94</ele>
        <time>2014-01-26T08:17:28Z</time>
      </trkpt>
      <trkpt lat="47.87468" lon="2.03572">
        <ele>93</ele>
        <time>2014-01-26T08:17:32Z</time>
      </trkpt>
      <trkpt lat="47.87448" lon="2.03572">
        <ele>94</ele>
        <time>2014-01-26T08:17:36Z</time>
      </trkpt>
      <trkpt lat="47.87427" lon="2.0357">
        <ele>95</ele>
        <time>2014-01-26T08:17:40Z</time>
      </trkpt>
      <trkpt lat="47.87405" lon="2.0357">
        <ele>95</ele>
        <time>2014-01-26T08:17:44Z</time>
      </trkpt>
      <trkpt lat="47.87386" lon="2.03573">
        <ele>95</ele>
        <time>2014-01-26T08:17:48Z</time>
      </trkpt>
      <trkpt lat="47.87366" lon="2.03584">
        <ele>95</ele>
        <time>2014-01-26T08:17:52Z</time>
      </trkpt>
      <trkpt lat="47.87342" lon="2.03585">
        <ele>95</ele>
        <time>2014-01-26T08:17:56Z</time>
      </trkpt>
      <trkpt lat="47.87321" lon="2.03584">
        <ele>95</ele>
        <time>2014-01-26T08:18:00Z</time>
      </trkpt>
      <trkpt lat="47.87299" lon="2.0358">
        <ele>95</ele>
        <time>2014-01-26T08:18:04Z</time>
      </trkpt>
      <trkpt lat="47.87276" lon="2.03569">
        <ele>95</ele>
        <time>2014-01-26T08:18:08Z</time>
      </trkpt>
      <trkpt lat="47.87258" lon="2.03565">
        <ele>96</ele>
        <time>2014-01-26T08:18:12Z</time>
      </trkpt>
      <trkpt lat="47.87237" lon="2.03572">
        <ele>96</ele>
        <time>2014-01-26T08:18:16Z</time>
      </trkpt>
      <trkpt lat="47.87219" lon="2.03562">
        <ele>96</ele>
        <time>2014-01-26T08:18:20Z</time>
      </trkpt>
      <trkpt lat="47.87199" lon="2.03563">
        <ele>97</ele>
        <time>2014-01-26T08:18:24Z</time>
      </trkpt>
      <trkpt lat="47.87187" lon="2.03564">
        <ele>97</ele>
        <time>2014-01-26T08:18:28Z</time>
      </trkpt>
      <trkpt lat="47.87174" lon="2.03557">
        <ele>97</ele>
        <time>2014-01-26T08:18:32Z</time>
      </trkpt>
      <trkpt lat="47.87158" lon="2.0355">
        <ele>97</ele>
        <time>2014-01-26T08:18:36Z</time>
      </trkpt>
      <trkpt lat="47.87143" lon="2.03542">
        <ele>97</ele>
        <time>2014-01-26T08:18:40Z</time>
      </trkpt>
      <trkpt lat="47.87126" lon="2.03531">
        <ele>97</ele>
        <time>2014-01-26T08:18:44Z</time>
      </trkpt>
      <trkpt lat="47.87107" lon="2.03527">
        <ele>97</ele>
        <time>2014-01-26T08:18:48Z</time>
      </trkpt>
      <trkpt lat="47.87091" lon="2.0352">
        <ele>98</ele>
        <time>2014-01-26T08:18:52Z</time>
      </trkpt>
      <trkpt lat="47.87079" lon="2.03508">
        <ele>98</ele>
        <time>2014-01-26T08:18:56Z</time>
      </trkpt>
      <trkpt lat="47.87064" lon="2.03502">
        <ele>98</ele>
        <time>2014-01-26T08:19:00Z</time>
      </trkpt>
      <trkpt lat="47.87049" lon="2.03494">
        <ele>97</ele>
        <time>2014-01-26T08:19:04Z</time>
      </trkpt>
      <trkpt lat="47.87028" lon="2.03491">
        <ele>98</ele>
        <time>2014-01-26T08:19:08Z</time>
      </trkpt>
      <trkpt lat="47.87009" lon="2.03483">
        <ele>98</ele>
        <time>2014-01-26T08:19:12Z</time>
      </trkpt>
      <trkpt lat="47.86994" lon="2.03482">
        <ele>98</ele>
        <time>2014-01-26T08:19:16Z</time>
      </trkpt>
      <trkpt lat="47.86973" lon="2.03483">
        <ele>98</ele>
        <time>2014-01-26T08:19:20Z</time>
      </trkpt>
      <trkpt lat="47.8696" lon="2.03468">
        <ele>98</ele>
        <time>2014-01-26T08:19:24Z</time>
      </trkpt>
      <trkpt lat="47.86943" lon="2.03463">
        <ele>99</ele>
        <time>2014-01-26T08:19:28Z</time>
      </trkpt>
      <trkpt lat="47.86925" lon="2.03467">
        <ele>98</ele>
        <time>2014-01-26T08:19:32Z</time>
      </trkpt>
      <trkpt lat="47.86907" lon="2.0346">
        <ele>99</ele>
        <time>2014-01-26T08:19:36Z</time>
      </trkpt>
      <trkpt lat="47.86887" lon="2.03454">
        <ele>99</ele>
        <time>2014-01-26T08:19:40Z</time>
      </trkpt>
      <trkpt lat="47.86867" lon="2.03444">
        <ele>99</ele>
        <time>2014-01-26T08:19:44Z</time>
      </trkpt>
      <trkpt lat="47.8685" lon="2.03437">
        <ele>98</ele>
        <time>2014-01-26T08:19:48Z</time>
      </trkpt>
      <trkpt lat="47.86831" lon="2.03423">
        <ele>99</ele>
        <time>2014-01-26T08:19:52Z</time>
      </trkpt>
      <trkpt lat="47.86809" lon="2.03411">
        <ele>99</ele>
        <time>2014-01-26T08:19:56Z</time>
      </trkpt>
      <trkpt lat="47.86785" lon="2.03405">
        <ele>98</ele>
        <time>2014-01-26T08:20:00Z</time>
      </trkpt>
      <trkpt lat="47.86763" lon="2.03395">
        <ele>99</ele>
        <time>2014-01-26T08:20:04Z</time>
      </trkpt>
      <trkpt lat="47.86739" lon="2.03382">
        <ele>99</ele>
        <time>2014-01-26T08:20:08Z</time>
      </trkpt>
      <trkpt lat="47.86718" lon="2.03372">
        <ele>99</ele>
        <time>2014-01-26T08:20:12Z</time>
      </trkpt>
      <trkpt lat="47.86696" lon="2.03365">
        <ele>98</ele>
        <time>2014-01-26T08:20:16Z</time>
      </trkpt>
      <trkpt lat="47.86673" lon="2.03366">
        <ele>98</ele>
        <time>2014-01-26T08:20:20Z</time>
      </trkpt>
      <trkpt lat="47.86655" lon="2.03361">
        <ele>98</ele>
        <time>2014-01-26T08:20:24Z</time>
      </trkpt>
      <trkpt lat="47.86639" lon="2.03359">
        <ele>99</ele>
        <time>2014-01-26T08:20:28Z</time>
      </trkpt>
      <trkpt lat="47.86623" lon="2.03356">
        <ele>99</ele>
        <time>2014-01-26T08:20:32Z</time>
      </trkpt>
      <trkpt lat="47.86606" lon="2.03355">
        <ele>99</ele>
        <time>2014-01-26T08:20:36Z</time>
      </trkpt>
      <trkpt lat="47.86593" lon="2.03351">
        <ele>99</ele>
        <time>2014-01-26T08:20:40Z</time>
      </trkpt>
      <trkpt lat="47.86586" lon="2.03347">
        <ele>99</ele>
        <time>2014-01-26T08:20:44Z</time>
      </trkpt>
      <trkpt lat="47.86567" lon="2.03339">
        <ele>98</ele>
        <time>2014-01-26T08:20:48Z</time>
      </trkpt>
      <trkpt lat="47.8655" lon="2.03325">
        <ele>98</ele>
        <time>2014-01-26T08:20:52Z</time>
      </trkpt>
      <trkpt lat="47.86526" lon="2.03321">
        <ele>98</ele>
        <time>2014-01-26T08:20:56Z</time>
      </trkpt>
      <trkpt lat="47.86509" lon="2.03318">
        <ele>98</ele>
        <time>2014-01-26T08:21:00Z</time>
      </trkpt>
      <trkpt lat="47.86492" lon="2.03312">
        <ele>98</ele>
        <time>2014-01-26T08:21:04Z</time>
      </trkpt>
      <trkpt lat="47.86474" lon="2.03304">
        <ele>97</ele>
        <time>2014-01-26T08:21:08Z</time>
      </trkpt>
      <trkpt lat="47.86458" lon="2.03299">
        <ele>98</ele>
        <time>2014-01-26T08:21:12Z</time>
      </trkpt>
      <trkpt lat="47.86438" lon="2.03304">
        <ele>98</ele>
        <time>2014-01-26T08:21:16Z</time>
      </trkpt>
      <trkpt lat="47.86425" lon="2.03302">
        <ele>97</ele>
        <time>2014-01-26T08:21:20Z</time>
      </trkpt>
      <trkpt lat="47.86407" lon="2.033">
        <ele>97</ele>
        <time>2014-01-26T08:21:24Z</time>
      </trkpt>
      <trkpt lat="47.86386" lon="2.03303">
        <ele>97</ele>
        <time>2014-01-26T08:21:28Z</time>
      </trkpt>
      <trkpt lat="47.8637" lon="2.03305">
        <ele>97</ele>
        <time>2014-01-26T08:21:32Z</time>
      </trkpt>
      <trkpt lat="47.86356" lon="2.03301">
        <ele>97</ele>
        <time>2014-01-26T08:21:36Z</time>
      </trkpt>
      <trkpt lat="47.8634" lon="2.03299">
        <ele>96</ele>
        <time>2014-01-26T08:21:40Z</time>
      </trkpt>
      <trkpt lat="47.86318" lon="2.03304">
        <ele>97</ele>
        <time>2014-01-26T08:21:44Z</time>
      </trkpt>
      <trkpt lat="47.86298" lon="2.03307">
        <ele>97</ele>
        <time>2014-01-26T08:21:48Z</time>
      </trkpt>
      <trkpt lat="47.86282" lon="2.03311">
        <ele>98</ele>
        <time>2014-01-26T08:21:52Z</time>
      </trkpt>
      <trkpt lat="47.86269" lon="2.03315">
        <ele>98</ele>
        <time>2014-01-26T08:21:56Z</time>
      </trkpt>
      <trkpt lat="47.8625" lon="2.03318">
        <ele>98</ele>
        <time>2014-01-26T08:22:00Z</time>
      </trkpt>
      <trkpt lat="47.86231" lon="2.03324">
        <ele>98</ele>
        <time>2014-01-26T08:22:04Z</time>
      </trkpt>
      <trkpt lat="47.86217" lon="2.03331">
        <ele>98</ele>
        <time>2014-01-26T08:22:08Z</time>
      </trkpt>
      <trkpt lat="47.86198" lon="2.03327">
        <ele>98</ele>
        <time>2014-01-26T08:22:12Z</time>
      </trkpt>
      <trkpt lat="47.8618" lon="2.0333">
        <ele>98</ele>
        <time>2014-01-26T08:22:16Z</time>
      </trkpt>
      <trkpt lat="47.86159" lon="2.03338">
        <ele>98</ele>
        <time>2014-01-26T08:22:20Z</time>
      </trkpt>
      <trkpt lat="47.8614" lon="2.03345">
        <ele>99</ele>
        <time>2014-01-26T08:22:24Z</time>
      </trkpt>
      <trkpt lat="47.86121" lon="2.03348">
        <ele>99</ele>
        <time>2014-01-26T08:22:28Z</time>
      </trkpt>
      <trkpt lat="47.86101" lon="2.03356">
        <ele>99</ele>
        <time>2014-01-26T08:22:32Z</time>
      </trkpt>
      <trkpt lat="47.86081" lon="2.0336">
        <ele>98</ele>
        <time>2014-01-26T08:22:36Z</time>
      </trkpt>
      <trkpt lat="47.86062" lon="2.03365">
        <ele>99</ele>
        <time>2014-01-26T08:22:40Z</time>
      </trkpt>
      <trkpt lat="47.86043" lon="2.0337">
        <ele>99</ele>
        <time>2014-01-26T08:22:44Z</time>
      </trkpt>
      <trkpt lat="47.86026" lon="2.03376">
        <ele>98</ele>
        <time>2014-01-26T08:22:48Z</time>
      </trkpt>
      <trkpt lat="47.86014" lon="2.03391">
        <ele>98</ele>
        <time>2014-01-26T08:22:52Z</time>
      </trkpt>
      <trkpt lat="47.86002" lon="2.03407">
        <ele>98</ele>
        <time>2014-01-26T08:22:56Z</time>
      </trkpt>
      <trkpt lat="47.85984" lon="2.03417">
        <ele>98</ele>
        <time>2014-01-26T08:23:00Z</time>
      </trkpt>
      <trkpt lat="47.85964" lon="2.03428">
        <ele>97</ele>
        <time>2014-01-26T08:23:04Z</time>
      </trkpt>
      <trkpt lat="47.85946" lon="2.03438">
        <ele>98</ele>
        <time>2014-01-26T08:23:08Z</time>
      </trkpt>
      <trkpt lat="47.85929" lon="2.03444">
        <ele>98</ele>
        <time>2014-01-26T08:23:12Z</time>
      </trkpt>
      <trkpt lat="47.85918" lon="2.03453">
        <ele>99</ele>
        <time>2014-01-26T08:23:16Z</time>
      </trkpt>
      <trkpt lat="47.85904" lon="2.03457">
        <ele>99</ele>
        <time>2014-01-26T08:23:20Z</time>
      </trkpt>
      <trkpt lat="47.85889" lon="2.03465">
        <ele>99</ele>
        <time>2014-01-26T08:23:24Z</time>
      </trkpt>
      <trkpt lat="47.85872" lon="2.03478">
        <ele>99</ele>
        <time>2014-01-26T08:23:28Z</time>
      </trkpt>
      <trkpt lat="47.85853" lon="2.03499">
        <ele>98</ele>
        <time>2014-01-26T08:23:32Z</time>
      </trkpt>
      <trkpt lat="47.85842" lon="2.03511">
        <ele>98</ele>
        <time>2014-01-26T08:23:36Z</time>
      </trkpt>
      <trkpt lat="47.85834" lon="2.03522">
        <ele>98</ele>
        <time>2014-01-26T08:23:40Z</time>
      </trkpt>
      <trkpt lat="47.85815" lon="2.0354">
        <ele>98</ele>
        <time>2014-01-26T08:23:44Z</time>
      </trkpt>
      <trkpt lat="47.85799" lon="2.03551">
        <ele>97</ele>
        <time>2014-01-26T08:23:48Z</time>
      </trkpt>
      <trkpt lat="47.85787" lon="2.03566">
        <ele>97</ele>
        <time>2014-01-26T08:23:52Z</time>
      </trkpt>
      <trkpt lat="47.85768" lon="2.03582">
        <ele>97</ele>
        <time>2014-01-26T08:23:56Z</time>
      </trkpt>
      <trkpt lat="47.85751" lon="2.0359">
        <ele>97</ele>
        <time>2014-01-26T08:24:00Z</time>
      </trkpt>
      <trkpt lat="47.85738" lon="2.03617">
        <ele>97</ele>
        <time>2014-01-26T08:24:04Z</time>
      </trkpt>
      <trkpt lat="47.85728" lon="2.03647">
        <ele>97</ele>
        <time>2014-01-26T08:24:08Z</time>
      </trkpt>
      <trkpt lat="47.85716" lon="2.03677">
        <ele>97</ele>
        <time>2014-01-26T08:24:12Z</time>
      </trkpt>
      <trkpt lat="47.8571" lon="2.037">
        <ele>97</ele>
        <time>2014-01-26T08:24:16Z</time>
      </trkpt>
      <trkpt lat="47.85704" lon="2.03717">
        <ele>97</ele>
        <time>2014-01-26T08:24:20Z</time>
      </trkpt>
      <trkpt lat="47.85699" lon="2.0374">
        <ele>96</ele>
        <time>2014-01-26T08:24:24Z</time>
      </trkpt>
      <trkpt lat="47.85676" lon="2.0377">
        <ele>96</ele>
        <time>2014-01-26T08:24:28Z</time>
      </trkpt>
      <trkpt lat="47.85673" lon="2.03796">
        <ele>96</ele>
        <time>2014-01-26T08:24:32Z</time>
      </trkpt>
      <trkpt lat="47.8567" lon="2.03824">
        <ele>96</ele>
        <time>2014-01-26T08:24:36Z</time>
      </trkpt>
      <trkpt lat="47.85668" lon="2.03857">
        <ele>96</ele>
        <time>2014-01-26T08:24:40Z</time>
      </trkpt>
      <trkpt lat="47.85664" lon="2.0389">
        <ele>97</ele>
        <time>2014-01-26T08:24:44Z</time>
      </trkpt>
      <trkpt lat="47.85665" lon="2.03911">
        <ele>97</ele>
        <time>2014-01-26T08:24:48Z</time>
      </trkpt>
      <trkpt lat="47.8566" lon="2.03944">
        <ele>96</ele>
        <time>2014-01-26T08:24:52Z</time>
      </trkpt>
      <trkpt lat="47.85659" lon="2.03978">
        <ele>96</ele>
        <time>2014-01-26T08:24:56Z</time>
      </trkpt>
      <trkpt lat="47.8566" lon="2.04003">
        <ele>96</ele>
        <time>2014-01-26T08:25:00Z</time>
      </trkpt>
      <trkpt lat="47.85667" lon="2.04041">
        <ele>97</ele>
        <time>2014-01-26T08:25:04Z</time>
      </trkpt>
      <trkpt lat="47.85667" lon="2.04071">
        <ele>97</ele>
        <time>2014-01-26T08:25:08Z</time>
      </trkpt>
      <trkpt lat="47.85667" lon="2.04094">
        <ele>97</ele>
        <time>2014-01-26T08:25:12Z</time>
      </trkpt>
      <trkpt lat="47.85678" lon="2.04134">
        <ele>97</ele>
        <time>2014-01-26T08:25:16Z</time>
      </trkpt>
      <trkpt lat="47.85688" lon="2.04153">
        <ele>97</ele>
        <time>2014-01-26T08:25:20Z</time>
      </trkpt>
      <trkpt lat="47.85699" lon="2.04178">
        <ele>98</ele>
        <time>2014-01-26T08:25:24Z</time>
      </trkpt>
      <trkpt lat="47.85709" lon="2.04196">
        <ele>98</ele>
        <time>2014-01-26T08:25:28Z</time>
      </trkpt>
      <trkpt lat="47.85714" lon="2.0422">
        <ele>98</ele>
        <time>2014-01-26T08:25:32Z</time>
      </trkpt>
      <trkpt lat="47.85721" lon="2.04242">
        <ele>98</ele>
        <time>2014-01-26T08:25:36Z</time>
      </trkpt>
      <trkpt lat="47.85728" lon="2.0426">
        <ele>98</ele>
        <time>2014-01-26T08:25:40Z</time>
      </trkpt>
      <trkpt lat="47.85732" lon="2.04278">
        <ele>98</ele>
        <time>2014-01-26T08:25:44Z</time>
      </trkpt>
      <trkpt lat="47.85739" lon="2.04302">
        <ele>98</ele>
        <time>2014-01-26T08:25:48Z</time>
      </trkpt>
      <trkpt lat="47.85749" lon="2.04321">
        <ele>98</ele>
        <time>2014-01-26T08:25:52Z</time>
      </trkpt>
      <trkpt lat="47.85758" lon="2.04334">
        <ele>99</ele>
        <time>2014-01-26T08:25:56Z</time>
      </trkpt>
      <trkpt lat="47.8577" lon="2.04353">
        <ele>99</ele>
        <time>2014-01-26T08:26:00Z</time>
      </trkpt>
      <trkpt lat="47.85771" lon="2.04378">
        <ele>99</ele>
        <time>2014-01-26T08:26:04Z</time>
      </trkpt>
      <trkpt lat="47.85784" lon="2.04407">
        <ele>98</ele>
        <time>2014-01-26T08:26:08Z</time>
      </trkpt>
      <trkpt lat="47.85796" lon="2.04436">
        <ele>97</ele>
        <time>2014-01-26T08:26:12Z</time>
      </trkpt>
      <trkpt lat="47.85806" lon="2.04463">
        <ele>98</ele>
        <time>2014-01-26T08:26:16Z</time>
      </trkpt>
      <trkpt lat="47.85814" lon="2.04485">
        <ele>98</ele>
        <time>2014-01-26T08:26:20Z</time>
      </trkpt>
      <trkpt lat="47.85829" lon="2.04511">
        <ele>98</ele>
        <time>2014-01-26T08:26:24Z</time>
      </trkpt>
      <trkpt lat="47.85837" lon="2.04532">
        <ele>98</ele>
        <time>2014-01-26T08:26:28Z</time>
      </trkpt>
      <trkpt lat="47.85841" lon="2.04554">
        <ele>98</ele>
        <time>2014-01-26T08:26:32Z</time>
      </trkpt>
      <trkpt lat="47.85853" lon="2.04575">
        <ele>98</ele>
        <time>2014-01-26T08:26:36Z</time>
      </trkpt>
      <trkpt lat="47.85864" lon="2.04596">
        <ele>98</ele>
        <time>2014-01-26T08:26:40Z</time>
      </trkpt>
      <trkpt lat="47.85872" lon="2.04616">
        <ele>98</ele>
        <time>2014-01-26T08:26:44Z</time>
      </trkpt>
      <trkpt lat="47.85882" lon="2.04638">
        <ele>98</ele>
        <time>2014-01-26T08:26:48Z</time>
      </trkpt>
      <trkpt lat="47.85887" lon="2.04654">
        <ele>97</ele>
        <time>2014-01-26T08:26:52Z</time>
      </trkpt>
      <trkpt lat="47.85898" lon="2.04675">
        <ele>98</ele>
        <time>2014-01-26T08:27:00Z</time>
      </trkpt>
      <trkpt lat="47.85907" lon="2.04691">
        <ele>98</ele>
        <time>2014-01-26T08:27:04Z</time>
      </trkpt>
      <trkpt lat="47.85919" lon="2.0471">
        <ele>98</ele>
        <time>2014-01-26T08:27:08Z</time>
      </trkpt>
      <trkpt lat="47.85926" lon="2.0473">
        <ele>97</ele>
        <time>2014-01-26T08:27:12Z</time>
      </trkpt>
      <trkpt lat="47.85937" lon="2.04752">
        <ele>98</ele>
        <time>2014-01-26T08:27:16Z</time>
      </trkpt>
      <trkpt lat="47.85945" lon="2.04762">
        <ele>98</ele>
        <time>2014-01-26T08:27:20Z</time>
      </trkpt>
      <trkpt lat="47.85955" lon="2.04774">
        <ele>99</ele>
        <time>2014-01-26T08:27:24Z</time>
      </trkpt>
      <trkpt lat="47.85963" lon="2.04786">
        <ele>99</ele>
        <time>2014-01-26T08:27:28Z</time>
      </trkpt>
      <trkpt lat="47.85972" lon="2.04798">
        <ele>99</ele>
        <time>2014-01-26T08:27:32Z</time>
      </trkpt>
      <trkpt lat="47.85979" lon="2.04812">
        <ele>99</ele>
        <time>2014-01-26T08:27:36Z</time>
      </trkpt>
      <trkpt lat="47.85989" lon="2.04821">
        <ele>99</ele>
        <time>2014-01-26T08:27:40Z</time>
      </trkpt>
      <trkpt lat="47.85997" lon="2.0484">
        <ele>99</ele>
        <time>2014-01-26T08:27:44Z</time>
      </trkpt>
      <trkpt lat="47.86003" lon="2.04852">
        <ele>100</ele>
        <time>2014-01-26T08:27:48Z</time>
      </trkpt>
      <trkpt lat="47.86009" lon="2.04866">
        <ele>100</ele>
        <time>2014-01-26T08:27:52Z</time>
      </trkpt>
      <trkpt lat="47.86016" lon="2.04876">
        <ele>99</ele>
        <time>2014-01-26T08:27:56Z</time>
      </trkpt>
      <trkpt lat="47.86023" lon="2.04892">
        <ele>99</ele>
        <time>2014-01-26T08:28:00Z</time>
      </trkpt>
      <trkpt lat="47.86033" lon="2.04898">
        <ele>99</ele>
        <time>2014-01-26T08:28:04Z</time>
      </trkpt>
      <trkpt lat="47.86043" lon="2.04911">
        <ele>99</ele>
        <time>2014-01-26T08:28:08Z</time>
      </trkpt>
      <trkpt lat="47.86055" lon="2.04925">
        <ele>99</ele>
        <time>2014-01-26T08:28:12Z</time>
      </trkpt>
      <trkpt lat="47.86063" lon="2.0494">
        <ele>99</ele>
        <time>2014-01-26T08:28:16Z</time>
      </trkpt>
      <trkpt lat="47.86071" lon="2.04952">
        <ele>99</ele>
        <time>2014-01-26T08:28:20Z</time>
      </trkpt>
      <trkpt lat="47.86079" lon="2.0497">
        <ele>99</ele>
        <time>2014-01-26T08:28:24Z</time>
      </trkpt>
      <trkpt lat="47.86093" lon="2.04982">
        <ele>99</ele>
        <time>2014-01-26T08:28:28Z</time>
      </trkpt>
      <trkpt lat="47.86107" lon="2.04999">
        <ele>99</ele>
        <time>2014-01-26T08:28:32Z</time>
      </trkpt>
      <trkpt lat="47.86116" lon="2.05014">
        <ele>99</ele>
        <time>2014-01-26T08:28:36Z</time>
      </trkpt>
      <trkpt lat="47.8613" lon="2.05028">
        <ele>99</ele>
        <time>2014-01-26T08:28:40Z</time>
      </trkpt>
      <trkpt lat="47.86141" lon="2.05048">
        <ele>99</ele>
        <time>2014-01-26T08:28:44Z</time>
      </trkpt>
      <trkpt lat="47.86153" lon="2.05066">
        <ele>99</ele>
        <time>2014-01-26T08:28:48Z</time>
      </trkpt>
      <trkpt lat="47.86166" lon="2.05085">
        <ele>99</ele>
        <time>2014-01-26T08:28:52Z</time>
      </trkpt>
      <trkpt lat="47.86178" lon="2.05107">
        <ele>99</ele>
        <time>2014-01-26T08:28:56Z</time>
      </trkpt>
      <trkpt lat="47.86189" lon="2.05126">
        <ele>100</ele>
        <time>2014-01-26T08:29:00Z</time>
      </trkpt>
      <trkpt lat="47.86204" lon="2.05141">
        <ele>101</ele>
        <time>2014-01-26T08:29:04Z</time>
      </trkpt>
      <trkpt lat="47.86217" lon="2.05159">
        <ele>101</ele>
        <time>2014-01-26T08:29:08Z</time>
      </trkpt>
      <trkpt lat="47.86228" lon="2.05174">
        <ele>101</ele>
        <time>2014-01-26T08:29:12Z</time>
      </trkpt>
      <trkpt lat="47.86242" lon="2.05195">
        <ele>101</ele>
        <time>2014-01-26T08:29:16Z</time>
      </trkpt>
      <trkpt lat="47.86262" lon="2.0522">
        <ele>101</ele>
        <time>2014-01-26T08:29:20Z</time>
      </trkpt>
      <trkpt lat="47.86269" lon="2.05237">
        <ele>101</ele>
        <time>2014-01-26T08:29:24Z</time>
      </trkpt>
      <trkpt lat="47.86281" lon="2.0526">
        <ele>103</ele>
        <time>2014-01-26T08:29:28Z</time>
      </trkpt>
      <trkpt lat="47.86287" lon="2.05285">
        <ele>103</ele>
        <time>2014-01-26T08:29:32Z</time>
      </trkpt>
      <trkpt lat="47.86288" lon="2.05305">
        <ele>104</ele>
        <time>2014-01-26T08:29:36Z</time>
      </trkpt>
      <trkpt lat="47.86293" lon="2.05327">
        <ele>103</ele>
        <time>2014-01-26T08:29:40Z</time>
      </trkpt>
      <trkpt lat="47.863" lon="2.05349">
        <ele>103</ele>
        <time>2014-01-26T08:29:44Z</time>
      </trkpt>
      <trkpt lat="47.86309" lon="2.05371">
        <ele>103</ele>
        <time>2014-01-26T08:29:48Z</time>
      </trkpt>
      <trkpt lat="47.86322" lon="2.05389">
        <ele>104</ele>
        <time>2014-01-26T08:29:52Z</time>
      </trkpt>
      <trkpt lat="47.86336" lon="2.05403">
        <ele>104</ele>
        <time>2014-01-26T08:29:56Z</time>
      </trkpt>
      <trkpt lat="47.86346" lon="2.0542">
        <ele>103</ele>
        <time>2014-01-26T08:30:00Z</time>
      </trkpt>
      <trkpt lat="47.86358" lon="2.05436">
        <ele>103</ele>
        <time>2014-01-26T08:30:04Z</time>
      </trkpt>
      <trkpt lat="47.86376" lon="2.05447">
        <ele>103</ele>
        <time>2014-01-26T08:30:08Z</time>
      </trkpt>
      <trkpt lat="47.8639" lon="2.05453">
        <ele>103</ele>
        <time>2014-01-26T08:30:12Z</time>
      </trkpt>
      <trkpt lat="47.86406" lon="2.05455">
        <ele>104</ele>
        <time>2014-01-26T08:30:16Z</time>
      </trkpt>
      <trkpt lat="47.86426" lon="2.05457">
        <ele>104</ele>
        <time>2014-01-26T08:30:20Z</time>
      </trkpt>
      <trkpt lat="47.86444" lon="2.05458">
        <ele>104</ele>
        <time>2014-01-26T08:30:24Z</time>
      </trkpt>
      <trkpt lat="47.86462" lon="2.05461">
        <ele>104</ele>
        <time>2014-01-26T08:30:28Z</time>
      </trkpt>
      <trkpt lat="47.86482" lon="2.05461">
        <ele>104</ele>
        <time>2014-01-26T08:30:32Z</time>
      </trkpt>
      <trkpt lat="47.86502" lon="2.05468">
        <ele>104</ele>
        <time>2014-01-26T08:30:36Z</time>
      </trkpt>
      <trkpt lat="47.86522" lon="2.05476">
        <ele>105</ele>
        <time>2014-01-26T08:30:40Z</time>
      </trkpt>
      <trkpt lat="47.86543" lon="2.05489">
        <ele>104</ele>
        <time>2014-01-26T08:30:44Z</time>
      </trkpt>
      <trkpt lat="47.8656" lon="2.05503">
        <ele>104</ele>
        <time>2014-01-26T08:30:48Z</time>
      </trkpt>
      <trkpt lat="47.86581" lon="2.05517">
        <ele>104</ele>
        <time>2014-01-26T08:30:52Z</time>
      </trkpt>
      <trkpt lat="47.86598" lon="2.05538">
        <ele>105</ele>
        <time>2014-01-26T08:30:56Z</time>
      </trkpt>
      <trkpt lat="47.86618" lon="2.05555">
        <ele>101</ele>
        <time>2014-01-26T08:31:00Z</time>
      </trkpt>
      <trkpt lat="47.86638" lon="2.05575">
        <ele>101</ele>
        <time>2014-01-26T08:31:04Z</time>
      </trkpt>
      <trkpt lat="47.86658" lon="2.05593">
        <ele>105</ele>
        <time>2014-01-26T08:31:08Z</time>
      </trkpt>
      <trkpt lat="47.86677" lon="2.0561">
        <ele>105</ele>
        <time>2014-01-26T08:31:12Z</time>
      </trkpt>
      <trkpt lat="47.86695" lon="2.05623">
        <ele>105</ele>
        <time>2014-01-26T08:31:16Z</time>
      </trkpt>
      <trkpt lat="47.86713" lon="2.05639">
        <ele>105</ele>
        <time>2014-01-26T08:31:20Z</time>
      </trkpt>
      <trkpt lat="47.86731" lon="2.05657">
        <ele>105</ele>
        <time>2014-01-26T08:31:24Z</time>
      </trkpt>
      <trkpt lat="47.8675" lon="2.05677">
        <ele>106</ele>
        <time>2014-01-26T08:31:28Z</time>
      </trkpt>
      <trkpt lat="47.8677" lon="2.05696">
        <ele>105</ele>
        <time>2014-01-26T08:31:32Z</time>
      </trkpt>
      <trkpt lat="47.86784" lon="2.05718">
        <ele>106</ele>
        <time>2014-01-26T08:31:36Z</time>
      </trkpt>
      <trkpt lat="47.86795" lon="2.05747">
        <ele>106</ele>
        <time>2014-01-26T08:31:40Z</time>
      </trkpt>
      <trkpt lat="47.86803" lon="2.05778">
        <ele>106</ele>
        <time>2014-01-26T08:31:44Z</time>
      </trkpt>
      <trkpt lat="47.86808" lon="2.05808">
        <ele>105</ele>
        <time>2014-01-26T08:31:48Z</time>
      </trkpt>
      <trkpt lat="47.86816" lon="2.05838">
        <ele>105</ele>
        <time>2014-01-26T08:31:52Z</time>
      </trkpt>
      <trkpt lat="47.86821" lon="2.05868">
        <ele>105</ele>
        <time>2014-01-26T08:31:56Z</time>
      </trkpt>
      <trkpt lat="47.86826" lon="2.059">
        <ele>105</ele>
        <time>2014-01-26T08:32:00Z</time>
      </trkpt>
      <trkpt lat="47.8683" lon="2.05934">
        <ele>105</ele>
        <time>2014-01-26T08:32:04Z</time>
      </trkpt>
      <trkpt lat="47.86839" lon="2.05964">
        <ele>105</ele>
        <time>2014-01-26T08:32:08Z</time>
      </trkpt>
      <trkpt lat="47.8685" lon="2.05994">
        <ele>105</ele>
        <time>2014-01-26T08:32:12Z</time>
      </trkpt>
      <trkpt lat="47.86859" lon="2.06024">
        <ele>104</ele>
        <time>2014-01-26T08:32:16Z</time>
      </trkpt>
      <trkpt lat="47.86866" lon="2.06055">
        <ele>104</ele>
        <time>2014-01-26T08:32:20Z</time>
      </trkpt>
      <trkpt lat="47.86874" lon="2.06081">
        <ele>105</ele>
        <time>2014-01-26T08:32:24Z</time>
      </trkpt>
      <trkpt lat="47.86882" lon="2.0611">
        <ele>105</ele>
        <time>2014-01-26T08:32:28Z</time>
      </trkpt>
      <trkpt lat="47.86892" lon="2.06136">
        <ele>104</ele>
        <time>2014-01-26T08:32:32Z</time>
      </trkpt>
      <trkpt lat="47.86902" lon="2.06163">
        <ele>105</ele>
        <time>2014-01-26T08:32:36Z</time>
      </trkpt>
      <trkpt lat="47.86914" lon="2.0619">
        <ele>105</ele>
        <time>2014-01-26T08:32:40Z</time>
      </trkpt>
      <trkpt lat="47.86924" lon="2.06219">
        <ele>104</ele>
        <time>2014-01-26T08:32:44Z</time>
      </trkpt>
      <trkpt lat="47.86933" lon="2.06249">
        <ele>105</ele>
        <time>2014-01-26T08:32:48Z</time>
      </trkpt>
      <trkpt lat="47.86945" lon="2.06277">
        <ele>105</ele>
        <time>2014-01-26T08:32:52Z</time>
      </trkpt>
      <trkpt lat="47.86959" lon="2.06305">
        <ele>104</ele>
        <time>2014-01-26T08:32:56Z</time>
      </trkpt>
      <trkpt lat="47.8697" lon="2.0633">
        <ele>105</ele>
        <time>2014-01-26T08:33:00Z</time>
      </trkpt>
      <trkpt lat="47.86985" lon="2.06353">
        <ele>104</ele>
        <time>2014-01-26T08:33:04Z</time>
      </trkpt>
      <trkpt lat="47.86997" lon="2.06381">
        <ele>105</ele>
        <time>2014-01-26T08:33:08Z</time>
      </trkpt>
      <trkpt lat="47.87012" lon="2.06411">
        <ele>105</ele>
        <time>2014-01-26T08:33:12Z</time>
      </trkpt>
      <trkpt lat="47.87023" lon="2.06438">
        <ele>105</ele>
        <time>2014-01-26T08:33:16Z</time>
      </trkpt>
      <trkpt lat="47.87033" lon="2.06467">
        <ele>105</ele>
        <time>2014-01-26T08:33:20Z</time>
      </trkpt>
      <trkpt lat="47.87044" lon="2.06491">
        <ele>105</ele>
        <time>2014-01-26T08:33:24Z</time>
      </trkpt>
      <trkpt lat="47.87056" lon="2.06519">
        <ele>105</ele>
        <time>2014-01-26T08:33:28Z</time>
      </trkpt>
      <trkpt lat="47.87069" lon="2.06546">
        <ele>105</ele>
        <time>2014-01-26T08:33:32Z</time>
      </trkpt>
      <trkpt lat="47.87083" lon="2.06574">
        <ele>105</ele>
        <time>2014-01-26T08:33:36Z</time>
      </trkpt>
      <trkpt lat="47.87095" lon="2.06601">
        <ele>105</ele>
        <time>2014-01-26T08:33:40Z</time>
      </trkpt>
      <trkpt lat="47.87109" lon="2.0663">
        <ele>105</ele>
        <time>2014-01-26T08:33:44Z</time>
      </trkpt>
      <trkpt lat="47.87121" lon="2.06662">
        <ele>105</ele>
        <time>2014-01-26T08:33:48Z</time>
      </trkpt>
      <trkpt lat="47.8713" lon="2.06692">
        <ele>105</ele>
        <time>2014-01-26T08:33:52Z</time>
      </trkpt>
      <trkpt lat="47.87138" lon="2.06722">
        <ele>105</ele>
        <time>2014-01-26T08:33:56Z</time>
      </trkpt>
      <trkpt lat="47.87146" lon="2.06754">
        <ele>105</ele>
        <time>2014-01-26T08:34:00Z</time>
      </trkpt>
      <trkpt lat="47.87151" lon="2.06786">
        <ele>105</ele>
        <time>2014-01-26T08:34:04Z</time>
      </trkpt>
      <trkpt lat="47.87157" lon="2.06818">
        <ele>105</ele>
        <time>2014-01-26T08:34:08Z</time>
      </trkpt>
      <trkpt lat="47.87165" lon="2.06851">
        <ele>105</ele>
        <time>2014-01-26T08:34:12Z</time>
      </trkpt>
      <trkpt lat="47.87172" lon="2.06881">
        <ele>105</ele>
        <time>2014-01-26T08:34:16Z</time>
      </trkpt>
      <trkpt lat="47.8718" lon="2.0691">
        <ele>105</ele>
        <time>2014-01-26T08:34:20Z</time>
      </trkpt>
      <trkpt lat="47.87187" lon="2.06944">
        <ele>105</ele>
        <time>2014-01-26T08:34:24Z</time>
      </trkpt>
      <trkpt lat="47.87196" lon="2.06975">
        <ele>105</ele>
        <time>2014-01-26T08:34:28Z</time>
      </trkpt>
      <trkpt lat="47.87202" lon="2.07007">
        <ele>105</ele>
        <time>2014-01-26T08:34:32Z</time>
      </trkpt>
      <trkpt lat="47.87209" lon="2.07039">
        <ele>105</ele>
        <time>2014-01-26T08:34:36Z</time>
      </trkpt>
      <trkpt lat="47.87217" lon="2.0707">
        <ele>105</ele>
        <time>2014-01-26T08:34:40Z</time>
      </trkpt>
      <trkpt lat="47.87222" lon="2.07102">
        <ele>105</ele>
        <time>2014-01-26T08:34:44Z</time>
      </trkpt>
      <trkpt lat="47.87229" lon="2.07135">
        <ele>105</ele>
        <time>2014-01-26T08:34:48Z</time>
      </trkpt>
      <trkpt lat="47.87234" lon="2.07166">
        <ele>105</ele>
        <time>2014-01-26T08:34:52Z</time>
      </trkpt>
      <trkpt lat="47.8724" lon="2.07201">
        <ele>104</ele>
        <time>2014-01-26T08:34:56Z</time>
      </trkpt>
      <trkpt lat="47.87247" lon="2.07232">
        <ele>105</ele>
        <time>2014-01-26T08:35:00Z</time>
      </trkpt>
      <trkpt lat="47.87253" lon="2.07265">
        <ele>104</ele>
        <time>2014-01-26T08:35:04Z</time>
      </trkpt>
      <trkpt lat="47.87259" lon="2.07293">
        <ele>104</ele>
        <time>2014-01-26T08:35:08Z</time>
      </trkpt>
      <trkpt lat="47.87266" lon="2.07326">
        <ele>104</ele>
        <time>2014-01-26T08:35:12Z</time>
      </trkpt>
      <trkpt lat="47.8727" lon="2.07357">
        <ele>104</ele>
        <time>2014-01-26T08:35:16Z</time>
      </trkpt>
      <trkpt lat="47.87277" lon="2.07391">
        <ele>104</ele>
        <time>2014-01-26T08:35:20Z</time>
      </trkpt>
      <trkpt lat="47.8728" lon="2.07426">
        <ele>104</ele>
        <time>2014-01-26T08:35:24Z</time>
      </trkpt>
      <trkpt lat="47.87284" lon="2.07453">
        <ele>105</ele>
        <time>2014-01-26T08:35:28Z</time>
      </trkpt>
      <trkpt lat="47.87285" lon="2.0748">
        <ele>104</ele>
        <time>2014-01-26T08:35:32Z</time>
      </trkpt>
      <trkpt lat="47.87288" lon="2.07514">
        <ele>104</ele>
        <time>2014-01-26T08:35:36Z</time>
      </trkpt>
      <trkpt lat="47.87293" lon="2.07545">
        <ele>105</ele>
        <time>2014-01-26T08:35:40Z</time>
      </trkpt>
      <trkpt lat="47.87293" lon="2.07576">
        <ele>103</ele>
        <time>2014-01-26T08:35:44Z</time>
      </trkpt>
      <trkpt lat="47.87296" lon="2.07599">
        <ele>102</ele>
        <time>2014-01-26T08:35:48Z</time>
      </trkpt>
      <trkpt lat="47.87304" lon="2.07635">
        <ele>101</ele>
        <time>2014-01-26T08:35:52Z</time>
      </trkpt>
      <trkpt lat="47.87319" lon="2.07671">
        <ele>101</ele>
        <time>2014-01-26T08:35:56Z</time>
      </trkpt>
      <trkpt lat="47.87325" lon="2.07704">
        <ele>100</ele>
        <time>2014-01-26T08:36:00Z</time>
      </trkpt>
      <trkpt lat="47.8733" lon="2.07737">
        <ele>100</ele>
        <time>2014-01-26T08:36:04Z</time>
      </trkpt>
      <trkpt lat="47.87334" lon="2.07772">
        <ele>100</ele>
        <time>2014-01-26T08:36:08Z</time>
      </trkpt>
      <trkpt lat="47.87335" lon="2.07803">
        <ele>100</ele>
        <time>2014-01-26T08:36:12Z</time>
      </trkpt>
      <trkpt lat="47.87335" lon="2.07838">
        <ele>99</ele>
        <time>2014-01-26T08:36:16Z</time>
      </trkpt>
      <trkpt lat="47.87336" lon="2.07867">
        <ele>99</ele>
        <time>2014-01-26T08:36:20Z</time>
      </trkpt>
      <trkpt lat="47.87337" lon="2.07904">
        <ele>99</ele>
        <time>2014-01-26T08:36:24Z</time>
      </trkpt>
      <trkpt lat="47.87336" lon="2.07941">
        <ele>100</ele>
        <time>2014-01-26T08:36:28Z</time>
      </trkpt>
      <trkpt lat="47.87337" lon="2.07969">
        <ele>100</ele>
        <time>2014-01-26T08:36:32Z</time>
      </trkpt>
      <trkpt lat="47.87337" lon="2.07999">
        <ele>100</ele>
        <time>2014-01-26T08:36:36Z</time>
      </trkpt>
      <trkpt lat="47.87337" lon="2.08023">
        <ele>101</ele>
        <time>2014-01-26T08:36:40Z</time>
      </trkpt>
      <trkpt lat="47.87343" lon="2.08048">
        <ele>102</ele>
        <time>2014-01-26T08:36:44Z</time>
      </trkpt>
      <trkpt lat="47.87347" lon="2.08073">
        <ele>102</ele>
        <time>2014-01-26T08:36:48Z</time>
      </trkpt>
      <trkpt lat="47.87348" lon="2.08093">
        <ele>101</ele>
        <time>2014-01-26T08:36:52Z</time>
      </trkpt>
      <trkpt lat="47.87351" lon="2.08112">
        <ele>102</ele>
        <time>2014-01-26T08:36:56Z</time>
      </trkpt>
      <trkpt lat="47.87348" lon="2.08139">
        <ele>102</ele>
        <time>2014-01-26T08:37:00Z</time>
      </trkpt>
      <trkpt lat="47.8735" lon="2.08157">
        <ele>102</ele>
        <time>2014-01-26T08:37:04Z</time>
      </trkpt>
      <trkpt lat="47.87348" lon="2.08178">
        <ele>101</ele>
        <time>2014-01-26T08:37:08Z</time>
      </trkpt>
      <trkpt lat="47.87347" lon="2.08197">
        <ele>100</ele>
        <time>2014-01-26T08:37:12Z</time>
      </trkpt>
      <trkpt lat="47.87347" lon="2.08207">
        <ele>100</ele>
        <time>2014-01-26T08:37:16Z</time>
      </trkpt>
      <trkpt lat="47.87342" lon="2.08218">
        <ele>100</ele>
        <time>2014-01-26T08:37:20Z</time>
      </trkpt>
      <trkpt lat="47.87341" lon="2.08224">
        <ele>100</ele>
        <time>2014-01-26T08:37:24Z</time>
      </trkpt>
      <trkpt lat="47.87346" lon="2.08243">
        <ele>100</ele>
        <time>2014-01-26T08:37:28Z</time>
      </trkpt>
      <trkpt lat="47.87349" lon="2.08262">
        <ele>100</ele>
        <time>2014-01-26T08:37:32Z</time>
      </trkpt>
      <trkpt lat="47.8735" lon="2.08275">
        <ele>100</ele>
        <time>2014-01-26T08:37:36Z</time>
      </trkpt>
      <trkpt lat="47.87349" lon="2.0829">
        <ele>99</ele>
        <time>2014-01-26T08:37:40Z</time>
      </trkpt>
      <trkpt lat="47.87349" lon="2.08305">
        <ele>99</ele>
        <time>2014-01-26T08:37:44Z</time>
      </trkpt>
      <trkpt lat="47.87343" lon="2.08325">
        <ele>99</ele>
        <time>2014-01-26T08:37:48Z</time>
      </trkpt>
      <trkpt lat="47.8734" lon="2.0835">
        <ele>99</ele>
        <time>2014-01-26T08:37:52Z</time>
      </trkpt>
      <trkpt lat="47.87338" lon="2.08376">
        <ele>99</ele>
        <time>2014-01-26T08:37:56Z</time>
      </trkpt>
      <trkpt lat="47.87338" lon="2.08394">
        <ele>99</ele>
        <time>2014-01-26T08:38:00Z</time>
      </trkpt>
      <trkpt lat="47.87342" lon="2.08419">
        <ele>99</ele>
        <time>2014-01-26T08:38:04Z</time>
      </trkpt>
      <trkpt lat="47.87342" lon="2.08451">
        <ele>99</ele>
        <time>2014-01-26T08:38:08Z</time>
      </trkpt>
      <trkpt lat="47.87344" lon="2.08472">
        <ele>99</ele>
        <time>2014-01-26T08:38:12Z</time>
      </trkpt>
      <trkpt lat="47.87346" lon="2.08503">
        <ele>99</ele>
        <time>2014-01-26T08:38:16Z</time>
      </trkpt>
      <trkpt lat="47.87345" lon="2.08515">
        <ele>99</ele>
        <time>2014-01-26T08:38:20Z</time>
      </trkpt>
      <trkpt lat="47.87348" lon="2.08539">
        <ele>99</ele>
        <time>2014-01-26T08:38:24Z</time>
      </trkpt>
      <trkpt lat="47.87353" lon="2.08558">
        <ele>99</ele>
        <time>2014-01-26T08:38:28Z</time>
      </trkpt>
      <trkpt lat="47.87351" lon="2.0858">
        <ele>99</ele>
        <time>2014-01-26T08:38:32Z</time>
      </trkpt>
      <trkpt lat="47.87352" lon="2.08607">
        <ele>100</ele>
        <time>2014-01-26T08:38:36Z</time>
      </trkpt>
      <trkpt lat="47.87347" lon="2.08626">
        <ele>99</ele>
        <time>2014-01-26T08:38:40Z</time>
      </trkpt>
      <trkpt lat="47.87349" lon="2.08647">
        <ele>99</ele>
        <time>2014-01-26T08:38:44Z</time>
      </trkpt>
      <trkpt lat="47.87347" lon="2.08673">
        <ele>99</ele>
        <time>2014-01-26T08:38:48Z</time>
      </trkpt>
      <trkpt lat="47.8735" lon="2.08693">
        <ele>99</ele>
        <time>2014-01-26T08:38:52Z</time>
      </trkpt>
      <trkpt lat="47.87351" lon="2.08719">
        <ele>99</ele>
        <time>2014-01-26T08:38:56Z</time>
      </trkpt>
      <trkpt lat="47.87352" lon="2.08743">
        <ele>99</ele>
        <time>2014-01-26T08:39:00Z</time>
      </trkpt>
      <trkpt lat="47.87354" lon="2.08765">
        <ele>99</ele>
        <time>2014-01-26T08:39:04Z</time>
      </trkpt>
      <trkpt lat="47.8735" lon="2.08781">
        <ele>99</ele>
        <time>2014-01-26T08:39:08Z</time>
      </trkpt>
      <trkpt lat="47.8735" lon="2.08805">
        <ele>99</ele>
        <time>2014-01-26T08:39:12Z</time>
      </trkpt>
      <trkpt lat="47.8735" lon="2.08833">
        <ele>99</ele>
        <time>2014-01-26T08:39:16Z</time>
      </trkpt>
      <trkpt lat="47.87351" lon="2.08854">
        <ele>99</ele>
        <time>2014-01-26T08:39:20Z</time>
      </trkpt>
      <trkpt lat="47.87349" lon="2.08877">
        <ele>99</ele>
        <time>2014-01-26T08:39:24Z</time>
      </trkpt>
      <trkpt lat="47.87348" lon="2.08899">
        <ele>99</ele>
        <time>2014-01-26T08:39:28Z</time>
      </trkpt>
      <trkpt lat="47.87349" lon="2.08925">
        <ele>99</ele>
        <time>2014-01-26T08:39:32Z</time>
      </trkpt>
      <trkpt lat="47.87347" lon="2.08942">
        <ele>99</ele>
        <time>2014-01-26T08:39:36Z</time>
      </trkpt>
      <trkpt lat="47.87344" lon="2.08959">
        <ele>98</ele>
        <time>2014-01-26T08:39:40Z</time>
      </trkpt>
      <trkpt lat="47.87347" lon="2.08991">
        <ele>99</ele>
        <time>2014-01-26T08:39:44Z</time>
      </trkpt>
      <trkpt lat="47.87345" lon="2.0901">
        <ele>99</ele>
        <time>2014-01-26T08:39:48Z</time>
      </trkpt>
      <trkpt lat="47.87347" lon="2.09027">
        <ele>99</ele>
        <time>2014-01-26T08:39:52Z</time>
      </trkpt>
      <trkpt lat="47.87347" lon="2.09054">
        <ele>99</ele>
        <time>2014-01-26T08:39:56Z</time>
      </trkpt>
      <trkpt lat="47.87348" lon="2.09076">
        <ele>99</ele>
        <time>2014-01-26T08:40:00Z</time>
      </trkpt>
      <trkpt lat="47.87354" lon="2.091">
        <ele>99</ele>
        <time>2014-01-26T08:40:04Z</time>
      </trkpt>
      <trkpt lat="47.87359" lon="2.0912">
        <ele>99</ele>
        <time>2014-01-26T08:40:08Z</time>
      </trkpt>
      <trkpt lat="47.87358" lon="2.09137">
        <ele>99</ele>
        <time>2014-01-26T08:40:12Z</time>
      </trkpt>
      <trkpt lat="47.87356" lon="2.09161">
        <ele>99</ele>
        <time>2014-01-26T08:40:16Z</time>
      </trkpt>
      <trkpt lat="47.87353" lon="2.09182">
        <ele>99</ele>
        <time>2014-01-26T08:40:20Z</time>
      </trkpt>
      <trkpt lat="47.87354" lon="2.09207">
        <ele>99</ele>
        <time>2014-01-26T08:40:24Z</time>
      </trkpt>
      <trkpt lat="47.87355" lon="2.09231">
        <ele>100</ele>
        <time>2014-01-26T08:40:28Z</time>
      </trkpt>
      <trkpt lat="47.87357" lon="2.09253">
        <ele>99</ele>
        <time>2014-01-26T08:40:32Z</time>
      </trkpt>
      <trkpt lat="47.87361" lon="2.09276">
        <ele>99</ele>
        <time>2014-01-26T08:40:36Z</time>
      </trkpt>
      <trkpt lat="47.87362" lon="2.09297">
        <ele>99</ele>
        <time>2014-01-26T08:40:40Z</time>
      </trkpt>
      <trkpt lat="47.87358" lon="2.09312">
        <ele>99</ele>
        <time>2014-01-26T08:40:44Z</time>
      </trkpt>
      <trkpt lat="47.87363" lon="2.09332">
        <ele>99</ele>
        <time>2014-01-26T08:40:48Z</time>
      </trkpt>
      <trkpt lat="47.87365" lon="2.09359">
        <ele>100</ele>
        <time>2014-01-26T08:40:52Z</time>
      </trkpt>
      <trkpt lat="47.87362" lon="2.09378">
        <ele>99</ele>
        <time>2014-01-26T08:40:56Z</time>
      </trkpt>
      <trkpt lat="47.8736" lon="2.09394">
        <ele>99</ele>
        <time>2014-01-26T08:41:00Z</time>
      </trkpt>
      <trkpt lat="47.87359" lon="2.09412">
        <ele>98</ele>
        <time>2014-01-26T08:41:04Z</time>
      </trkpt>
      <trkpt lat="47.87358" lon="2.09427">
        <ele>98</ele>
        <time>2014-01-26T08:41:08Z</time>
      </trkpt>
      <trkpt lat="47.87357" lon="2.09441">
        <ele>98</ele>
        <time>2014-01-26T08:41:12Z</time>
      </trkpt>
      <trkpt lat="47.87354" lon="2.09453">
        <ele>98</ele>
        <time>2014-01-26T08:41:16Z</time>
      </trkpt>
      <trkpt lat="47.87351" lon="2.09461">
        <ele>98</ele>
        <time>2014-01-26T08:41:24Z</time>
      </trkpt>
      <trkpt lat="47.87357" lon="2.09461">
        <ele>98</ele>
        <time>2014-01-26T08:41:28Z</time>
      </trkpt>
      <trkpt lat="47.87359" lon="2.09469">
        <ele>98</ele>
        <time>2014-01-26T08:41:32Z</time>
      </trkpt>
      <trkpt lat="47.87361" lon="2.09484">
        <ele>98</ele>
        <time>2014-01-26T08:41:36Z</time>
      </trkpt>
      <trkpt lat="47.87364" lon="2.09499">
        <ele>99</ele>
        <time>2014-01-26T08:41:40Z</time>
      </trkpt>
      <trkpt lat="47.87365" lon="2.09514">
        <ele>99</ele>
        <time>2014-01-26T08:41:44Z</time>
      </trkpt>
      <trkpt lat="47.87367" lon="2.09529">
        <ele>99</ele>
        <time>2014-01-26T08:41:48Z</time>
      </trkpt>
      <trkpt lat="47.87365" lon="2.09547">
        <ele>99</ele>
        <time>2014-01-26T08:41:52Z</time>
      </trkpt>
      <trkpt lat="47.87367" lon="2.09564">
        <ele>100</ele>
        <time>2014-01-26T08:41:56Z</time>
      </trkpt>
      <trkpt lat="47.87369" lon="2.09579">
        <ele>99</ele>
        <time>2014-01-26T08:42:00Z</time>
      </trkpt>
      <trkpt lat="47.87369" lon="2.0959">
        <ele>100</ele>
        <time>2014-01-26T08:42:04Z</time>
      </trkpt>
      <trkpt lat="47.87368" lon="2.09604">
        <ele>101</ele>
        <time>2014-01-26T08:42:08Z</time>
      </trkpt>
      <trkpt lat="47.87369" lon="2.09613">
        <ele>103</ele>
        <time>2014-01-26T08:42:12Z</time>
      </trkpt>
      <trkpt lat="47.87374" lon="2.0963">
        <ele>103</ele>
        <time>2014-01-26T08:42:16Z</time>
      </trkpt>
      <trkpt lat="47.87376" lon="2.09639">
        <ele>105</ele>
        <time>2014-01-26T08:42:20Z</time>
      </trkpt>
      <trkpt lat="47.87382" lon="2.09651">
        <ele>105</ele>
        <time>2014-01-26T08:42:24Z</time>
      </trkpt>
      <trkpt lat="47.87386" lon="2.0967">
        <ele>105</ele>
        <time>2014-01-26T08:42:28Z</time>
      </trkpt>
      <trkpt lat="47.87384" lon="2.09693">
        <ele>105</ele>
        <time>2014-01-26T08:42:32Z</time>
      </trkpt>
      <trkpt lat="47.87382" lon="2.09704">
        <ele>104</ele>
        <time>2014-01-26T08:42:36Z</time>
      </trkpt>
      <trkpt lat="47.87381" lon="2.09725">
        <ele>104</ele>
        <time>2014-01-26T08:42:40Z</time>
      </trkpt>
      <trkpt lat="47.87385" lon="2.0974">
        <ele>104</ele>
        <time>2014-01-26T08:42:44Z</time>
      </trkpt>
      <trkpt lat="47.87385" lon="2.09762">
        <ele>104</ele>
        <time>2014-01-26T08:42:48Z</time>
      </trkpt>
      <trkpt lat="47.87385" lon="2.09781">
        <ele>103</ele>
        <time>2014-01-26T08:42:52Z</time>
      </trkpt>
      <trkpt lat="47.87388" lon="2.09797">
        <ele>104</ele>
        <time>2014-01-26T08:42:56Z</time>
      </trkpt>
      <trkpt lat="47.87385" lon="2.09816">
        <ele>104</ele>
        <time>2014-01-26T08:43:00Z</time>
      </trkpt>
      <trkpt lat="47.87393" lon="2.09841">
        <ele>105</ele>
        <time>2014-01-26T08:43:04Z</time>
      </trkpt>
      <trkpt lat="47.87391" lon="2.09849">
        <ele>104</ele>
        <time>2014-01-26T08:43:08Z</time>
      </trkpt>
      <trkpt lat="47.87388" lon="2.09859">
        <ele>104</ele>
        <time>2014-01-26T08:43:12Z</time>
      </trkpt>
      <trkpt lat="47.87386" lon="2.09878">
        <ele>105</ele>
        <time>2014-01-26T08:43:16Z</time>
      </trkpt>
      <trkpt lat="47.87385" lon="2.09892">
        <ele>105</ele>
        <time>2014-01-26T08:43:20Z</time>
      </trkpt>
      <trkpt lat="47.87382" lon="2.09908">
        <ele>104</ele>
        <time>2014-01-26T08:43:24Z</time>
      </trkpt>
      <trkpt lat="47.87385" lon="2.09929">
        <ele>104</ele>
        <time>2014-01-26T08:43:28Z</time>
      </trkpt>
      <trkpt lat="47.87392" lon="2.09953">
        <ele>105</ele>
        <time>2014-01-26T08:43:36Z</time>
      </trkpt>
      <trkpt lat="47.87392" lon="2.09984">
        <ele>104</ele>
        <time>2014-01-26T08:43:40Z</time>
      </trkpt>
      <trkpt lat="47.87391" lon="2.09999">
        <ele>104</ele>
        <time>2014-01-26T08:43:44Z</time>
      </trkpt>
      <trkpt lat="47.87386" lon="2.10013">
        <ele>104</ele>
        <time>2014-01-26T08:43:48Z</time>
      </trkpt>
      <trkpt lat="47.87389" lon="2.10034">
        <ele>103</ele>
        <time>2014-01-26T08:43:52Z</time>
      </trkpt>
      <trkpt lat="47.8739" lon="2.10049">
        <ele>104</ele>
        <time>2014-01-26T08:43:56Z</time>
      </trkpt>
      <trkpt lat="47.87395" lon="2.1007">
        <ele>105</ele>
        <time>2014-01-26T08:44:00Z</time>
      </trkpt>
      <trkpt lat="47.87394" lon="2.10087">
        <ele>106</ele>
        <time>2014-01-26T08:44:04Z</time>
      </trkpt>
      <trkpt lat="47.87395" lon="2.10111">
        <ele>105</ele>
        <time>2014-01-26T08:44:08Z</time>
      </trkpt>
      <trkpt lat="47.87393" lon="2.10121">
        <ele>105</ele>
        <time>2014-01-26T08:44:12Z</time>
      </trkpt>
      <trkpt lat="47.87396" lon="2.10135">
        <ele>104</ele>
        <time>2014-01-26T08:44:20Z</time>
      </trkpt>
      <trkpt lat="47.87393" lon="2.10149">
        <ele>105</ele>
        <time>2014-01-26T08:44:24Z</time>
      </trkpt>
      <trkpt lat="47.87391" lon="2.10168">
        <ele>105</ele>
        <time>2014-01-26T08:44:28Z</time>
      </trkpt>
      <trkpt lat="47.87392" lon="2.10185">
        <ele>104</ele>
        <time>2014-01-26T08:44:32Z</time>
      </trkpt>
      <trkpt lat="47.87395" lon="2.10209">
        <ele>105</ele>
        <time>2014-01-26T08:44:36Z</time>
      </trkpt>
      <trkpt lat="47.87394" lon="2.1022">
        <ele>105</ele>
        <time>2014-01-26T08:44:40Z</time>
      </trkpt>
      <trkpt lat="47.87392" lon="2.10241">
        <ele>105</ele>
        <time>2014-01-26T08:44:44Z</time>
      </trkpt>
      <trkpt lat="47.87395" lon="2.10256">
        <ele>105</ele>
        <time>2014-01-26T08:44:48Z</time>
      </trkpt>
      <trkpt lat="47.87391" lon="2.10261">
        <ele>106</ele>
        <time>2014-01-26T08:44:52Z</time>
      </trkpt>
      <trkpt lat="47.87393" lon="2.10273">
        <ele>106</ele>
        <time>2014-01-26T08:44:56Z</time>
      </trkpt>
      <trkpt lat="47.87404" lon="2.10285">
        <ele>104</ele>
        <time>2014-01-26T08:45:04Z</time>
      </trkpt>
      <trkpt lat="47.87401" lon="2.10299">
        <ele>105</ele>
        <time>2014-01-26T08:45:12Z</time>
      </trkpt>
      <trkpt lat="47.87399" lon="2.10314">
        <ele>105</ele>
        <time>2014-01-26T08:45:16Z</time>
      </trkpt>
      <trkpt lat="47.87398" lon="2.1033">
        <ele>105</ele>
        <time>2014-01-26T08:45:20Z</time>
      </trkpt>
      <trkpt lat="47.87398" lon="2.10337">
        <ele>104</ele>
        <time>2014-01-26T08:45:24Z</time>
      </trkpt>
      <trkpt lat="47.874" lon="2.10352">
        <ele>104</ele>
        <time>2014-01-26T08:45:28Z</time>
      </trkpt>
      <trkpt lat="47.87399" lon="2.10358">
        <ele>105</ele>
        <time>2014-01-26T08:45:36Z</time>
      </trkpt>
      <trkpt lat="47.87402" lon="2.10365">
        <ele>105</ele>
        <time>2014-01-26T08:45:52Z</time>
      </trkpt>
      <trkpt lat="47.87402" lon="2.10378">
        <ele>105</ele>
        <time>2014-01-26T08:46:00Z</time>
      </trkpt>
      <trkpt lat="47.87406" lon="2.10391">
        <ele>105</ele>
        <time>2014-01-26T08:46:04Z</time>
      </trkpt>
      <trkpt lat="47.87406" lon="2.10401">
        <ele>106</ele>
        <time>2014-01-26T08:46:08Z</time>
      </trkpt>
      <trkpt lat="47.87404" lon="2.10424">
        <ele>105</ele>
        <time>2014-01-26T08:46:12Z</time>
      </trkpt>
      <trkpt lat="47.87401" lon="2.10439">
        <ele>105</ele>
        <time>2014-01-26T08:46:16Z</time>
      </trkpt>
      <trkpt lat="47.874" lon="2.10458">
        <ele>105</ele>
        <time>2014-01-26T08:46:20Z</time>
      </trkpt>
      <trkpt lat="47.87399" lon="2.10464">
        <ele>106</ele>
        <time>2014-01-26T08:46:24Z</time>
      </trkpt>
      <trkpt lat="47.87402" lon="2.10484">
        <ele>106</ele>
        <time>2014-01-26T08:46:28Z</time>
      </trkpt>
      <trkpt lat="47.87404" lon="2.10499">
        <ele>106</ele>
        <time>2014-01-26T08:46:32Z</time>
      </trkpt>
      <trkpt lat="47.87402" lon="2.10516">
        <ele>106</ele>
        <time>2014-01-26T08:46:36Z</time>
      </trkpt>
      <trkpt lat="47.87402" lon="2.10534">
        <ele>106</ele>
        <time>2014-01-26T08:46:44Z</time>
      </trkpt>
      <trkpt lat="47.87405" lon="2.10551">
        <ele>107</ele>
        <time>2014-01-26T08:46:48Z</time>
      </trkpt>
      <trkpt lat="47.87409" lon="2.10564">
        <ele>107</ele>
        <time>2014-01-26T08:46:52Z</time>
      </trkpt>
      <trkpt lat="47.87405" lon="2.10582">
        <ele>107</ele>
        <time>2014-01-26T08:46:56Z</time>
      </trkpt>
      <trkpt lat="47.87404" lon="2.10604">
        <ele>105</ele>
        <time>2014-01-26T08:47:00Z</time>
      </trkpt>
      <trkpt lat="47.87402" lon="2.10629">
        <ele>103</ele>
        <time>2014-01-26T08:47:04Z</time>
      </trkpt>
      <trkpt lat="47.87399" lon="2.10637">
        <ele>103</ele>
        <time>2014-01-26T08:47:08Z</time>
      </trkpt>
      <trkpt lat="47.87397" lon="2.1065">
        <ele>103</ele>
        <time>2014-01-26T08:47:12Z</time>
      </trkpt>
      <trkpt lat="47.87395" lon="2.10657">
        <ele>103</ele>
        <time>2014-01-26T08:47:16Z</time>
      </trkpt>
      <trkpt lat="47.87393" lon="2.10679">
        <ele>101</ele>
        <time>2014-01-26T08:47:20Z</time>
      </trkpt>
      <trkpt lat="47.87381" lon="2.10694">
        <ele>102</ele>
        <time>2014-01-26T08:47:24Z</time>
      </trkpt>
      <trkpt lat="47.87378" lon="2.10709">
        <ele>104</ele>
        <time>2014-01-26T08:47:32Z</time>
      </trkpt>
      <trkpt lat="47.87378" lon="2.10722">
        <ele>105</ele>
        <time>2014-01-26T08:47:36Z</time>
      </trkpt>
      <trkpt lat="47.87384" lon="2.10731">
        <ele>106</ele>
        <time>2014-01-26T08:48:28Z</time>
      </trkpt>
      <trkpt lat="47.87397" lon="2.10752">
        <ele>107</ele>
        <time>2014-01-26T08:48:36Z</time>
      </trkpt>
      <trkpt lat="47.87404" lon="2.10759">
        <ele>108</ele>
        <time>2014-01-26T08:48:40Z</time>
      </trkpt>
      <trkpt lat="47.8741" lon="2.10763">
        <ele>108</ele>
        <time>2014-01-26T08:48:44Z</time>
      </trkpt>
      <trkpt lat="47.87416" lon="2.10767">
        <ele>109</ele>
        <time>2014-01-26T08:48:48Z</time>
      </trkpt>
      <trkpt lat="47.87423" lon="2.10775">
        <ele>110</ele>
        <time>2014-01-26T08:48:52Z</time>
      </trkpt>
      <trkpt lat="47.87432" lon="2.10783">
        <ele>110</ele>
        <time>2014-01-26T08:48:56Z</time>
      </trkpt>
      <trkpt lat="47.87438" lon="2.10787">
        <ele>111</ele>
        <time>2014-01-26T08:49:00Z</time>
      </trkpt>
      <trkpt lat="47.87449" lon="2.108">
        <ele>111</ele>
        <time>2014-01-26T08:49:04Z</time>
      </trkpt>
      <trkpt lat="47.87459" lon="2.10806">
        <ele>111</ele>
        <time>2014-01-26T08:49:08Z</time>
      </trkpt>
      <trkpt lat="47.87472" lon="2.1081">
        <ele>112</ele>
        <time>2014-01-26T08:49:12Z</time>
      </trkpt>
      <trkpt lat="47.87483" lon="2.10819">
        <ele>112</ele>
        <time>2014-01-26T08:49:16Z</time>
      </trkpt>
      <trkpt lat="47.87499" lon="2.10826">
        <ele>112</ele>
        <time>2014-01-26T08:49:20Z</time>
      </trkpt>
      <trkpt lat="47.87508" lon="2.10833">
        <ele>112</ele>
        <time>2014-01-26T08:49:24Z</time>
      </trkpt>
      <trkpt lat="47.87527" lon="2.10842">
        <ele>112</ele>
        <time>2014-01-26T08:49:28Z</time>
      </trkpt>
      <trkpt lat="47.8754" lon="2.10856">
        <ele>112</ele>
        <time>2014-01-26T08:49:32Z</time>
      </trkpt>
      <trkpt lat="47.87559" lon="2.10872">
        <ele>113</ele>
        <time>2014-01-26T08:49:36Z</time>
      </trkpt>
      <trkpt lat="47.87574" lon="2.10887">
        <ele>114</ele>
        <time>2014-01-26T08:49:40Z</time>
      </trkpt>
      <trkpt lat="47.87591" lon="2.10899">
        <ele>114</ele>
        <time>2014-01-26T08:49:44Z</time>
      </trkpt>
      <trkpt lat="47.87602" lon="2.10914">
        <ele>114</ele>
        <time>2014-01-26T08:49:48Z</time>
      </trkpt>
      <trkpt lat="47.8762" lon="2.10927">
        <ele>115</ele>
        <time>2014-01-26T08:49:52Z</time>
      </trkpt>
      <trkpt lat="47.87636" lon="2.10939">
        <ele>115</ele>
        <time>2014-01-26T08:50:00Z</time>
      </trkpt>
      <trkpt lat="47.87645" lon="2.10959">
        <ele>116</ele>
        <time>2014-01-26T08:50:24Z</time>
      </trkpt>
      <trkpt lat="47.87646" lon="2.10961">
        <ele>116</ele>
        <time>2014-01-26T08:50:28Z</time>
      </trkpt>
      <trkpt lat="47.87639" lon="2.10978">
        <ele>116</ele>
        <time>2014-01-26T08:50:32Z</time>
      </trkpt>
      <trkpt lat="47.87631" lon="2.10999">
        <ele>116</ele>
        <time>2014-01-26T08:50:36Z</time>
      </trkpt>
      <trkpt lat="47.87626" lon="2.1102">
        <ele>117</ele>
        <time>2014-01-26T08:50:40Z</time>
      </trkpt>
      <trkpt lat="47.8762" lon="2.11044">
        <ele>117</ele>
        <time>2014-01-26T08:50:44Z</time>
      </trkpt>
      <trkpt lat="47.87618" lon="2.11073">
        <ele>117</ele>
        <time>2014-01-26T08:50:48Z</time>
      </trkpt>
      <trkpt lat="47.87618" lon="2.11098">
        <ele>118</ele>
        <time>2014-01-26T08:50:52Z</time>
      </trkpt>
      <trkpt lat="47.87614" lon="2.11126">
        <ele>118</ele>
        <time>2014-01-26T08:50:56Z</time>
      </trkpt>
      <trkpt lat="47.87609" lon="2.11155">
        <ele>118</ele>
        <time>2014-01-26T08:51:00Z</time>
      </trkpt>
      <trkpt lat="47.87602" lon="2.1118">
        <ele>118</ele>
        <time>2014-01-26T08:51:04Z</time>
      </trkpt>
      <trkpt lat="47.87592" lon="2.11199">
        <ele>118</ele>
        <time>2014-01-26T08:51:08Z</time>
      </trkpt>
      <trkpt lat="47.87586" lon="2.11213">
        <ele>119</ele>
        <time>2014-01-26T08:51:12Z</time>
      </trkpt>
      <trkpt lat="47.87576" lon="2.1123">
        <ele>119</ele>
        <time>2014-01-26T08:51:16Z</time>
      </trkpt>
      <trkpt lat="47.87567" lon="2.11248">
        <ele>119</ele>
        <time>2014-01-26T08:51:20Z</time>
      </trkpt>
      <trkpt lat="47.87563" lon="2.11257">
        <ele>119</ele>
        <time>2014-01-26T08:51:52Z</time>
      </trkpt>
      <trkpt lat="47.87558" lon="2.1126">
        <ele>119</ele>
        <time>2014-01-26T08:51:56Z</time>
      </trkpt>
      <trkpt lat="47.8755" lon="2.11273">
        <ele>119</ele>
        <time>2014-01-26T08:52:00Z</time>
      </trkpt>
      <trkpt lat="47.87542" lon="2.11288">
        <ele>119</ele>
        <time>2014-01-26T08:52:04Z</time>
      </trkpt>
      <trkpt lat="47.87538" lon="2.11304">
        <ele>119</ele>
        <time>2014-01-26T08:52:08Z</time>
      </trkpt>
      <trkpt lat="47.87526" lon="2.11324">
        <ele>120</ele>
        <time>2014-01-26T08:52:12Z</time>
      </trkpt>
      <trkpt lat="47.87513" lon="2.1134">
        <ele>120</ele>
        <time>2014-01-26T08:52:16Z</time>
      </trkpt>
      <trkpt lat="47.87503" lon="2.11358">
        <ele>120</ele>
        <time>2014-01-26T08:52:20Z</time>
      </trkpt>
      <trkpt lat="47.87491" lon="2.11375">
        <ele>120</ele>
        <time>2014-01-26T08:52:24Z</time>
      </trkpt>
      <trkpt lat="47.87477" lon="2.1139">
        <ele>120</ele>
        <time>2014-01-26T08:52:28Z</time>
      </trkpt>
      <trkpt lat="47.8747" lon="2.11408">
        <ele>120</ele>
        <time>2014-01-26T08:52:32Z</time>
      </trkpt>
      <trkpt lat="47.87452" lon="2.11429">
        <ele>119</ele>
        <time>2014-01-26T08:52:36Z</time>
      </trkpt>
      <trkpt lat="47.87441" lon="2.1145">
        <ele>120</ele>
        <time>2014-01-26T08:52:40Z</time>
      </trkpt>
      <trkpt lat="47.87434" lon="2.11475">
        <ele>119</ele>
        <time>2014-01-26T08:52:44Z</time>
      </trkpt>
      <trkpt lat="47.87421" lon="2.11497">
        <ele>119</ele>
        <time>2014-01-26T08:52:48Z</time>
      </trkpt>
      <trkpt lat="47.87404" lon="2.11492">
        <ele>119</ele>
        <time>2014-01-26T08:52:52Z</time>
      </trkpt>
      <trkpt lat="47.8739" lon="2.1151">
        <ele>119</ele>
        <time>2014-01-26T08:52:56Z</time>
      </trkpt>
      <trkpt lat="47.87379" lon="2.11527">
        <ele>118</ele>
        <time>2014-01-26T08:53:00Z</time>
      </trkpt>
      <trkpt lat="47.87362" lon="2.11547">
        <ele>117</ele>
        <time>2014-01-26T08:53:04Z</time>
      </trkpt>
      <trkpt lat="47.87346" lon="2.11562">
        <ele>118</ele>
        <time>2014-01-26T08:53:08Z</time>
      </trkpt>
      <trkpt lat="47.87331" lon="2.11582">
        <ele>119</ele>
        <time>2014-01-26T08:53:12Z</time>
      </trkpt>
      <trkpt lat="47.87321" lon="2.11594">
        <ele>119</ele>
        <time>2014-01-26T08:53:16Z</time>
      </trkpt>
      <trkpt lat="47.87305" lon="2.11619">
        <ele>119</ele>
        <time>2014-01-26T08:53:20Z</time>
      </trkpt>
      <trkpt lat="47.87294" lon="2.1164">
        <ele>119</ele>
        <time>2014-01-26T08:53:24Z</time>
      </trkpt>
      <trkpt lat="47.87281" lon="2.11669">
        <ele>119</ele>
        <time>2014-01-26T08:53:28Z</time>
      </trkpt>
      <trkpt lat="47.87274" lon="2.11695">
        <ele>118</ele>
        <time>2014-01-26T08:53:32Z</time>
      </trkpt>
      <trkpt lat="47.87266" lon="2.11721">
        <ele>118</ele>
        <time>2014-01-26T08:53:36Z</time>
      </trkpt>
      <trkpt lat="47.87258" lon="2.11742">
        <ele>118</ele>
        <time>2014-01-26T08:53:40Z</time>
      </trkpt>
      <trkpt lat="47.87245" lon="2.11772">
        <ele>117</ele>
        <time>2014-01-26T08:53:44Z</time>
      </trkpt>
      <trkpt lat="47.87239" lon="2.11802">
        <ele>118</ele>
        <time>2014-01-26T08:53:48Z</time>
      </trkpt>
      <trkpt lat="47.87229" lon="2.11829">
        <ele>117</ele>
        <time>2014-01-26T08:53:52Z</time>
      </trkpt>
      <trkpt lat="47.87223" lon="2.11854">
        <ele>118</ele>
        <time>2014-01-26T08:53:56Z</time>
      </trkpt>
      <trkpt lat="47.87219" lon="2.11876">
        <ele>117</ele>
        <time>2014-01-26T08:54:00Z</time>
      </trkpt>
      <trkpt lat="47.87212" lon="2.11903">
        <ele>117</ele>
        <time>2014-01-26T08:54:04Z</time>
      </trkpt>
      <trkpt lat="47.87207" lon="2.11919">
        <ele>117</ele>
        <time>2014-01-26T08:54:08Z</time>
      </trkpt>
      <trkpt lat="47.87202" lon="2.11947">
        <ele>118</ele>
        <time>2014-01-26T08:54:12Z</time>
      </trkpt>
      <trkpt lat="47.87191" lon="2.11973">
        <ele>118</ele>
        <time>2014-01-26T08:54:16Z</time>
      </trkpt>
      <trkpt lat="47.87182" lon="2.11994">
        <ele>118</ele>
        <time>2014-01-26T08:54:20Z</time>
      </trkpt>
      <trkpt lat="47.87181" lon="2.12019">
        <ele>118</ele>
        <time>2014-01-26T08:54:24Z</time>
      </trkpt>
      <trkpt lat="47.87176" lon="2.12046">
        <ele>118</ele>
        <time>2014-01-26T08:54:28Z</time>
      </trkpt>
      <trkpt lat="47.87173" lon="2.12071">
        <ele>117</ele>
        <time>2014-01-26T08:54:32Z</time>
      </trkpt>
      <trkpt lat="47.87168" lon="2.121">
        <ele>116</ele>
        <time>2014-01-26T08:54:36Z</time>
      </trkpt>
      <trkpt lat="47.87156" lon="2.12129">
        <ele>114</ele>
        <time>2014-01-26T08:54:40Z</time>
      </trkpt>
      <trkpt lat="47.87148" lon="2.12164">
        <ele>112</ele>
        <time>2014-01-26T08:54:44Z</time>
      </trkpt>
      <trkpt lat="47.87136" lon="2.1221">
        <ele>109</ele>
        <time>2014-01-26T08:54:48Z</time>
      </trkpt>
      <trkpt lat="47.87138" lon="2.12265">
        <ele>108</ele>
        <time>2014-01-26T08:54:52Z</time>
      </trkpt>
      <trkpt lat="47.87131" lon="2.12311">
        <ele>109</ele>
        <time>2014-01-26T08:54:56Z</time>
      </trkpt>
      <trkpt lat="47.87122" lon="2.12345">
        <ele>110</ele>
        <time>2014-01-26T08:55:00Z</time>
      </trkpt>
      <trkpt lat="47.87112" lon="2.12372">
        <ele>111</ele>
        <time>2014-01-26T08:55:04Z</time>
      </trkpt>
      <trkpt lat="47.87103" lon="2.1239">
        <ele>111</ele>
        <time>2014-01-26T08:55:08Z</time>
      </trkpt>
      <trkpt lat="47.87095" lon="2.1241">
        <ele>112</ele>
        <time>2014-01-26T08:55:12Z</time>
      </trkpt>
      <trkpt lat="47.87084" lon="2.12432">
        <ele>113</ele>
        <time>2014-01-26T08:55:16Z</time>
      </trkpt>
      <trkpt lat="47.87079" lon="2.12454">
        <ele>114</ele>
        <time>2014-01-26T08:55:20Z</time>
      </trkpt>
      <trkpt lat="47.87069" lon="2.12472">
        <ele>114</ele>
        <time>2014-01-26T08:55:24Z</time>
      </trkpt>
      <trkpt lat="47.87063" lon="2.12488">
        <ele>113</ele>
        <time>2014-01-26T08:55:28Z</time>
      </trkpt>
      <trkpt lat="47.87059" lon="2.12503">
        <ele>113</ele>
        <time>2014-01-26T08:55:32Z</time>
      </trkpt>
      <trkpt lat="47.87051" lon="2.12526">
        <ele>113</ele>
        <time>2014-01-26T08:55:36Z</time>
      </trkpt>
      <trkpt lat="47.87047" lon="2.12539">
        <ele>114</ele>
        <time>2014-01-26T08:55:40Z</time>
      </trkpt>
      <trkpt lat="47.87039" lon="2.12558">
        <ele>113</ele>
        <time>2014-01-26T08:55:44Z</time>
      </trkpt>
      <trkpt lat="47.87033" lon="2.12567">
        <ele>114</ele>
        <time>2014-01-26T08:55:48Z</time>
      </trkpt>
      <trkpt lat="47.87021" lon="2.12566">
        <ele>113</ele>
        <time>2014-01-26T08:55:52Z</time>
      </trkpt>
      <trkpt lat="47.87006" lon="2.12557">
        <ele>113</ele>
        <time>2014-01-26T08:55:56Z</time>
      </trkpt>
      <trkpt lat="47.86987" lon="2.12545">
        <ele>113</ele>
        <time>2014-01-26T08:56:00Z</time>
      </trkpt>
      <trkpt lat="47.86966" lon="2.12539">
        <ele>113</ele>
        <time>2014-01-26T08:56:04Z</time>
      </trkpt>
      <trkpt lat="47.86945" lon="2.12531">
        <ele>113</ele>
        <time>2014-01-26T08:56:08Z</time>
      </trkpt>
      <trkpt lat="47.86933" lon="2.12522">
        <ele>113</ele>
        <time>2014-01-26T08:56:12Z</time>
      </trkpt>
      <trkpt lat="47.8691" lon="2.12509">
        <ele>113</ele>
        <time>2014-01-26T08:56:16Z</time>
      </trkpt>
      <trkpt lat="47.86897" lon="2.12499">
        <ele>112</ele>
        <time>2014-01-26T08:56:20Z</time>
      </trkpt>
      <trkpt lat="47.86866" lon="2.12484">
        <ele>112</ele>
        <time>2014-01-26T08:56:24Z</time>
      </trkpt>
      <trkpt lat="47.86847" lon="2.12478">
        <ele>111</ele>
        <time>2014-01-26T08:56:28Z</time>
      </trkpt>
      <trkpt lat="47.86826" lon="2.12465">
        <ele>111</ele>
        <time>2014-01-26T08:56:32Z</time>
      </trkpt>
      <trkpt lat="47.86805" lon="2.12452">
        <ele>110</ele>
        <time>2014-01-26T08:56:36Z</time>
      </trkpt>
      <trkpt lat="47.86783" lon="2.12442">
        <ele>109</ele>
        <time>2014-01-26T08:56:40Z</time>
      </trkpt>
      <trkpt lat="47.86766" lon="2.12434">
        <ele>109</ele>
        <time>2014-01-26T08:56:44Z</time>
      </trkpt>
      <trkpt lat="47.86758" lon="2.12434">
        <ele>109</ele>
        <time>2014-01-26T08:56:48Z</time>
      </trkpt>
      <trkpt lat="47.86755" lon="2.12449">
        <ele>109</ele>
        <time>2014-01-26T08:56:52Z</time>
      </trkpt>
      <trkpt lat="47.86754" lon="2.12469">
        <ele>109</ele>
        <time>2014-01-26T08:56:56Z</time>
      </trkpt>
      <trkpt lat="47.86752" lon="2.12492">
        <ele>109</ele>
        <time>2014-01-26T08:57:00Z</time>
      </trkpt>
      <trkpt lat="47.8675" lon="2.12509">
        <ele>109</ele>
        <time>2014-01-26T08:57:04Z</time>
      </trkpt>
      <trkpt lat="47.86751" lon="2.12526">
        <ele>108</ele>
        <time>2014-01-26T08:57:08Z</time>
      </trkpt>
      <trkpt lat="47.86746" lon="2.1255">
        <ele>109</ele>
        <time>2014-01-26T08:57:12Z</time>
      </trkpt>
      <trkpt lat="47.86745" lon="2.12569">
        <ele>109</ele>
        <time>2014-01-26T08:57:16Z</time>
      </trkpt>
      <trkpt lat="47.86729" lon="2.12574">
        <ele>109</ele>
        <time>2014-01-26T08:57:20Z</time>
      </trkpt>
      <trkpt lat="47.86717" lon="2.12576">
        <ele>108</ele>
        <time>2014-01-26T08:57:24Z</time>
      </trkpt>
      <trkpt lat="47.86715" lon="2.12581">
        <ele>108</ele>
        <time>2014-01-26T08:57:28Z</time>
      </trkpt>
      <trkpt lat="47.86714" lon="2.12598">
        <ele>108</ele>
        <time>2014-01-26T08:57:32Z</time>
      </trkpt>
      <trkpt lat="47.86707" lon="2.12616">
        <ele>108</ele>
        <time>2014-01-26T08:57:36Z</time>
      </trkpt>
      <trkpt lat="47.86704" lon="2.12638">
        <ele>108</ele>
        <time>2014-01-26T08:57:40Z</time>
      </trkpt>
      <trkpt lat="47.86698" lon="2.12662">
        <ele>108</ele>
        <time>2014-01-26T08:57:44Z</time>
      </trkpt>
      <trkpt lat="47.86692" lon="2.12688">
        <ele>108</ele>
        <time>2014-01-26T08:57:48Z</time>
      </trkpt>
      <trkpt lat="47.86682" lon="2.12712">
        <ele>108</ele>
        <time>2014-01-26T08:57:52Z</time>
      </trkpt>
      <trkpt lat="47.86673" lon="2.12729">
        <ele>109</ele>
        <time>2014-01-26T08:57:56Z</time>
      </trkpt>
      <trkpt lat="47.8667" lon="2.12754">
        <ele>109</ele>
        <time>2014-01-26T08:58:00Z</time>
      </trkpt>
      <trkpt lat="47.86659" lon="2.12773">
        <ele>109</ele>
        <time>2014-01-26T08:58:04Z</time>
      </trkpt>
      <trkpt lat="47.86651" lon="2.12786">
        <ele>109</ele>
        <time>2014-01-26T08:58:08Z</time>
      </trkpt>
      <trkpt lat="47.86644" lon="2.12809">
        <ele>109</ele>
        <time>2014-01-26T08:58:12Z</time>
      </trkpt>
      <trkpt lat="47.86631" lon="2.12832">
        <ele>109</ele>
        <time>2014-01-26T08:58:16Z</time>
      </trkpt>
      <trkpt lat="47.86625" lon="2.1285">
        <ele>109</ele>
        <time>2014-01-26T08:58:20Z</time>
      </trkpt>
      <trkpt lat="47.86614" lon="2.12864">
        <ele>109</ele>
        <time>2014-01-26T08:58:24Z</time>
      </trkpt>
      <trkpt lat="47.866" lon="2.12882">
        <ele>109</ele>
        <time>2014-01-26T08:58:28Z</time>
      </trkpt>
      <trkpt lat="47.86589" lon="2.12901">
        <ele>109</ele>
        <time>2014-01-26T08:58:32Z</time>
      </trkpt>
      <trkpt lat="47.86576" lon="2.12916">
        <ele>109</ele>
        <time>2014-01-26T08:58:36Z</time>
      </trkpt>
      <trkpt lat="47.86564" lon="2.12928">
        <ele>109</ele>
        <time>2014-01-26T08:58:40Z</time>
      </trkpt>
      <trkpt lat="47.86552" lon="2.1295">
        <ele>107</ele>
        <time>2014-01-26T08:58:44Z</time>
      </trkpt>
      <trkpt lat="47.86535" lon="2.12977">
        <ele>106</ele>
        <time>2014-01-26T08:58:48Z</time>
      </trkpt>
      <trkpt lat="47.86515" lon="2.13014">
        <ele>105</ele>
        <time>2014-01-26T08:58:52Z</time>
      </trkpt>
      <trkpt lat="47.86507" lon="2.13049">
        <ele>105</ele>
        <time>2014-01-26T08:58:56Z</time>
      </trkpt>
      <trkpt lat="47.86495" lon="2.1307">
        <ele>104</ele>
        <time>2014-01-26T08:59:00Z</time>
      </trkpt>
      <trkpt lat="47.86483" lon="2.13095">
        <ele>104</ele>
        <time>2014-01-26T08:59:04Z</time>
      </trkpt>
      <trkpt lat="47.86471" lon="2.13123">
        <ele>104</ele>
        <time>2014-01-26T08:59:08Z</time>
      </trkpt>
      <trkpt lat="47.86452" lon="2.13153">
        <ele>104</ele>
        <time>2014-01-26T08:59:12Z</time>
      </trkpt>
      <trkpt lat="47.86435" lon="2.13175">
        <ele>104</ele>
        <time>2014-01-26T08:59:16Z</time>
      </trkpt>
      <trkpt lat="47.86421" lon="2.13201">
        <ele>105</ele>
        <time>2014-01-26T08:59:20Z</time>
      </trkpt>
      <trkpt lat="47.86407" lon="2.1322">
        <ele>105</ele>
        <time>2014-01-26T08:59:24Z</time>
      </trkpt>
      <trkpt lat="47.86394" lon="2.13243">
        <ele>105</ele>
        <time>2014-01-26T08:59:28Z</time>
      </trkpt>
      <trkpt lat="47.86385" lon="2.13264">
        <ele>105</ele>
        <time>2014-01-26T08:59:32Z</time>
      </trkpt>
      <trkpt lat="47.86374" lon="2.13295">
        <ele>105</ele>
        <time>2014-01-26T08:59:36Z</time>
      </trkpt>
      <trkpt lat="47.86356" lon="2.13324">
        <ele>105</ele>
        <time>2014-01-26T08:59:40Z</time>
      </trkpt>
      <trkpt lat="47.86343" lon="2.13353">
        <ele>104</ele>
        <time>2014-01-26T08:59:44Z</time>
      </trkpt>
      <trkpt lat="47.86331" lon="2.1338">
        <ele>103</ele>
        <time>2014-01-26T08:59:48Z</time>
      </trkpt>
      <trkpt lat="47.86322" lon="2.13407">
        <ele>103</ele>
        <time>2014-01-26T08:59:52Z</time>
      </trkpt>
      <trkpt lat="47.86311" lon="2.13439">
        <ele>104</ele>
        <time>2014-01-26T08:59:56Z</time>
      </trkpt>
      <trkpt lat="47.86301" lon="2.13471">
        <ele>104</ele>
        <time>2014-01-26T09:00:00Z</time>
      </trkpt>
      <trkpt lat="47.86288" lon="2.13499">
        <ele>104</ele>
        <time>2014-01-26T09:00:04Z</time>
      </trkpt>
      <trkpt lat="47.86277" lon="2.13522">
        <ele>104</ele>
        <time>2014-01-26T09:00:08Z</time>
      </trkpt>
      <trkpt lat="47.8626" lon="2.13551">
        <ele>104</ele>
        <time>2014-01-26T09:00:12Z</time>
      </trkpt>
      <trkpt lat="47.86247" lon="2.13584">
        <ele>105</ele>
        <time>2014-01-26T09:00:16Z</time>
      </trkpt>
      <trkpt lat="47.86236" lon="2.13605">
        <ele>105</ele>
        <time>2014-01-26T09:00:20Z</time>
      </trkpt>
      <trkpt lat="47.8622" lon="2.13644">
        <ele>105</ele>
        <time>2014-01-26T09:00:24Z</time>
      </trkpt>
      <trkpt lat="47.86197" lon="2.13676">
        <ele>105</ele>
        <time>2014-01-26T09:00:28Z</time>
      </trkpt>
      <trkpt lat="47.86178" lon="2.13705">
        <ele>105</ele>
        <time>2014-01-26T09:00:32Z</time>
      </trkpt>
      <trkpt lat="47.86152" lon="2.13732">
        <ele>105</ele>
        <time>2014-01-26T09:00:36Z</time>
      </trkpt>
      <trkpt lat="47.86138" lon="2.13759">
        <ele>105</ele>
        <time>2014-01-26T09:00:40Z</time>
      </trkpt>
      <trkpt lat="47.8612" lon="2.13787">
        <ele>105</ele>
        <time>2014-01-26T09:00:44Z</time>
      </trkpt>
      <trkpt lat="47.86107" lon="2.13811">
        <ele>104</ele>
        <time>2014-01-26T09:00:48Z</time>
      </trkpt>
      <trkpt lat="47.86089" lon="2.13836">
        <ele>105</ele>
        <time>2014-01-26T09:00:52Z</time>
      </trkpt>
      <trkpt lat="47.86075" lon="2.13868">
        <ele>105</ele>
        <time>2014-01-26T09:00:56Z</time>
      </trkpt>
      <trkpt lat="47.86065" lon="2.13892">
        <ele>105</ele>
        <time>2014-01-26T09:01:00Z</time>
      </trkpt>
      <trkpt lat="47.86051" lon="2.13924">
        <ele>105</ele>
        <time>2014-01-26T09:01:04Z</time>
      </trkpt>
      <trkpt lat="47.86036" lon="2.13956">
        <ele>105</ele>
        <time>2014-01-26T09:01:08Z</time>
      </trkpt>
      <trkpt lat="47.86027" lon="2.13994">
        <ele>105</ele>
        <time>2014-01-26T09:01:12Z</time>
      </trkpt>
      <trkpt lat="47.86016" lon="2.14025">
        <ele>105</ele>
        <time>2014-01-26T09:01:16Z</time>
      </trkpt>
      <trkpt lat="47.86007" lon="2.1406">
        <ele>106</ele>
        <time>2014-01-26T09:01:20Z</time>
      </trkpt>
      <trkpt lat="47.85998" lon="2.1409">
        <ele>106</ele>
        <time>2014-01-26T09:01:24Z</time>
      </trkpt>
      <trkpt lat="47.85988" lon="2.14125">
        <ele>106</ele>
        <time>2014-01-26T09:01:28Z</time>
      </trkpt>
      <trkpt lat="47.85981" lon="2.14164">
        <ele>106</ele>
        <time>2014-01-26T09:01:32Z</time>
      </trkpt>
      <trkpt lat="47.85971" lon="2.14195">
        <ele>105</ele>
        <time>2014-01-26T09:01:36Z</time>
      </trkpt>
      <trkpt lat="47.85956" lon="2.14227">
        <ele>106</ele>
        <time>2014-01-26T09:01:40Z</time>
      </trkpt>
      <trkpt lat="47.85947" lon="2.14254">
        <ele>106</ele>
        <time>2014-01-26T09:01:44Z</time>
      </trkpt>
      <trkpt lat="47.85938" lon="2.14283">
        <ele>106</ele>
        <time>2014-01-26T09:01:48Z</time>
      </trkpt>
      <trkpt lat="47.85921" lon="2.14316">
        <ele>106</ele>
        <time>2014-01-26T09:01:52Z</time>
      </trkpt>
      <trkpt lat="47.85907" lon="2.14339">
        <ele>106</ele>
        <time>2014-01-26T09:01:56Z</time>
      </trkpt>
      <trkpt lat="47.85898" lon="2.14367">
        <ele>106</ele>
        <time>2014-01-26T09:02:00Z</time>
      </trkpt>
      <trkpt lat="47.85889" lon="2.14404">
        <ele>105</ele>
        <time>2014-01-26T09:02:04Z</time>
      </trkpt>
      <trkpt lat="47.85875" lon="2.14445">
        <ele>105</ele>
        <time>2014-01-26T09:02:08Z</time>
      </trkpt>
      <trkpt lat="47.85861" lon="2.14478">
        <ele>106</ele>
        <time>2014-01-26T09:02:12Z</time>
      </trkpt>
      <trkpt lat="47.85851" lon="2.14505">
        <ele>106</ele>
        <time>2014-01-26T09:02:16Z</time>
      </trkpt>
      <trkpt lat="47.8584" lon="2.14543">
        <ele>106</ele>
        <time>2014-01-26T09:02:20Z</time>
      </trkpt>
      <trkpt lat="47.85834" lon="2.14581">
        <ele>106</ele>
        <time>2014-01-26T09:02:24Z</time>
      </trkpt>
      <trkpt lat="47.85827" lon="2.14613">
        <ele>106</ele>
        <time>2014-01-26T09:02:28Z</time>
      </trkpt>
      <trkpt lat="47.8582" lon="2.14645">
        <ele>106</ele>
        <time>2014-01-26T09:02:32Z</time>
      </trkpt>
      <trkpt lat="47.85812" lon="2.14686">
        <ele>106</ele>
        <time>2014-01-26T09:02:36Z</time>
      </trkpt>
      <trkpt lat="47.85803" lon="2.14717">
        <ele>107</ele>
        <time>2014-01-26T09:02:40Z</time>
      </trkpt>
      <trkpt lat="47.85797" lon="2.14752">
        <ele>107</ele>
        <time>2014-01-26T09:02:44Z</time>
      </trkpt>
      <trkpt lat="47.8579" lon="2.14792">
        <ele>107</ele>
        <time>2014-01-26T09:02:48Z</time>
      </trkpt>
      <trkpt lat="47.85783" lon="2.1482">
        <ele>107</ele>
        <time>2014-01-26T09:02:52Z</time>
      </trkpt>
      <trkpt lat="47.85774" lon="2.14853">
        <ele>106</ele>
        <time>2014-01-26T09:02:56Z</time>
      </trkpt>
      <trkpt lat="47.85769" lon="2.14892">
        <ele>106</ele>
        <time>2014-01-26T09:03:00Z</time>
      </trkpt>
      <trkpt lat="47.85758" lon="2.14929">
        <ele>105</ele>
        <time>2014-01-26T09:03:04Z</time>
      </trkpt>
      <trkpt lat="47.85745" lon="2.14958">
        <ele>106</ele>
        <time>2014-01-26T09:03:08Z</time>
      </trkpt>
      <trkpt lat="47.85743" lon="2.14988">
        <ele>106</ele>
        <time>2014-01-26T09:03:12Z</time>
      </trkpt>
      <trkpt lat="47.85742" lon="2.15024">
        <ele>106</ele>
        <time>2014-01-26T09:03:16Z</time>
      </trkpt>
      <trkpt lat="47.85735" lon="2.15051">
        <ele>106</ele>
        <time>2014-01-26T09:03:20Z</time>
      </trkpt>
      <trkpt lat="47.8573" lon="2.15076">
        <ele>105</ele>
        <time>2014-01-26T09:03:24Z</time>
      </trkpt>
      <trkpt lat="47.85719" lon="2.15107">
        <ele>106</ele>
        <time>2014-01-26T09:03:28Z</time>
      </trkpt>
      <trkpt lat="47.8571" lon="2.15139">
        <ele>106</ele>
        <time>2014-01-26T09:03:32Z</time>
      </trkpt>
      <trkpt lat="47.85703" lon="2.15179">
        <ele>105</ele>
        <time>2014-01-26T09:03:36Z</time>
      </trkpt>
      <trkpt lat="47.85694" lon="2.15213">
        <ele>105</ele>
        <time>2014-01-26T09:03:40Z</time>
      </trkpt>
      <trkpt lat="47.85691" lon="2.15248">
        <ele>105</ele>
        <time>2014-01-26T09:03:44Z</time>
      </trkpt>
      <trkpt lat="47.85683" lon="2.15275">
        <ele>105</ele>
        <time>2014-01-26T09:03:48Z</time>
      </trkpt>
      <trkpt lat="47.85677" lon="2.15304">
        <ele>105</ele>
        <time>2014-01-26T09:03:52Z</time>
      </trkpt>
      <trkpt lat="47.85667" lon="2.15337">
        <ele>105</ele>
        <time>2014-01-26T09:03:56Z</time>
      </trkpt>
      <trkpt lat="47.85667" lon="2.1536">
        <ele>105</ele>
        <time>2014-01-26T09:04:00Z</time>
      </trkpt>
      <trkpt lat="47.85659" lon="2.154">
        <ele>105</ele>
        <time>2014-01-26T09:04:04Z</time>
      </trkpt>
      <trkpt lat="47.85655" lon="2.15444">
        <ele>105</ele>
        <time>2014-01-26T09:04:08Z</time>
      </trkpt>
      <trkpt lat="47.85641" lon="2.15481">
        <ele>106</ele>
        <time>2014-01-26T09:04:12Z</time>
      </trkpt>
      <trkpt lat="47.85635" lon="2.15513">
        <ele>105</ele>
        <time>2014-01-26T09:04:16Z</time>
      </trkpt>
      <trkpt lat="47.85634" lon="2.15536">
        <ele>105</ele>
        <time>2014-01-26T09:04:20Z</time>
      </trkpt>
      <trkpt lat="47.85626" lon="2.15565">
        <ele>106</ele>
        <time>2014-01-26T09:04:24Z</time>
      </trkpt>
      <trkpt lat="47.85627" lon="2.15601">
        <ele>106</ele>
        <time>2014-01-26T09:04:28Z</time>
      </trkpt>
      <trkpt lat="47.85622" lon="2.15626">
        <ele>106</ele>
        <time>2014-01-26T09:04:32Z</time>
      </trkpt>
      <trkpt lat="47.85616" lon="2.15652">
        <ele>105</ele>
        <time>2014-01-26T09:04:36Z</time>
      </trkpt>
      <trkpt lat="47.85609" lon="2.15683">
        <ele>106</ele>
        <time>2014-01-26T09:04:40Z</time>
      </trkpt>
      <trkpt lat="47.85604" lon="2.15719">
        <ele>106</ele>
        <time>2014-01-26T09:04:44Z</time>
      </trkpt>
      <trkpt lat="47.85593" lon="2.15764">
        <ele>107</ele>
        <time>2014-01-26T09:04:48Z</time>
      </trkpt>
      <trkpt lat="47.85585" lon="2.1579">
        <ele>108</ele>
        <time>2014-01-26T09:04:52Z</time>
      </trkpt>
      <trkpt lat="47.85582" lon="2.15817">
        <ele>108</ele>
        <time>2014-01-26T09:04:56Z</time>
      </trkpt>
      <trkpt lat="47.85579" lon="2.15845">
        <ele>107</ele>
        <time>2014-01-26T09:05:00Z</time>
      </trkpt>
      <trkpt lat="47.8558" lon="2.15875">
        <ele>107</ele>
        <time>2014-01-26T09:05:04Z</time>
      </trkpt>
      <trkpt lat="47.85574" lon="2.1591">
        <ele>107</ele>
        <time>2014-01-26T09:05:08Z</time>
      </trkpt>
      <trkpt lat="47.85569" lon="2.15933">
        <ele>107</ele>
        <time>2014-01-26T09:05:12Z</time>
      </trkpt>
      <trkpt lat="47.85556" lon="2.15959">
        <ele>107</ele>
        <time>2014-01-26T09:05:16Z</time>
      </trkpt>
      <trkpt lat="47.85542" lon="2.15993">
        <ele>107</ele>
        <time>2014-01-26T09:05:20Z</time>
      </trkpt>
      <trkpt lat="47.85537" lon="2.16035">
        <ele>107</ele>
        <time>2014-01-26T09:05:24Z</time>
      </trkpt>
      <trkpt lat="47.85532" lon="2.16061">
        <ele>107</ele>
        <time>2014-01-26T09:05:28Z</time>
      </trkpt>
      <trkpt lat="47.85523" lon="2.16085">
        <ele>107</ele>
        <time>2014-01-26T09:05:32Z</time>
      </trkpt>
      <trkpt lat="47.85517" lon="2.16113">
        <ele>106</ele>
        <time>2014-01-26T09:05:36Z</time>
      </trkpt>
      <trkpt lat="47.85513" lon="2.16155">
        <ele>107</ele>
        <time>2014-01-26T09:05:40Z</time>
      </trkpt>
      <trkpt lat="47.85502" lon="2.16178">
        <ele>108</ele>
        <time>2014-01-26T09:05:44Z</time>
      </trkpt>
      <trkpt lat="47.85493" lon="2.16201">
        <ele>107</ele>
        <time>2014-01-26T09:05:48Z</time>
      </trkpt>
      <trkpt lat="47.85485" lon="2.16236">
        <ele>107</ele>
        <time>2014-01-26T09:05:52Z</time>
      </trkpt>
      <trkpt lat="47.85473" lon="2.16271">
        <ele>106</ele>
        <time>2014-01-26T09:05:56Z</time>
      </trkpt>
      <trkpt lat="47.85461" lon="2.16311">
        <ele>107</ele>
        <time>2014-01-26T09:06:00Z</time>
      </trkpt>
      <trkpt lat="47.85441" lon="2.16339">
        <ele>106</ele>
        <time>2014-01-26T09:06:04Z</time>
      </trkpt>
      <trkpt lat="47.85431" lon="2.16367">
        <ele>106</ele>
        <time>2014-01-26T09:06:08Z</time>
      </trkpt>
      <trkpt lat="47.85417" lon="2.16401">
        <ele>106</ele>
        <time>2014-01-26T09:06:12Z</time>
      </trkpt>
      <trkpt lat="47.85398" lon="2.16425">
        <ele>106</ele>
        <time>2014-01-26T09:06:16Z</time>
      </trkpt>
      <trkpt lat="47.85381" lon="2.16447">
        <ele>106</ele>
        <time>2014-01-26T09:06:20Z</time>
      </trkpt>
      <trkpt lat="47.85369" lon="2.1647">
        <ele>106</ele>
        <time>2014-01-26T09:06:24Z</time>
      </trkpt>
      <trkpt lat="47.85351" lon="2.16492">
        <ele>106</ele>
        <time>2014-01-26T09:06:28Z</time>
      </trkpt>
      <trkpt lat="47.85338" lon="2.16513">
        <ele>106</ele>
        <time>2014-01-26T09:06:32Z</time>
      </trkpt>
      <trkpt lat="47.85326" lon="2.16533">
        <ele>106</ele>
        <time>2014-01-26T09:06:36Z</time>
      </trkpt>
      <trkpt lat="47.85316" lon="2.16558">
        <ele>106</ele>
        <time>2014-01-26T09:06:40Z</time>
      </trkpt>
      <trkpt lat="47.85298" lon="2.16582">
        <ele>107</ele>
        <time>2014-01-26T09:06:44Z</time>
      </trkpt>
      <trkpt lat="47.85288" lon="2.16602">
        <ele>107</ele>
        <time>2014-01-26T09:06:48Z</time>
      </trkpt>
      <trkpt lat="47.85273" lon="2.16622">
        <ele>107</ele>
        <time>2014-01-26T09:06:52Z</time>
      </trkpt>
      <trkpt lat="47.85255" lon="2.16646">
        <ele>107</ele>
        <time>2014-01-26T09:06:56Z</time>
      </trkpt>
      <trkpt lat="47.85239" lon="2.16675">
        <ele>108</ele>
        <time>2014-01-26T09:07:00Z</time>
      </trkpt>
      <trkpt lat="47.85224" lon="2.167">
        <ele>107</ele>
        <time>2014-01-26T09:07:04Z</time>
      </trkpt>
      <trkpt lat="47.85215" lon="2.16718">
        <ele>108</ele>
        <time>2014-01-26T09:07:08Z</time>
      </trkpt>
      <trkpt lat="47.85198" lon="2.16727">
        <ele>108</ele>
        <time>2014-01-26T09:07:12Z</time>
      </trkpt>
      <trkpt lat="47.85183" lon="2.16752">
        <ele>107</ele>
        <time>2014-01-26T09:07:16Z</time>
      </trkpt>
      <trkpt lat="47.85174" lon="2.16774">
        <ele>108</ele>
        <time>2014-01-26T09:07:20Z</time>
      </trkpt>
      <trkpt lat="47.8517" lon="2.16805">
        <ele>108</ele>
        <time>2014-01-26T09:07:24Z</time>
      </trkpt>
      <trkpt lat="47.85164" lon="2.1683">
        <ele>109</ele>
        <time>2014-01-26T09:07:28Z</time>
      </trkpt>
      <trkpt lat="47.85146" lon="2.16858">
        <ele>108</ele>
        <time>2014-01-26T09:07:32Z</time>
      </trkpt>
      <trkpt lat="47.85136" lon="2.16885">
        <ele>108</ele>
        <time>2014-01-26T09:07:36Z</time>
      </trkpt>
      <trkpt lat="47.85124" lon="2.16924">
        <ele>108</ele>
        <time>2014-01-26T09:07:40Z</time>
      </trkpt>
      <trkpt lat="47.85105" lon="2.16951">
        <ele>108</ele>
        <time>2014-01-26T09:07:44Z</time>
      </trkpt>
      <trkpt lat="47.85089" lon="2.16977">
        <ele>108</ele>
        <time>2014-01-26T09:07:48Z</time>
      </trkpt>
      <trkpt lat="47.85076" lon="2.17006">
        <ele>108</ele>
        <time>2014-01-26T09:07:52Z</time>
      </trkpt>
      <trkpt lat="47.8506" lon="2.17028">
        <ele>108</ele>
        <time>2014-01-26T09:07:56Z</time>
      </trkpt>
      <trkpt lat="47.85048" lon="2.17056">
        <ele>108</ele>
        <time>2014-01-26T09:08:00Z</time>
      </trkpt>
      <trkpt lat="47.85032" lon="2.17097">
        <ele>107</ele>
        <time>2014-01-26T09:08:04Z</time>
      </trkpt>
      <trkpt lat="47.85019" lon="2.17126">
        <ele>107</ele>
        <time>2014-01-26T09:08:08Z</time>
      </trkpt>
      <trkpt lat="47.85006" lon="2.17163">
        <ele>107</ele>
        <time>2014-01-26T09:08:12Z</time>
      </trkpt>
      <trkpt lat="47.8499" lon="2.17188">
        <ele>107</ele>
        <time>2014-01-26T09:08:16Z</time>
      </trkpt>
      <trkpt lat="47.8497" lon="2.17217">
        <ele>108</ele>
        <time>2014-01-26T09:08:20Z</time>
      </trkpt>
      <trkpt lat="47.84949" lon="2.1724">
        <ele>108</ele>
        <time>2014-01-26T09:08:24Z</time>
      </trkpt>
      <trkpt lat="47.84929" lon="2.17263">
        <ele>108</ele>
        <time>2014-01-26T09:08:28Z</time>
      </trkpt>
      <trkpt lat="47.84912" lon="2.17291">
        <ele>108</ele>
        <time>2014-01-26T09:08:32Z</time>
      </trkpt>
      <trkpt lat="47.84896" lon="2.17314">
        <ele>108</ele>
        <time>2014-01-26T09:08:36Z</time>
      </trkpt>
      <trkpt lat="47.84884" lon="2.17334">
        <ele>108</ele>
        <time>2014-01-26T09:08:40Z</time>
      </trkpt>
      <trkpt lat="47.84877" lon="2.17367">
        <ele>108</ele>
        <time>2014-01-26T09:08:44Z</time>
      </trkpt>
      <trkpt lat="47.84862" lon="2.17399">
        <ele>109</ele>
        <time>2014-01-26T09:08:48Z</time>
      </trkpt>
      <trkpt lat="47.84851" lon="2.17433">
        <ele>109</ele>
        <time>2014-01-26T09:08:52Z</time>
      </trkpt>
      <trkpt lat="47.84846" lon="2.1746">
        <ele>110</ele>
        <time>2014-01-26T09:08:56Z</time>
      </trkpt>
      <trkpt lat="47.84837" lon="2.17493">
        <ele>111</ele>
        <time>2014-01-26T09:09:00Z</time>
      </trkpt>
      <trkpt lat="47.84832" lon="2.17517">
        <ele>113</ele>
        <time>2014-01-26T09:09:04Z</time>
      </trkpt>
      <trkpt lat="47.84828" lon="2.1754">
        <ele>113</ele>
        <time>2014-01-26T09:09:08Z</time>
      </trkpt>
      <trkpt lat="47.84823" lon="2.17561">
        <ele>112</ele>
        <time>2014-01-26T09:09:12Z</time>
      </trkpt>
      <trkpt lat="47.84819" lon="2.17584">
        <ele>112</ele>
        <time>2014-01-26T09:09:16Z</time>
      </trkpt>
      <trkpt lat="47.84816" lon="2.17606">
        <ele>112</ele>
        <time>2014-01-26T09:09:20Z</time>
      </trkpt>
      <trkpt lat="47.84816" lon="2.17631">
        <ele>112</ele>
        <time>2014-01-26T09:09:24Z</time>
      </trkpt>
      <trkpt lat="47.84815" lon="2.17654">
        <ele>112</ele>
        <time>2014-01-26T09:09:28Z</time>
      </trkpt>
      <trkpt lat="47.84812" lon="2.17678">
        <ele>112</ele>
        <time>2014-01-26T09:09:32Z</time>
      </trkpt>
      <trkpt lat="47.8481" lon="2.17698">
        <ele>112</ele>
        <time>2014-01-26T09:09:36Z</time>
      </trkpt>
      <trkpt lat="47.84807" lon="2.17718">
        <ele>112</ele>
        <time>2014-01-26T09:09:40Z</time>
      </trkpt>
      <trkpt lat="47.84805" lon="2.17739">
        <ele>112</ele>
        <time>2014-01-26T09:09:44Z</time>
      </trkpt>
      <trkpt lat="47.84803" lon="2.1776">
        <ele>112</ele>
        <time>2014-01-26T09:09:48Z</time>
      </trkpt>
      <trkpt lat="47.84802" lon="2.17781">
        <ele>113</ele>
        <time>2014-01-26T09:09:52Z</time>
      </trkpt>
      <trkpt lat="47.84799" lon="2.17803">
        <ele>113</ele>
        <time>2014-01-26T09:09:56Z</time>
      </trkpt>
      <trkpt lat="47.848" lon="2.17821">
        <ele>113</ele>
        <time>2014-01-26T09:10:00Z</time>
      </trkpt>
      <trkpt lat="47.84794" lon="2.17839">
        <ele>113</ele>
        <time>2014-01-26T09:10:04Z</time>
      </trkpt>
      <trkpt lat="47.84783" lon="2.17862">
        <ele>113</ele>
        <time>2014-01-26T09:10:08Z</time>
      </trkpt>
      <trkpt lat="47.84776" lon="2.17876">
        <ele>113</ele>
        <time>2014-01-26T09:10:12Z</time>
      </trkpt>
      <trkpt lat="47.84765" lon="2.17885">
        <ele>113</ele>
        <time>2014-01-26T09:10:16Z</time>
      </trkpt>
      <trkpt lat="47.84758" lon="2.179">
        <ele>113</ele>
        <time>2014-01-26T09:10:20Z</time>
      </trkpt>
      <trkpt lat="47.8475" lon="2.17914">
        <ele>112</ele>
        <time>2014-01-26T09:10:24Z</time>
      </trkpt>
      <trkpt lat="47.84743" lon="2.17931">
        <ele>113</ele>
        <time>2014-01-26T09:10:28Z</time>
      </trkpt>
      <trkpt lat="47.84739" lon="2.17943">
        <ele>112</ele>
        <time>2014-01-26T09:10:32Z</time>
      </trkpt>
      <trkpt lat="47.84729" lon="2.1796">
        <ele>111</ele>
        <time>2014-01-26T09:10:36Z</time>
      </trkpt>
      <trkpt lat="47.84721" lon="2.17985">
        <ele>109</ele>
        <time>2014-01-26T09:10:40Z</time>
      </trkpt>
      <trkpt lat="47.84713" lon="2.18007">
        <ele>108</ele>
        <time>2014-01-26T09:10:44Z</time>
      </trkpt>
      <trkpt lat="47.84711" lon="2.18015">
        <ele>108</ele>
        <time>2014-01-26T09:16:48Z</time>
      </trkpt>
      <trkpt lat="47.84709" lon="2.18024">
        <ele>108</ele>
        <time>2014-01-26T09:16:52Z</time>
      </trkpt>
      <trkpt lat="47.84706" lon="2.1803">
        <ele>108</ele>
        <time>2014-01-26T09:16:56Z</time>
      </trkpt>
      <trkpt lat="47.84698" lon="2.18047">
        <ele>108</ele>
        <time>2014-01-26T09:17:00Z</time>
      </trkpt>
      <trkpt lat="47.84691" lon="2.18064">
        <ele>108</ele>
        <time>2014-01-26T09:17:04Z</time>
      </trkpt>
      <trkpt lat="47.84686" lon="2.18077">
        <ele>108</ele>
        <time>2014-01-26T09:17:08Z</time>
      </trkpt>
      <trkpt lat="47.84681" lon="2.18099">
        <ele>108</ele>
        <time>2014-01-26T09:17:12Z</time>
      </trkpt>
      <trkpt lat="47.84672" lon="2.18119">
        <ele>109</ele>
        <time>2014-01-26T09:17:16Z</time>
      </trkpt>
      <trkpt lat="47.84667" lon="2.18136">
        <ele>108</ele>
        <time>2014-01-26T09:17:20Z</time>
      </trkpt>
      <trkpt lat="47.84661" lon="2.18152">
        <ele>108</ele>
        <time>2014-01-26T09:17:24Z</time>
      </trkpt>
      <trkpt lat="47.84656" lon="2.18167">
        <ele>108</ele>
        <time>2014-01-26T09:17:28Z</time>
      </trkpt>
      <trkpt lat="47.8465" lon="2.18182">
        <ele>108</ele>
        <time>2014-01-26T09:17:32Z</time>
      </trkpt>
      <trkpt lat="47.84642" lon="2.18196">
        <ele>110</ele>
        <time>2014-01-26T09:17:36Z</time>
      </trkpt>
      <trkpt lat="47.84632" lon="2.18214">
        <ele>112</ele>
        <time>2014-01-26T09:17:40Z</time>
      </trkpt>
      <trkpt lat="47.84626" lon="2.18232">
        <ele>113</ele>
        <time>2014-01-26T09:17:44Z</time>
      </trkpt>
      <trkpt lat="47.84621" lon="2.18244">
        <ele>113</ele>
        <time>2014-01-26T09:17:48Z</time>
      </trkpt>
      <trkpt lat="47.84618" lon="2.18261">
        <ele>113</ele>
        <time>2014-01-26T09:17:52Z</time>
      </trkpt>
      <trkpt lat="47.84617" lon="2.18277">
        <ele>113</ele>
        <time>2014-01-26T09:17:56Z</time>
      </trkpt>
      <trkpt lat="47.84614" lon="2.18295">
        <ele>113</ele>
        <time>2014-01-26T09:18:00Z</time>
      </trkpt>
      <trkpt lat="47.84613" lon="2.18311">
        <ele>114</ele>
        <time>2014-01-26T09:18:04Z</time>
      </trkpt>
      <trkpt lat="47.84611" lon="2.1833">
        <ele>114</ele>
        <time>2014-01-26T09:18:08Z</time>
      </trkpt>
      <trkpt lat="47.84606" lon="2.18355">
        <ele>114</ele>
        <time>2014-01-26T09:18:12Z</time>
      </trkpt>
      <trkpt lat="47.84604" lon="2.18376">
        <ele>114</ele>
        <time>2014-01-26T09:18:16Z</time>
      </trkpt>
      <trkpt lat="47.846" lon="2.18402">
        <ele>114</ele>
        <time>2014-01-26T09:18:20Z</time>
      </trkpt>
      <trkpt lat="47.84597" lon="2.18427">
        <ele>113</ele>
        <time>2014-01-26T09:18:24Z</time>
      </trkpt>
      <trkpt lat="47.84593" lon="2.18458">
        <ele>113</ele>
        <time>2014-01-26T09:18:28Z</time>
      </trkpt>
      <trkpt lat="47.84589" lon="2.18483">
        <ele>113</ele>
        <time>2014-01-26T09:18:32Z</time>
      </trkpt>
      <trkpt lat="47.84588" lon="2.18507">
        <ele>113</ele>
        <time>2014-01-26T09:18:36Z</time>
      </trkpt>
      <trkpt lat="47.84585" lon="2.18529">
        <ele>113</ele>
        <time>2014-01-26T09:18:40Z</time>
      </trkpt>
      <trkpt lat="47.84587" lon="2.18551">
        <ele>113</ele>
        <time>2014-01-26T09:18:44Z</time>
      </trkpt>
      <trkpt lat="47.84587" lon="2.18578">
        <ele>113</ele>
        <time>2014-01-26T09:18:48Z</time>
      </trkpt>
      <trkpt lat="47.84588" lon="2.18603">
        <ele>113</ele>
        <time>2014-01-26T09:18:52Z</time>
      </trkpt>
      <trkpt lat="47.84584" lon="2.18631">
        <ele>113</ele>
        <time>2014-01-26T09:18:56Z</time>
      </trkpt>
      <trkpt lat="47.84584" lon="2.18662">
        <ele>113</ele>
        <time>2014-01-26T09:19:00Z</time>
      </trkpt>
      <trkpt lat="47.84582" lon="2.18688">
        <ele>113</ele>
        <time>2014-01-26T09:19:04Z</time>
      </trkpt>
      <trkpt lat="47.8458" lon="2.18711">
        <ele>113</ele>
        <time>2014-01-26T09:19:08Z</time>
      </trkpt>
      <trkpt lat="47.8458" lon="2.18734">
        <ele>113</ele>
        <time>2014-01-26T09:19:12Z</time>
      </trkpt>
      <trkpt lat="47.84578" lon="2.18758">
        <ele>113</ele>
        <time>2014-01-26T09:19:16Z</time>
      </trkpt>
      <trkpt lat="47.84577" lon="2.18781">
        <ele>113</ele>
        <time>2014-01-26T09:19:20Z</time>
      </trkpt>
      <trkpt lat="47.84574" lon="2.18807">
        <ele>114</ele>
        <time>2014-01-26T09:19:24Z</time>
      </trkpt>
      <trkpt lat="47.84574" lon="2.18833">
        <ele>114</ele>
        <time>2014-01-26T09:19:28Z</time>
      </trkpt>
      <trkpt lat="47.84574" lon="2.18857">
        <ele>114</ele>
        <time>2014-01-26T09:19:32Z</time>
      </trkpt>
      <trkpt lat="47.84573" lon="2.18882">
        <ele>114</ele>
        <time>2014-01-26T09:19:36Z</time>
      </trkpt>
      <trkpt lat="47.84575" lon="2.18905">
        <ele>113</ele>
        <time>2014-01-26T09:19:40Z</time>
      </trkpt>
      <trkpt lat="47.84577" lon="2.18929">
        <ele>113</ele>
        <time>2014-01-26T09:19:44Z</time>
      </trkpt>
      <trkpt lat="47.84578" lon="2.18956">
        <ele>113</ele>
        <time>2014-01-26T09:19:48Z</time>
      </trkpt>
      <trkpt lat="47.84579" lon="2.18984">
        <ele>114</ele>
        <time>2014-01-26T09:19:52Z</time>
      </trkpt>
      <trkpt lat="47.84584" lon="2.19011">
        <ele>113</ele>
        <time>2014-01-26T09:19:56Z</time>
      </trkpt>
      <trkpt lat="47.84584" lon="2.19042">
        <ele>113</ele>
        <time>2014-01-26T09:20:00Z</time>
      </trkpt>
      <trkpt lat="47.84587" lon="2.1907">
        <ele>114</ele>
        <time>2014-01-26T09:20:04Z</time>
      </trkpt>
      <trkpt lat="47.84589" lon="2.191">
        <ele>113</ele>
        <time>2014-01-26T09:20:08Z</time>
      </trkpt>
      <trkpt lat="47.8459" lon="2.19132">
        <ele>114</ele>
        <time>2014-01-26T09:20:12Z</time>
      </trkpt>
      <trkpt lat="47.84591" lon="2.19159">
        <ele>113</ele>
        <time>2014-01-26T09:20:16Z</time>
      </trkpt>
      <trkpt lat="47.84592" lon="2.19187">
        <ele>114</ele>
        <time>2014-01-26T09:20:20Z</time>
      </trkpt>
      <trkpt lat="47.84594" lon="2.19218">
        <ele>113</ele>
        <time>2014-01-26T09:20:24Z</time>
      </trkpt>
      <trkpt lat="47.84598" lon="2.1925">
        <ele>113</ele>
        <time>2014-01-26T09:20:28Z</time>
      </trkpt>
      <trkpt lat="47.84599" lon="2.19279">
        <ele>113</ele>
        <time>2014-01-26T09:20:32Z</time>
      </trkpt>
      <trkpt lat="47.84603" lon="2.19308">
        <ele>113</ele>
        <time>2014-01-26T09:20:36Z</time>
      </trkpt>
      <trkpt lat="47.84606" lon="2.1934">
        <ele>113</ele>
        <time>2014-01-26T09:20:40Z</time>
      </trkpt>
      <trkpt lat="47.84614" lon="2.19366">
        <ele>113</ele>
        <time>2014-01-26T09:20:44Z</time>
      </trkpt>
      <trkpt lat="47.84618" lon="2.19394">
        <ele>113</ele>
        <time>2014-01-26T09:20:48Z</time>
      </trkpt>
      <trkpt lat="47.84626" lon="2.19425">
        <ele>113</ele>
        <time>2014-01-26T09:20:52Z</time>
      </trkpt>
      <trkpt lat="47.84632" lon="2.19458">
        <ele>113</ele>
        <time>2014-01-26T09:20:56Z</time>
      </trkpt>
      <trkpt lat="47.8464" lon="2.1949">
        <ele>113</ele>
        <time>2014-01-26T09:21:00Z</time>
      </trkpt>
      <trkpt lat="47.84646" lon="2.1952">
        <ele>114</ele>
        <time>2014-01-26T09:21:04Z</time>
      </trkpt>
      <trkpt lat="47.8465" lon="2.19552">
        <ele>114</ele>
        <time>2014-01-26T09:21:08Z</time>
      </trkpt>
      <trkpt lat="47.84657" lon="2.19578">
        <ele>113</ele>
        <time>2014-01-26T09:21:12Z</time>
      </trkpt>
      <trkpt lat="47.84662" lon="2.19608">
        <ele>114</ele>
        <time>2014-01-26T09:21:16Z</time>
      </trkpt>
      <trkpt lat="47.84665" lon="2.19638">
        <ele>114</ele>
        <time>2014-01-26T09:21:20Z</time>
      </trkpt>
      <trkpt lat="47.84673" lon="2.19668">
        <ele>113</ele>
        <time>2014-01-26T09:21:24Z</time>
      </trkpt>
      <trkpt lat="47.8468" lon="2.19698">
        <ele>114</ele>
        <time>2014-01-26T09:21:28Z</time>
      </trkpt>
      <trkpt lat="47.84686" lon="2.19731">
        <ele>114</ele>
        <time>2014-01-26T09:21:32Z</time>
      </trkpt>
      <trkpt lat="47.84692" lon="2.1976">
        <ele>114</ele>
        <time>2014-01-26T09:21:36Z</time>
      </trkpt>
      <trkpt lat="47.84698" lon="2.19789">
        <ele>114</ele>
        <time>2014-01-26T09:21:40Z</time>
      </trkpt>
      <trkpt lat="47.84707" lon="2.19826">
        <ele>114</ele>
        <time>2014-01-26T09:21:44Z</time>
      </trkpt>
      <trkpt lat="47.84714" lon="2.19856">
        <ele>114</ele>
        <time>2014-01-26T09:21:48Z</time>
      </trkpt>
      <trkpt lat="47.84721" lon="2.19886">
        <ele>114</ele>
        <time>2014-01-26T09:21:52Z</time>
      </trkpt>
      <trkpt lat="47.84726" lon="2.19916">
        <ele>114</ele>
        <time>2014-01-26T09:21:56Z</time>
      </trkpt>
      <trkpt lat="47.84733" lon="2.19944">
        <ele>114</ele>
        <time>2014-01-26T09:22:00Z</time>
      </trkpt>
      <trkpt lat="47.8474" lon="2.19978">
        <ele>114</ele>
        <time>2014-01-26T09:22:04Z</time>
      </trkpt>
      <trkpt lat="47.84748" lon="2.20003">
        <ele>114</ele>
        <time>2014-01-26T09:22:08Z</time>
      </trkpt>
      <trkpt lat="47.84759" lon="2.20029">
        <ele>112</ele>
        <time>2014-01-26T09:22:12Z</time>
      </trkpt>
      <trkpt lat="47.84768" lon="2.20064">
        <ele>110</ele>
        <time>2014-01-26T09:22:16Z</time>
      </trkpt>
      <trkpt lat="47.84776" lon="2.20101">
        <ele>109</ele>
        <time>2014-01-26T09:22:20Z</time>
      </trkpt>
      <trkpt lat="47.84798" lon="2.20106">
        <ele>109</ele>
        <time>2014-01-26T09:22:24Z</time>
      </trkpt>
      <trkpt lat="47.84817" lon="2.20101">
        <ele>110</ele>
        <time>2014-01-26T09:22:28Z</time>
      </trkpt>
      <trkpt lat="47.84839" lon="2.20099">
        <ele>110</ele>
        <time>2014-01-26T09:22:32Z</time>
      </trkpt>
      <trkpt lat="47.84857" lon="2.2012">
        <ele>109</ele>
        <time>2014-01-26T09:22:36Z</time>
      </trkpt>
      <trkpt lat="47.8487" lon="2.20142">
        <ele>109</ele>
        <time>2014-01-26T09:22:40Z</time>
      </trkpt>
      <trkpt lat="47.84883" lon="2.20169">
        <ele>109</ele>
        <time>2014-01-26T09:22:44Z</time>
      </trkpt>
      <trkpt lat="47.84898" lon="2.2019">
        <ele>110</ele>
        <time>2014-01-26T09:22:48Z</time>
      </trkpt>
      <trkpt lat="47.8491" lon="2.20217">
        <ele>110</ele>
        <time>2014-01-26T09:22:52Z</time>
      </trkpt>
      <trkpt lat="47.84922" lon="2.20245">
        <ele>110</ele>
        <time>2014-01-26T09:22:56Z</time>
      </trkpt>
      <trkpt lat="47.84936" lon="2.20273">
        <ele>110</ele>
        <time>2014-01-26T09:23:00Z</time>
      </trkpt>
      <trkpt lat="47.8495" lon="2.20292">
        <ele>109</ele>
        <time>2014-01-26T09:23:04Z</time>
      </trkpt>
      <trkpt lat="47.84965" lon="2.20306">
        <ele>109</ele>
        <time>2014-01-26T09:23:08Z</time>
      </trkpt>
      <trkpt lat="47.84978" lon="2.20342">
        <ele>109</ele>
        <time>2014-01-26T09:23:12Z</time>
      </trkpt>
      <trkpt lat="47.84991" lon="2.20363">
        <ele>109</ele>
        <time>2014-01-26T09:23:16Z</time>
      </trkpt>
      <trkpt lat="47.85004" lon="2.20392">
        <ele>109</ele>
        <time>2014-01-26T09:23:20Z</time>
      </trkpt>
      <trkpt lat="47.85015" lon="2.20417">
        <ele>110</ele>
        <time>2014-01-26T09:23:24Z</time>
      </trkpt>
      <trkpt lat="47.85033" lon="2.20434">
        <ele>110</ele>
        <time>2014-01-26T09:23:28Z</time>
      </trkpt>
      <trkpt lat="47.85048" lon="2.20449">
        <ele>110</ele>
        <time>2014-01-26T09:23:32Z</time>
      </trkpt>
      <trkpt lat="47.8506" lon="2.20473">
        <ele>110</ele>
        <time>2014-01-26T09:23:36Z</time>
      </trkpt>
      <trkpt lat="47.85076" lon="2.20496">
        <ele>110</ele>
        <time>2014-01-26T09:23:40Z</time>
      </trkpt>
      <trkpt lat="47.85092" lon="2.20511">
        <ele>110</ele>
        <time>2014-01-26T09:23:44Z</time>
      </trkpt>
      <trkpt lat="47.85106" lon="2.20532">
        <ele>110</ele>
        <time>2014-01-26T09:23:48Z</time>
      </trkpt>
      <trkpt lat="47.85113" lon="2.20551">
        <ele>109</ele>
        <time>2014-01-26T09:23:52Z</time>
      </trkpt>
      <trkpt lat="47.85125" lon="2.20567">
        <ele>110</ele>
        <time>2014-01-26T09:23:56Z</time>
      </trkpt>
      <trkpt lat="47.85138" lon="2.20583">
        <ele>110</ele>
        <time>2014-01-26T09:24:00Z</time>
      </trkpt>
      <trkpt lat="47.85156" lon="2.20612">
        <ele>110</ele>
        <time>2014-01-26T09:24:04Z</time>
      </trkpt>
      <trkpt lat="47.85165" lon="2.20637">
        <ele>109</ele>
        <time>2014-01-26T09:24:08Z</time>
      </trkpt>
      <trkpt lat="47.85177" lon="2.20666">
        <ele>110</ele>
        <time>2014-01-26T09:24:12Z</time>
      </trkpt>
      <trkpt lat="47.85187" lon="2.20696">
        <ele>110</ele>
        <time>2014-01-26T09:24:16Z</time>
      </trkpt>
      <trkpt lat="47.85201" lon="2.20721">
        <ele>110</ele>
        <time>2014-01-26T09:24:20Z</time>
      </trkpt>
      <trkpt lat="47.8521" lon="2.20739">
        <ele>110</ele>
        <time>2014-01-26T09:24:24Z</time>
      </trkpt>
      <trkpt lat="47.85221" lon="2.20759">
        <ele>110</ele>
        <time>2014-01-26T09:24:28Z</time>
      </trkpt>
      <trkpt lat="47.85227" lon="2.2078">
        <ele>110</ele>
        <time>2014-01-26T09:24:32Z</time>
      </trkpt>
      <trkpt lat="47.85244" lon="2.20797">
        <ele>109</ele>
        <time>2014-01-26T09:24:36Z</time>
      </trkpt>
      <trkpt lat="47.8525" lon="2.20821">
        <ele>110</ele>
        <time>2014-01-26T09:24:40Z</time>
      </trkpt>
      <trkpt lat="47.85247" lon="2.20838">
        <ele>110</ele>
        <time>2014-01-26T09:24:44Z</time>
      </trkpt>
      <trkpt lat="47.85254" lon="2.20857">
        <ele>110</ele>
        <time>2014-01-26T09:24:48Z</time>
      </trkpt>
      <trkpt lat="47.85272" lon="2.20891">
        <ele>110</ele>
        <time>2014-01-26T09:24:52Z</time>
      </trkpt>
      <trkpt lat="47.85285" lon="2.20912">
        <ele>110</ele>
        <time>2014-01-26T09:24:56Z</time>
      </trkpt>
      <trkpt lat="47.85289" lon="2.20937">
        <ele>111</ele>
        <time>2014-01-26T09:25:00Z</time>
      </trkpt>
      <trkpt lat="47.85295" lon="2.20964">
        <ele>111</ele>
        <time>2014-01-26T09:25:04Z</time>
      </trkpt>
      <trkpt lat="47.85307" lon="2.20986">
        <ele>111</ele>
        <time>2014-01-26T09:25:08Z</time>
      </trkpt>
      <trkpt lat="47.8532" lon="2.21009">
        <ele>111</ele>
        <time>2014-01-26T09:25:12Z</time>
      </trkpt>
      <trkpt lat="47.85333" lon="2.21034">
        <ele>111</ele>
        <time>2014-01-26T09:25:16Z</time>
      </trkpt>
      <trkpt lat="47.85343" lon="2.2106">
        <ele>111</ele>
        <time>2014-01-26T09:25:20Z</time>
      </trkpt>
      <trkpt lat="47.85358" lon="2.21087">
        <ele>111</ele>
        <time>2014-01-26T09:25:24Z</time>
      </trkpt>
      <trkpt lat="47.8537" lon="2.21114">
        <ele>112</ele>
        <time>2014-01-26T09:25:28Z</time>
      </trkpt>
      <trkpt lat="47.85382" lon="2.21134">
        <ele>112</ele>
        <time>2014-01-26T09:25:32Z</time>
      </trkpt>
      <trkpt lat="47.85393" lon="2.21161">
        <ele>112</ele>
        <time>2014-01-26T09:25:36Z</time>
      </trkpt>
      <trkpt lat="47.85407" lon="2.21188">
        <ele>112</ele>
        <time>2014-01-26T09:25:40Z</time>
      </trkpt>
      <trkpt lat="47.85418" lon="2.21221">
        <ele>111</ele>
        <time>2014-01-26T09:25:44Z</time>
      </trkpt>
      <trkpt lat="47.85428" lon="2.21244">
        <ele>112</ele>
        <time>2014-01-26T09:25:48Z</time>
      </trkpt>
      <trkpt lat="47.8544" lon="2.21273">
        <ele>112</ele>
        <time>2014-01-26T09:25:52Z</time>
      </trkpt>
      <trkpt lat="47.85449" lon="2.21297">
        <ele>112</ele>
        <time>2014-01-26T09:25:56Z</time>
      </trkpt>
      <trkpt lat="47.85458" lon="2.21329">
        <ele>112</ele>
        <time>2014-01-26T09:26:00Z</time>
      </trkpt>
      <trkpt lat="47.85473" lon="2.2136">
        <ele>112</ele>
        <time>2014-01-26T09:26:04Z</time>
      </trkpt>
      <trkpt lat="47.85484" lon="2.21391">
        <ele>112</ele>
        <time>2014-01-26T09:26:08Z</time>
      </trkpt>
      <trkpt lat="47.85493" lon="2.21412">
        <ele>113</ele>
        <time>2014-01-26T09:26:12Z</time>
      </trkpt>
      <trkpt lat="47.85501" lon="2.21442">
        <ele>113</ele>
        <time>2014-01-26T09:26:16Z</time>
      </trkpt>
      <trkpt lat="47.85506" lon="2.21466">
        <ele>113</ele>
        <time>2014-01-26T09:26:20Z</time>
      </trkpt>
      <trkpt lat="47.85514" lon="2.21492">
        <ele>113</ele>
        <time>2014-01-26T09:26:24Z</time>
      </trkpt>
      <trkpt lat="47.85524" lon="2.21521">
        <ele>113</ele>
        <time>2014-01-26T09:26:28Z</time>
      </trkpt>
      <trkpt lat="47.85528" lon="2.21547">
        <ele>114</ele>
        <time>2014-01-26T09:26:32Z</time>
      </trkpt>
      <trkpt lat="47.85531" lon="2.2157">
        <ele>114</ele>
        <time>2014-01-26T09:26:36Z</time>
      </trkpt>
      <trkpt lat="47.85538" lon="2.21592">
        <ele>114</ele>
        <time>2014-01-26T09:26:40Z</time>
      </trkpt>
      <trkpt lat="47.85541" lon="2.2161">
        <ele>114</ele>
        <time>2014-01-26T09:26:44Z</time>
      </trkpt>
      <trkpt lat="47.85546" lon="2.21634">
        <ele>114</ele>
        <time>2014-01-26T09:26:48Z</time>
      </trkpt>
      <trkpt lat="47.85548" lon="2.21658">
        <ele>114</ele>
        <time>2014-01-26T09:26:52Z</time>
      </trkpt>
      <trkpt lat="47.85549" lon="2.21688">
        <ele>114</ele>
        <time>2014-01-26T09:26:56Z</time>
      </trkpt>
      <trkpt lat="47.8556" lon="2.21715">
        <ele>113</ele>
        <time>2014-01-26T09:27:00Z</time>
      </trkpt>
      <trkpt lat="47.85569" lon="2.21736">
        <ele>114</ele>
        <time>2014-01-26T09:27:04Z</time>
      </trkpt>
      <trkpt lat="47.85573" lon="2.21762">
        <ele>114</ele>
        <time>2014-01-26T09:27:08Z</time>
      </trkpt>
      <trkpt lat="47.85578" lon="2.21782">
        <ele>113</ele>
        <time>2014-01-26T09:27:12Z</time>
      </trkpt>
      <trkpt lat="47.85584" lon="2.21811">
        <ele>113</ele>
        <time>2014-01-26T09:27:16Z</time>
      </trkpt>
      <trkpt lat="47.85592" lon="2.21845">
        <ele>113</ele>
        <time>2014-01-26T09:27:20Z</time>
      </trkpt>
      <trkpt lat="47.85598" lon="2.21874">
        <ele>113</ele>
        <time>2014-01-26T09:27:24Z</time>
      </trkpt>
      <trkpt lat="47.85602" lon="2.21905">
        <ele>113</ele>
        <time>2014-01-26T09:27:28Z</time>
      </trkpt>
      <trkpt lat="47.85609" lon="2.21943">
        <ele>113</ele>
        <time>2014-01-26T09:27:32Z</time>
      </trkpt>
      <trkpt lat="47.85614" lon="2.21976">
        <ele>113</ele>
        <time>2014-01-26T09:27:36Z</time>
      </trkpt>
      <trkpt lat="47.85612" lon="2.22007">
        <ele>113</ele>
        <time>2014-01-26T09:27:40Z</time>
      </trkpt>
      <trkpt lat="47.85619" lon="2.22032">
        <ele>113</ele>
        <time>2014-01-26T09:27:44Z</time>
      </trkpt>
      <trkpt lat="47.85623" lon="2.22064">
        <ele>114</ele>
        <time>2014-01-26T09:27:48Z</time>
      </trkpt>
      <trkpt lat="47.8563" lon="2.22089">
        <ele>113</ele>
        <time>2014-01-26T09:27:52Z</time>
      </trkpt>
      <trkpt lat="47.85628" lon="2.22122">
        <ele>114</ele>
        <time>2014-01-26T09:27:56Z</time>
      </trkpt>
      <trkpt lat="47.85634" lon="2.22155">
        <ele>114</ele>
        <time>2014-01-26T09:28:00Z</time>
      </trkpt>
      <trkpt lat="47.85636" lon="2.22179">
        <ele>114</ele>
        <time>2014-01-26T09:28:04Z</time>
      </trkpt>
      <trkpt lat="47.85635" lon="2.22205">
        <ele>114</ele>
        <time>2014-01-26T09:28:08Z</time>
      </trkpt>
      <trkpt lat="47.85634" lon="2.22239">
        <ele>114</ele>
        <time>2014-01-26T09:28:12Z</time>
      </trkpt>
      <trkpt lat="47.85629" lon="2.22269">
        <ele>114</ele>
        <time>2014-01-26T09:28:16Z</time>
      </trkpt>
      <trkpt lat="47.85628" lon="2.22296">
        <ele>114</ele>
        <time>2014-01-26T09:28:20Z</time>
      </trkpt>
      <trkpt lat="47.85622" lon="2.22324">
        <ele>114</ele>
        <time>2014-01-26T09:28:24Z</time>
      </trkpt>
      <trkpt lat="47.85623" lon="2.2235">
        <ele>113</ele>
        <time>2014-01-26T09:28:28Z</time>
      </trkpt>
      <trkpt lat="47.85634" lon="2.22362">
        <ele>114</ele>
        <time>2014-01-26T09:28:32Z</time>
      </trkpt>
      <trkpt lat="47.85642" lon="2.22362">
        <ele>114</ele>
        <time>2014-01-26T09:28:36Z</time>
      </trkpt>
      <trkpt lat="47.85659" lon="2.22359">
        <ele>115</ele>
        <time>2014-01-26T09:28:40Z</time>
      </trkpt>
      <trkpt lat="47.85672" lon="2.22363">
        <ele>115</ele>
        <time>2014-01-26T09:28:44Z</time>
      </trkpt>
      <trkpt lat="47.85688" lon="2.22362">
        <ele>115</ele>
        <time>2014-01-26T09:28:48Z</time>
      </trkpt>
      <trkpt lat="47.85702" lon="2.22362">
        <ele>116</ele>
        <time>2014-01-26T09:28:52Z</time>
      </trkpt>
      <trkpt lat="47.85718" lon="2.22358">
        <ele>116</ele>
        <time>2014-01-26T09:28:56Z</time>
      </trkpt>
      <trkpt lat="47.85729" lon="2.22355">
        <ele>116</ele>
        <time>2014-01-26T09:29:00Z</time>
      </trkpt>
      <trkpt lat="47.8575" lon="2.22349">
        <ele>117</ele>
        <time>2014-01-26T09:29:04Z</time>
      </trkpt>
      <trkpt lat="47.85765" lon="2.22347">
        <ele>117</ele>
        <time>2014-01-26T09:29:08Z</time>
      </trkpt>
      <trkpt lat="47.85779" lon="2.22347">
        <ele>117</ele>
        <time>2014-01-26T09:29:12Z</time>
      </trkpt>
      <trkpt lat="47.858" lon="2.22342">
        <ele>117</ele>
        <time>2014-01-26T09:29:16Z</time>
      </trkpt>
      <trkpt lat="47.85816" lon="2.22345">
        <ele>117</ele>
        <time>2014-01-26T09:29:20Z</time>
      </trkpt>
      <trkpt lat="47.8583" lon="2.22347">
        <ele>118</ele>
        <time>2014-01-26T09:29:24Z</time>
      </trkpt>
      <trkpt lat="47.85853" lon="2.22343">
        <ele>117</ele>
        <time>2014-01-26T09:29:28Z</time>
      </trkpt>
      <trkpt lat="47.85875" lon="2.22338">
        <ele>117</ele>
        <time>2014-01-26T09:29:32Z</time>
      </trkpt>
      <trkpt lat="47.8589" lon="2.22343">
        <ele>117</ele>
        <time>2014-01-26T09:29:36Z</time>
      </trkpt>
      <trkpt lat="47.85906" lon="2.22337">
        <ele>117</ele>
        <time>2014-01-26T09:29:40Z</time>
      </trkpt>
      <trkpt lat="47.85926" lon="2.2233">
        <ele>117</ele>
        <time>2014-01-26T09:29:44Z</time>
      </trkpt>
      <trkpt lat="47.85943" lon="2.2233">
        <ele>116</ele>
        <time>2014-01-26T09:29:48Z</time>
      </trkpt>
      <trkpt lat="47.85963" lon="2.22325">
        <ele>115</ele>
        <time>2014-01-26T09:29:52Z</time>
      </trkpt>
      <trkpt lat="47.85981" lon="2.22321">
        <ele>115</ele>
        <time>2014-01-26T09:29:56Z</time>
      </trkpt>
      <trkpt lat="47.8599" lon="2.22297">
        <ele>115</ele>
        <time>2014-01-26T09:30:00Z</time>
      </trkpt>
      <trkpt lat="47.85989" lon="2.22275">
        <ele>114</ele>
        <time>2014-01-26T09:30:04Z</time>
      </trkpt>
      <trkpt lat="47.8599" lon="2.22246">
        <ele>114</ele>
        <time>2014-01-26T09:30:08Z</time>
      </trkpt>
      <trkpt lat="47.85989" lon="2.22213">
        <ele>113</ele>
        <time>2014-01-26T09:30:12Z</time>
      </trkpt>
      <trkpt lat="47.85988" lon="2.22182">
        <ele>112</ele>
        <time>2014-01-26T09:30:16Z</time>
      </trkpt>
      <trkpt lat="47.8599" lon="2.22145">
        <ele>112</ele>
        <time>2014-01-26T09:30:20Z</time>
      </trkpt>
      <trkpt lat="47.86002" lon="2.22115">
        <ele>113</ele>
        <time>2014-01-26T09:30:24Z</time>
      </trkpt>
      <trkpt lat="47.86013" lon="2.22092">
        <ele>114</ele>
        <time>2014-01-26T09:30:28Z</time>
      </trkpt>
      <trkpt lat="47.86013" lon="2.22062">
        <ele>114</ele>
        <time>2014-01-26T09:30:32Z</time>
      </trkpt>
      <trkpt lat="47.86014" lon="2.22034">
        <ele>114</ele>
        <time>2014-01-26T09:30:36Z</time>
      </trkpt>
      <trkpt lat="47.86018" lon="2.22006">
        <ele>114</ele>
        <time>2014-01-26T09:30:40Z</time>
      </trkpt>
      <trkpt lat="47.86019" lon="2.21976">
        <ele>114</ele>
        <time>2014-01-26T09:30:44Z</time>
      </trkpt>
      <trkpt lat="47.8602" lon="2.21948">
        <ele>114</ele>
        <time>2014-01-26T09:30:48Z</time>
      </trkpt>
      <trkpt lat="47.86031" lon="2.21936">
        <ele>113</ele>
        <time>2014-01-26T09:30:52Z</time>
      </trkpt>
      <trkpt lat="47.86051" lon="2.2194">
        <ele>114</ele>
        <time>2014-01-26T09:30:56Z</time>
      </trkpt>
      <trkpt lat="47.86064" lon="2.2195">
        <ele>114</ele>
        <time>2014-01-26T09:31:00Z</time>
      </trkpt>
      <trkpt lat="47.8608" lon="2.21953">
        <ele>113</ele>
        <time>2014-01-26T09:31:08Z</time>
      </trkpt>
      <trkpt lat="47.86086" lon="2.21946">
        <ele>113</ele>
        <time>2014-01-26T09:31:12Z</time>
      </trkpt>
      <trkpt lat="47.86094" lon="2.2194">
        <ele>112</ele>
        <time>2014-01-26T09:31:16Z</time>
      </trkpt>
      <trkpt lat="47.86105" lon="2.21928">
        <ele>112</ele>
        <time>2014-01-26T09:31:20Z</time>
      </trkpt>
      <trkpt lat="47.86117" lon="2.21914">
        <ele>111</ele>
        <time>2014-01-26T09:31:24Z</time>
      </trkpt>
      <trkpt lat="47.86131" lon="2.21893">
        <ele>111</ele>
        <time>2014-01-26T09:31:28Z</time>
      </trkpt>
      <trkpt lat="47.86144" lon="2.21873">
        <ele>111</ele>
        <time>2014-01-26T09:31:32Z</time>
      </trkpt>
      <trkpt lat="47.86156" lon="2.21853">
        <ele>111</ele>
        <time>2014-01-26T09:31:36Z</time>
      </trkpt>
      <trkpt lat="47.86171" lon="2.21833">
        <ele>111</ele>
        <time>2014-01-26T09:31:40Z</time>
      </trkpt>
      <trkpt lat="47.86184" lon="2.21815">
        <ele>112</ele>
        <time>2014-01-26T09:31:44Z</time>
      </trkpt>
      <trkpt lat="47.86205" lon="2.21801">
        <ele>111</ele>
        <time>2014-01-26T09:31:48Z</time>
      </trkpt>
      <trkpt lat="47.86218" lon="2.21785">
        <ele>112</ele>
        <time>2014-01-26T09:31:52Z</time>
      </trkpt>
      <trkpt lat="47.86231" lon="2.21768">
        <ele>112</ele>
        <time>2014-01-26T09:31:56Z</time>
      </trkpt>
      <trkpt lat="47.86247" lon="2.21758">
        <ele>112</ele>
        <time>2014-01-26T09:32:00Z</time>
      </trkpt>
      <trkpt lat="47.86257" lon="2.21748">
        <ele>112</ele>
        <time>2014-01-26T09:32:04Z</time>
      </trkpt>
      <trkpt lat="47.86263" lon="2.21751">
        <ele>112</ele>
        <time>2014-01-26T09:32:08Z</time>
      </trkpt>
      <trkpt lat="47.86274" lon="2.2174">
        <ele>112</ele>
        <time>2014-01-26T09:32:12Z</time>
      </trkpt>
      <trkpt lat="47.86279" lon="2.21727">
        <ele>112</ele>
        <time>2014-01-26T09:32:16Z</time>
      </trkpt>
      <trkpt lat="47.86291" lon="2.21704">
        <ele>113</ele>
        <time>2014-01-26T09:32:20Z</time>
      </trkpt>
      <trkpt lat="47.86302" lon="2.21681">
        <ele>112</ele>
        <time>2014-01-26T09:32:24Z</time>
      </trkpt>
      <trkpt lat="47.86315" lon="2.21662">
        <ele>112</ele>
        <time>2014-01-26T09:32:28Z</time>
      </trkpt>
      <trkpt lat="47.86327" lon="2.21638">
        <ele>112</ele>
        <time>2014-01-26T09:32:32Z</time>
      </trkpt>
      <trkpt lat="47.86338" lon="2.21613">
        <ele>112</ele>
        <time>2014-01-26T09:32:36Z</time>
      </trkpt>
      <trkpt lat="47.86349" lon="2.21594">
        <ele>112</ele>
        <time>2014-01-26T09:32:40Z</time>
      </trkpt>
      <trkpt lat="47.86359" lon="2.21568">
        <ele>111</ele>
        <time>2014-01-26T09:32:44Z</time>
      </trkpt>
      <trkpt lat="47.8636" lon="2.21545">
        <ele>111</ele>
        <time>2014-01-26T09:32:48Z</time>
      </trkpt>
      <trkpt lat="47.86354" lon="2.21513">
        <ele>110</ele>
        <time>2014-01-26T09:32:52Z</time>
      </trkpt>
      <trkpt lat="47.86355" lon="2.21489">
        <ele>111</ele>
        <time>2014-01-26T09:32:56Z</time>
      </trkpt>
      <trkpt lat="47.86355" lon="2.21464">
        <ele>111</ele>
        <time>2014-01-26T09:33:00Z</time>
      </trkpt>
      <trkpt lat="47.86361" lon="2.21447">
        <ele>111</ele>
        <time>2014-01-26T09:33:04Z</time>
      </trkpt>
      <trkpt lat="47.86369" lon="2.21444">
        <ele>113</ele>
        <time>2014-01-26T09:33:08Z</time>
      </trkpt>
      <trkpt lat="47.86376" lon="2.21449">
        <ele>115</ele>
        <time>2014-01-26T09:33:12Z</time>
      </trkpt>
      <trkpt lat="47.86396" lon="2.21448">
        <ele>118</ele>
        <time>2014-01-26T09:33:16Z</time>
      </trkpt>
      <trkpt lat="47.86404" lon="2.21456">
        <ele>121</ele>
        <time>2014-01-26T09:33:20Z</time>
      </trkpt>
      <trkpt lat="47.86413" lon="2.21456">
        <ele>123</ele>
        <time>2014-01-26T09:33:24Z</time>
      </trkpt>
      <trkpt lat="47.86422" lon="2.21463">
        <ele>124</ele>
        <time>2014-01-26T09:33:28Z</time>
      </trkpt>
      <trkpt lat="47.86438" lon="2.21459">
        <ele>125</ele>
        <time>2014-01-26T09:33:32Z</time>
      </trkpt>
      <trkpt lat="47.86443" lon="2.21467">
        <ele>125</ele>
        <time>2014-01-26T09:33:36Z</time>
      </trkpt>
      <trkpt lat="47.86446" lon="2.21465">
        <ele>124</ele>
        <time>2014-01-26T09:33:44Z</time>
      </trkpt>
      <trkpt lat="47.86454" lon="2.21458">
        <ele>124</ele>
        <time>2014-01-26T09:33:48Z</time>
      </trkpt>
      <trkpt lat="47.86451" lon="2.21444">
        <ele>124</ele>
        <time>2014-01-26T09:33:52Z</time>
      </trkpt>
      <trkpt lat="47.8645" lon="2.2143">
        <ele>124</ele>
        <time>2014-01-26T09:33:56Z</time>
      </trkpt>
      <trkpt lat="47.86452" lon="2.21413">
        <ele>124</ele>
        <time>2014-01-26T09:34:00Z</time>
      </trkpt>
      <trkpt lat="47.86458" lon="2.21404">
        <ele>124</ele>
        <time>2014-01-26T09:34:04Z</time>
      </trkpt>
      <trkpt lat="47.86462" lon="2.21392">
        <ele>124</ele>
        <time>2014-01-26T09:34:08Z</time>
      </trkpt>
      <trkpt lat="47.86469" lon="2.21376">
        <ele>123</ele>
        <time>2014-01-26T09:34:12Z</time>
      </trkpt>
      <trkpt lat="47.86469" lon="2.2136">
        <ele>123</ele>
        <time>2014-01-26T09:34:16Z</time>
      </trkpt>
      <trkpt lat="47.86473" lon="2.21343">
        <ele>123</ele>
        <time>2014-01-26T09:34:20Z</time>
      </trkpt>
      <trkpt lat="47.86473" lon="2.21322">
        <ele>123</ele>
        <time>2014-01-26T09:34:24Z</time>
      </trkpt>
      <trkpt lat="47.86475" lon="2.21308">
        <ele>123</ele>
        <time>2014-01-26T09:34:28Z</time>
      </trkpt>
      <trkpt lat="47.8648" lon="2.21313">
        <ele>124</ele>
        <time>2014-01-26T09:34:32Z</time>
      </trkpt>
      <trkpt lat="47.86496" lon="2.21307">
        <ele>124</ele>
        <time>2014-01-26T09:34:36Z</time>
      </trkpt>
      <trkpt lat="47.86505" lon="2.2131">
        <ele>124</ele>
        <time>2014-01-26T09:34:40Z</time>
      </trkpt>
      <trkpt lat="47.86509" lon="2.21289">
        <ele>124</ele>
        <time>2014-01-26T09:34:44Z</time>
      </trkpt>
      <trkpt lat="47.86505" lon="2.21275">
        <ele>124</ele>
        <time>2014-01-26T09:34:48Z</time>
      </trkpt>
      <trkpt lat="47.86506" lon="2.21252">
        <ele>123</ele>
        <time>2014-01-26T09:34:52Z</time>
      </trkpt>
      <trkpt lat="47.86509" lon="2.2123">
        <ele>123</ele>
        <time>2014-01-26T09:34:56Z</time>
      </trkpt>
      <trkpt lat="47.86503" lon="2.2121">
        <ele>123</ele>
        <time>2014-01-26T09:35:00Z</time>
      </trkpt>
      <trkpt lat="47.86505" lon="2.21193">
        <ele>123</ele>
        <time>2014-01-26T09:35:04Z</time>
      </trkpt>
      <trkpt lat="47.86504" lon="2.21167">
        <ele>122</ele>
        <time>2014-01-26T09:35:08Z</time>
      </trkpt>
      <trkpt lat="47.86495" lon="2.21149">
        <ele>123</ele>
        <time>2014-01-26T09:35:12Z</time>
      </trkpt>
      <trkpt lat="47.8649" lon="2.2113">
        <ele>123</ele>
        <time>2014-01-26T09:35:16Z</time>
      </trkpt>
      <trkpt lat="47.86488" lon="2.21115">
        <ele>123</ele>
        <time>2014-01-26T09:35:32Z</time>
      </trkpt>
      <trkpt lat="47.86487" lon="2.2111">
        <ele>123</ele>
        <time>2014-01-26T09:35:36Z</time>
      </trkpt>
      <trkpt lat="47.86489" lon="2.21093">
        <ele>123</ele>
        <time>2014-01-26T09:35:40Z</time>
      </trkpt>
      <trkpt lat="47.86501" lon="2.21075">
        <ele>124</ele>
        <time>2014-01-26T09:35:44Z</time>
      </trkpt>
      <trkpt lat="47.86518" lon="2.2107">
        <ele>124</ele>
        <time>2014-01-26T09:35:48Z</time>
      </trkpt>
      <trkpt lat="47.8653" lon="2.21064">
        <ele>124</ele>
        <time>2014-01-26T09:35:52Z</time>
      </trkpt>
      <trkpt lat="47.86544" lon="2.2106">
        <ele>124</ele>
        <time>2014-01-26T09:35:56Z</time>
      </trkpt>
      <trkpt lat="47.86561" lon="2.21059">
        <ele>124</ele>
        <time>2014-01-26T09:36:00Z</time>
      </trkpt>
      <trkpt lat="47.86578" lon="2.21046">
        <ele>125</ele>
        <time>2014-01-26T09:36:04Z</time>
      </trkpt>
      <trkpt lat="47.86597" lon="2.21041">
        <ele>125</ele>
        <time>2014-01-26T09:36:08Z</time>
      </trkpt>
      <trkpt lat="47.86617" lon="2.21033">
        <ele>124</ele>
        <time>2014-01-26T09:36:12Z</time>
      </trkpt>
      <trkpt lat="47.8663" lon="2.21025">
        <ele>124</ele>
        <time>2014-01-26T09:36:16Z</time>
      </trkpt>
      <trkpt lat="47.86644" lon="2.21008">
        <ele>124</ele>
        <time>2014-01-26T09:36:20Z</time>
      </trkpt>
      <trkpt lat="47.86657" lon="2.20988">
        <ele>124</ele>
        <time>2014-01-26T09:36:24Z</time>
      </trkpt>
      <trkpt lat="47.86675" lon="2.20972">
        <ele>124</ele>
        <time>2014-01-26T09:36:28Z</time>
      </trkpt>
      <trkpt lat="47.86688" lon="2.20947">
        <ele>125</ele>
        <time>2014-01-26T09:36:32Z</time>
      </trkpt>
      <trkpt lat="47.86703" lon="2.20929">
        <ele>125</ele>
        <time>2014-01-26T09:36:36Z</time>
      </trkpt>
      <trkpt lat="47.86717" lon="2.20902">
        <ele>124</ele>
        <time>2014-01-26T09:36:40Z</time>
      </trkpt>
      <trkpt lat="47.8673" lon="2.20881">
        <ele>125</ele>
        <time>2014-01-26T09:36:44Z</time>
      </trkpt>
      <trkpt lat="47.86742" lon="2.2086">
        <ele>125</ele>
        <time>2014-01-26T09:36:48Z</time>
      </trkpt>
      <trkpt lat="47.86758" lon="2.20838">
        <ele>125</ele>
        <time>2014-01-26T09:36:52Z</time>
      </trkpt>
      <trkpt lat="47.86771" lon="2.20813">
        <ele>125</ele>
        <time>2014-01-26T09:36:56Z</time>
      </trkpt>
      <trkpt lat="47.86783" lon="2.20792">
        <ele>125</ele>
        <time>2014-01-26T09:37:00Z</time>
      </trkpt>
      <trkpt lat="47.86798" lon="2.20767">
        <ele>125</ele>
        <time>2014-01-26T09:37:04Z</time>
      </trkpt>
      <trkpt lat="47.8681" lon="2.2074">
        <ele>126</ele>
        <time>2014-01-26T09:37:08Z</time>
      </trkpt>
      <trkpt lat="47.86824" lon="2.20716">
        <ele>126</ele>
        <time>2014-01-26T09:37:12Z</time>
      </trkpt>
      <trkpt lat="47.86841" lon="2.20688">
        <ele>126</ele>
        <time>2014-01-26T09:37:16Z</time>
      </trkpt>
      <trkpt lat="47.86855" lon="2.20665">
        <ele>126</ele>
        <time>2014-01-26T09:37:20Z</time>
      </trkpt>
      <trkpt lat="47.86871" lon="2.20637">
        <ele>126</ele>
        <time>2014-01-26T09:37:24Z</time>
      </trkpt>
      <trkpt lat="47.86886" lon="2.20609">
        <ele>126</ele>
        <time>2014-01-26T09:37:28Z</time>
      </trkpt>
      <trkpt lat="47.86899" lon="2.20584">
        <ele>126</ele>
        <time>2014-01-26T09:37:32Z</time>
      </trkpt>
      <trkpt lat="47.86917" lon="2.20559">
        <ele>126</ele>
        <time>2014-01-26T09:37:36Z</time>
      </trkpt>
      <trkpt lat="47.86929" lon="2.20529">
        <ele>126</ele>
        <time>2014-01-26T09:37:40Z</time>
      </trkpt>
      <trkpt lat="47.86942" lon="2.205">
        <ele>126</ele>
        <time>2014-01-26T09:37:44Z</time>
      </trkpt>
      <trkpt lat="47.86958" lon="2.20477">
        <ele>126</ele>
        <time>2014-01-26T09:37:48Z</time>
      </trkpt>
      <trkpt lat="47.86967" lon="2.20452">
        <ele>126</ele>
        <time>2014-01-26T09:37:52Z</time>
      </trkpt>
      <trkpt lat="47.86977" lon="2.20418">
        <ele>126</ele>
        <time>2014-01-26T09:37:56Z</time>
      </trkpt>
      <trkpt lat="47.86971" lon="2.20387">
        <ele>127</ele>
        <time>2014-01-26T09:38:00Z</time>
      </trkpt>
      <trkpt lat="47.86965" lon="2.20362">
        <ele>126</ele>
        <time>2014-01-26T09:38:04Z</time>
      </trkpt>
      <trkpt lat="47.86961" lon="2.2033">
        <ele>126</ele>
        <time>2014-01-26T09:38:08Z</time>
      </trkpt>
      <trkpt lat="47.86956" lon="2.203">
        <ele>126</ele>
        <time>2014-01-26T09:38:12Z</time>
      </trkpt>
      <trkpt lat="47.86948" lon="2.20271">
        <ele>126</ele>
        <time>2014-01-26T09:38:16Z</time>
      </trkpt>
      <trkpt lat="47.86942" lon="2.20246">
        <ele>125</ele>
        <time>2014-01-26T09:38:20Z</time>
      </trkpt>
      <trkpt lat="47.86933" lon="2.20215">
        <ele>125</ele>
        <time>2014-01-26T09:38:24Z</time>
      </trkpt>
      <trkpt lat="47.86925" lon="2.20183">
        <ele>125</ele>
        <time>2014-01-26T09:38:28Z</time>
      </trkpt>
      <trkpt lat="47.86918" lon="2.20144">
        <ele>125</ele>
        <time>2014-01-26T09:38:32Z</time>
      </trkpt>
      <trkpt lat="47.86907" lon="2.20108">
        <ele>125</ele>
        <time>2014-01-26T09:38:36Z</time>
      </trkpt>
      <trkpt lat="47.86901" lon="2.20074">
        <ele>125</ele>
        <time>2014-01-26T09:38:40Z</time>
      </trkpt>
      <trkpt lat="47.86904" lon="2.20045">
        <ele>125</ele>
        <time>2014-01-26T09:38:44Z</time>
      </trkpt>
      <trkpt lat="47.869" lon="2.2001">
        <ele>125</ele>
        <time>2014-01-26T09:38:48Z</time>
      </trkpt>
      <trkpt lat="47.86904" lon="2.19982">
        <ele>125</ele>
        <time>2014-01-26T09:38:52Z</time>
      </trkpt>
      <trkpt lat="47.86902" lon="2.19946">
        <ele>125</ele>
        <time>2014-01-26T09:38:56Z</time>
      </trkpt>
      <trkpt lat="47.869" lon="2.19908">
        <ele>125</ele>
        <time>2014-01-26T09:39:00Z</time>
      </trkpt>
      <trkpt lat="47.86899" lon="2.19876">
        <ele>125</ele>
        <time>2014-01-26T09:39:04Z</time>
      </trkpt>
      <trkpt lat="47.86898" lon="2.19846">
        <ele>125</ele>
        <time>2014-01-26T09:39:08Z</time>
      </trkpt>
      <trkpt lat="47.86898" lon="2.19819">
        <ele>125</ele>
        <time>2014-01-26T09:39:12Z</time>
      </trkpt>
      <trkpt lat="47.86899" lon="2.19781">
        <ele>125</ele>
        <time>2014-01-26T09:39:16Z</time>
      </trkpt>
      <trkpt lat="47.869" lon="2.19744">
        <ele>125</ele>
        <time>2014-01-26T09:39:20Z</time>
      </trkpt>
      <trkpt lat="47.86901" lon="2.19711">
        <ele>125</ele>
        <time>2014-01-26T09:39:24Z</time>
      </trkpt>
      <trkpt lat="47.869" lon="2.19683">
        <ele>125</ele>
        <time>2014-01-26T09:39:28Z</time>
      </trkpt>
      <trkpt lat="47.86898" lon="2.19647">
        <ele>125</ele>
        <time>2014-01-26T09:39:32Z</time>
      </trkpt>
      <trkpt lat="47.86897" lon="2.19609">
        <ele>125</ele>
        <time>2014-01-26T09:39:36Z</time>
      </trkpt>
      <trkpt lat="47.86899" lon="2.19581">
        <ele>125</ele>
        <time>2014-01-26T09:39:40Z</time>
      </trkpt>
      <trkpt lat="47.86902" lon="2.19548">
        <ele>125</ele>
        <time>2014-01-26T09:39:44Z</time>
      </trkpt>
      <trkpt lat="47.869" lon="2.19519">
        <ele>125</ele>
        <time>2014-01-26T09:39:48Z</time>
      </trkpt>
      <trkpt lat="47.86901" lon="2.19489">
        <ele>125</ele>
        <time>2014-01-26T09:39:52Z</time>
      </trkpt>
      <trkpt lat="47.869" lon="2.19452">
        <ele>125</ele>
        <time>2014-01-26T09:39:56Z</time>
      </trkpt>
      <trkpt lat="47.86907" lon="2.19419">
        <ele>125</ele>
        <time>2014-01-26T09:40:00Z</time>
      </trkpt>
      <trkpt lat="47.86915" lon="2.1939">
        <ele>124</ele>
        <time>2014-01-26T09:40:04Z</time>
      </trkpt>
      <trkpt lat="47.86915" lon="2.19357">
        <ele>124</ele>
        <time>2014-01-26T09:40:08Z</time>
      </trkpt>
      <trkpt lat="47.8692" lon="2.19327">
        <ele>123</ele>
        <time>2014-01-26T09:40:12Z</time>
      </trkpt>
      <trkpt lat="47.86919" lon="2.19293">
        <ele>123</ele>
        <time>2014-01-26T09:40:16Z</time>
      </trkpt>
      <trkpt lat="47.86924" lon="2.1925">
        <ele>123</ele>
        <time>2014-01-26T09:40:20Z</time>
      </trkpt>
      <trkpt lat="47.86922" lon="2.19215">
        <ele>123</ele>
        <time>2014-01-26T09:40:24Z</time>
      </trkpt>
      <trkpt lat="47.86919" lon="2.19178">
        <ele>123</ele>
        <time>2014-01-26T09:40:28Z</time>
      </trkpt>
      <trkpt lat="47.86918" lon="2.19144">
        <ele>123</ele>
        <time>2014-01-26T09:40:32Z</time>
      </trkpt>
      <trkpt lat="47.86912" lon="2.19111">
        <ele>123</ele>
        <time>2014-01-26T09:40:36Z</time>
      </trkpt>
      <trkpt lat="47.86914" lon="2.19079">
        <ele>123</ele>
        <time>2014-01-26T09:40:40Z</time>
      </trkpt>
      <trkpt lat="47.86916" lon="2.19043">
        <ele>124</ele>
        <time>2014-01-26T09:40:44Z</time>
      </trkpt>
      <trkpt lat="47.86913" lon="2.19005">
        <ele>124</ele>
        <time>2014-01-26T09:40:48Z</time>
      </trkpt>
      <trkpt lat="47.86913" lon="2.18981">
        <ele>125</ele>
        <time>2014-01-26T09:40:52Z</time>
      </trkpt>
      <trkpt lat="47.86912" lon="2.18952">
        <ele>125</ele>
        <time>2014-01-26T09:40:56Z</time>
      </trkpt>
      <trkpt lat="47.86913" lon="2.18923">
        <ele>126</ele>
        <time>2014-01-26T09:41:00Z</time>
      </trkpt>
      <trkpt lat="47.8691" lon="2.18891">
        <ele>127</ele>
        <time>2014-01-26T09:41:04Z</time>
      </trkpt>
      <trkpt lat="47.86907" lon="2.18859">
        <ele>127</ele>
        <time>2014-01-26T09:41:08Z</time>
      </trkpt>
      <trkpt lat="47.86905" lon="2.18828">
        <ele>127</ele>
        <time>2014-01-26T09:41:12Z</time>
      </trkpt>
      <trkpt lat="47.8691" lon="2.18802">
        <ele>127</ele>
        <time>2014-01-26T09:41:16Z</time>
      </trkpt>
      <trkpt lat="47.86911" lon="2.18774">
        <ele>127</ele>
        <time>2014-01-26T09:41:20Z</time>
      </trkpt>
      <trkpt lat="47.8691" lon="2.18743">
        <ele>127</ele>
        <time>2014-01-26T09:41:24Z</time>
      </trkpt>
      <trkpt lat="47.86911" lon="2.18705">
        <ele>127</ele>
        <time>2014-01-26T09:41:28Z</time>
      </trkpt>
      <trkpt lat="47.86909" lon="2.1868">
        <ele>127</ele>
        <time>2014-01-26T09:41:32Z</time>
      </trkpt>
      <trkpt lat="47.8691" lon="2.18644">
        <ele>127</ele>
        <time>2014-01-26T09:41:36Z</time>
      </trkpt>
      <trkpt lat="47.86907" lon="2.1862">
        <ele>127</ele>
        <time>2014-01-26T09:41:40Z</time>
      </trkpt>
      <trkpt lat="47.86908" lon="2.186">
        <ele>127</ele>
        <time>2014-01-26T09:41:44Z</time>
      </trkpt>
      <trkpt lat="47.8691" lon="2.18568">
        <ele>128</ele>
        <time>2014-01-26T09:41:48Z</time>
      </trkpt>
      <trkpt lat="47.86905" lon="2.18542">
        <ele>128</ele>
        <time>2014-01-26T09:41:52Z</time>
      </trkpt>
      <trkpt lat="47.86901" lon="2.18508">
        <ele>128</ele>
        <time>2014-01-26T09:41:56Z</time>
      </trkpt>
      <trkpt lat="47.86902" lon="2.18486">
        <ele>128</ele>
        <time>2014-01-26T09:42:00Z</time>
      </trkpt>
      <trkpt lat="47.86899" lon="2.18455">
        <ele>127</ele>
        <time>2014-01-26T09:42:04Z</time>
      </trkpt>
      <trkpt lat="47.86904" lon="2.18418">
        <ele>127</ele>
        <time>2014-01-26T09:42:08Z</time>
      </trkpt>
      <trkpt lat="47.86908" lon="2.1839">
        <ele>127</ele>
        <time>2014-01-26T09:42:12Z</time>
      </trkpt>
      <trkpt lat="47.86904" lon="2.18354">
        <ele>127</ele>
        <time>2014-01-26T09:42:16Z</time>
      </trkpt>
      <trkpt lat="47.869" lon="2.18324">
        <ele>127</ele>
        <time>2014-01-26T09:42:20Z</time>
      </trkpt>
      <trkpt lat="47.86897" lon="2.1829">
        <ele>127</ele>
        <time>2014-01-26T09:42:24Z</time>
      </trkpt>
      <trkpt lat="47.86895" lon="2.18253">
        <ele>126</ele>
        <time>2014-01-26T09:42:28Z</time>
      </trkpt>
      <trkpt lat="47.86896" lon="2.18214">
        <ele>125</ele>
        <time>2014-01-26T09:42:32Z</time>
      </trkpt>
      <trkpt lat="47.869" lon="2.18186">
        <ele>125</ele>
        <time>2014-01-26T09:42:36Z</time>
      </trkpt>
      <trkpt lat="47.869" lon="2.18149">
        <ele>123</ele>
        <time>2014-01-26T09:42:40Z</time>
      </trkpt>
      <trkpt lat="47.86911" lon="2.18108">
        <ele>123</ele>
        <time>2014-01-26T09:42:44Z</time>
      </trkpt>
      <trkpt lat="47.8692" lon="2.18068">
        <ele>123</ele>
        <time>2014-01-26T09:42:48Z</time>
      </trkpt>
      <trkpt lat="47.86926" lon="2.18027">
        <ele>122</ele>
        <time>2014-01-26T09:42:52Z</time>
      </trkpt>
      <trkpt lat="47.86935" lon="2.17991">
        <ele>121</ele>
        <time>2014-01-26T09:42:56Z</time>
      </trkpt>
      <trkpt lat="47.86941" lon="2.17952">
        <ele>119</ele>
        <time>2014-01-26T09:43:00Z</time>
      </trkpt>
      <trkpt lat="47.86949" lon="2.17913">
        <ele>117</ele>
        <time>2014-01-26T09:43:04Z</time>
      </trkpt>
      <trkpt lat="47.86964" lon="2.17877">
        <ele>115</ele>
        <time>2014-01-26T09:43:08Z</time>
      </trkpt>
      <trkpt lat="47.86964" lon="2.17828">
        <ele>114</ele>
        <time>2014-01-26T09:43:12Z</time>
      </trkpt>
      <trkpt lat="47.86961" lon="2.17786">
        <ele>113</ele>
        <time>2014-01-26T09:43:16Z</time>
      </trkpt>
      <trkpt lat="47.86961" lon="2.17739">
        <ele>115</ele>
        <time>2014-01-26T09:43:20Z</time>
      </trkpt>
      <trkpt lat="47.86955" lon="2.17699">
        <ele>117</ele>
        <time>2014-01-26T09:43:24Z</time>
      </trkpt>
      <trkpt lat="47.86951" lon="2.17656">
        <ele>120</ele>
        <time>2014-01-26T09:43:28Z</time>
      </trkpt>
      <trkpt lat="47.86955" lon="2.17622">
        <ele>122</ele>
        <time>2014-01-26T09:43:32Z</time>
      </trkpt>
      <trkpt lat="47.86967" lon="2.17585">
        <ele>123</ele>
        <time>2014-01-26T09:43:36Z</time>
      </trkpt>
      <trkpt lat="47.86972" lon="2.17551">
        <ele>124</ele>
        <time>2014-01-26T09:43:40Z</time>
      </trkpt>
      <trkpt lat="47.86984" lon="2.17517">
        <ele>125</ele>
        <time>2014-01-26T09:43:44Z</time>
      </trkpt>
      <trkpt lat="47.86999" lon="2.1748">
        <ele>125</ele>
        <time>2014-01-26T09:43:48Z</time>
      </trkpt>
      <trkpt lat="47.87009" lon="2.17446">
        <ele>126</ele>
        <time>2014-01-26T09:43:52Z</time>
      </trkpt>
      <trkpt lat="47.87011" lon="2.17417">
        <ele>126</ele>
        <time>2014-01-26T09:43:56Z</time>
      </trkpt>
      <trkpt lat="47.87015" lon="2.17386">
        <ele>127</ele>
        <time>2014-01-26T09:44:00Z</time>
      </trkpt>
      <trkpt lat="47.87019" lon="2.17355">
        <ele>126</ele>
        <time>2014-01-26T09:44:04Z</time>
      </trkpt>
      <trkpt lat="47.87024" lon="2.17332">
        <ele>126</ele>
        <time>2014-01-26T09:44:08Z</time>
      </trkpt>
      <trkpt lat="47.87026" lon="2.173">
        <ele>126</ele>
        <time>2014-01-26T09:44:12Z</time>
      </trkpt>
      <trkpt lat="47.87025" lon="2.17267">
        <ele>126</ele>
        <time>2014-01-26T09:44:16Z</time>
      </trkpt>
      <trkpt lat="47.87031" lon="2.17242">
        <ele>126</ele>
        <time>2014-01-26T09:44:20Z</time>
      </trkpt>
      <trkpt lat="47.87037" lon="2.17217">
        <ele>126</ele>
        <time>2014-01-26T09:44:24Z</time>
      </trkpt>
      <trkpt lat="47.87039" lon="2.1719">
        <ele>126</ele>
        <time>2014-01-26T09:44:28Z</time>
      </trkpt>
      <trkpt lat="47.87046" lon="2.1716">
        <ele>126</ele>
        <time>2014-01-26T09:44:32Z</time>
      </trkpt>
      <trkpt lat="47.87051" lon="2.1713">
        <ele>125</ele>
        <time>2014-01-26T09:44:36Z</time>
      </trkpt>
      <trkpt lat="47.87055" lon="2.17107">
        <ele>125</ele>
        <time>2014-01-26T09:44:40Z</time>
      </trkpt>
      <trkpt lat="47.87058" lon="2.17081">
        <ele>126</ele>
        <time>2014-01-26T09:44:44Z</time>
      </trkpt>
      <trkpt lat="47.87064" lon="2.17054">
        <ele>126</ele>
        <time>2014-01-26T09:44:48Z</time>
      </trkpt>
      <trkpt lat="47.87067" lon="2.17031">
        <ele>126</ele>
        <time>2014-01-26T09:44:52Z</time>
      </trkpt>
      <trkpt lat="47.87075" lon="2.17002">
        <ele>126</ele>
        <time>2014-01-26T09:44:56Z</time>
      </trkpt>
      <trkpt lat="47.87078" lon="2.16969">
        <ele>126</ele>
        <time>2014-01-26T09:45:00Z</time>
      </trkpt>
      <trkpt lat="47.87078" lon="2.16936">
        <ele>126</ele>
        <time>2014-01-26T09:45:04Z</time>
      </trkpt>
      <trkpt lat="47.87081" lon="2.16902">
        <ele>126</ele>
        <time>2014-01-26T09:45:08Z</time>
      </trkpt>
      <trkpt lat="47.87084" lon="2.16874">
        <ele>125</ele>
        <time>2014-01-26T09:45:12Z</time>
      </trkpt>
      <trkpt lat="47.87087" lon="2.16837">
        <ele>126</ele>
        <time>2014-01-26T09:45:16Z</time>
      </trkpt>
      <trkpt lat="47.87088" lon="2.16807">
        <ele>125</ele>
        <time>2014-01-26T09:45:20Z</time>
      </trkpt>
      <trkpt lat="47.87095" lon="2.16777">
        <ele>126</ele>
        <time>2014-01-26T09:45:24Z</time>
      </trkpt>
      <trkpt lat="47.871" lon="2.16752">
        <ele>126</ele>
        <time>2014-01-26T09:45:28Z</time>
      </trkpt>
      <trkpt lat="47.87105" lon="2.16719">
        <ele>126</ele>
        <time>2014-01-26T09:45:32Z</time>
      </trkpt>
      <trkpt lat="47.87114" lon="2.16688">
        <ele>126</ele>
        <time>2014-01-26T09:45:36Z</time>
      </trkpt>
      <trkpt lat="47.87121" lon="2.1666">
        <ele>126</ele>
        <time>2014-01-26T09:45:40Z</time>
      </trkpt>
      <trkpt lat="47.8713" lon="2.16632">
        <ele>127</ele>
        <time>2014-01-26T09:45:44Z</time>
      </trkpt>
      <trkpt lat="47.8714" lon="2.16604">
        <ele>126</ele>
        <time>2014-01-26T09:45:48Z</time>
      </trkpt>
      <trkpt lat="47.87151" lon="2.16579">
        <ele>127</ele>
        <time>2014-01-26T09:45:52Z</time>
      </trkpt>
      <trkpt lat="47.87162" lon="2.1655">
        <ele>126</ele>
        <time>2014-01-26T09:45:56Z</time>
      </trkpt>
      <trkpt lat="47.87173" lon="2.16522">
        <ele>126</ele>
        <time>2014-01-26T09:46:00Z</time>
      </trkpt>
      <trkpt lat="47.87184" lon="2.16495">
        <ele>126</ele>
        <time>2014-01-26T09:46:04Z</time>
      </trkpt>
      <trkpt lat="47.87196" lon="2.16469">
        <ele>126</ele>
        <time>2014-01-26T09:46:08Z</time>
      </trkpt>
      <trkpt lat="47.87209" lon="2.16441">
        <ele>126</ele>
        <time>2014-01-26T09:46:12Z</time>
      </trkpt>
      <trkpt lat="47.87221" lon="2.16412">
        <ele>126</ele>
        <time>2014-01-26T09:46:16Z</time>
      </trkpt>
      <trkpt lat="47.87231" lon="2.16384">
        <ele>126</ele>
        <time>2014-01-26T09:46:20Z</time>
      </trkpt>
      <trkpt lat="47.8724" lon="2.16354">
        <ele>126</ele>
        <time>2014-01-26T09:46:24Z</time>
      </trkpt>
      <trkpt lat="47.87254" lon="2.16328">
        <ele>125</ele>
        <time>2014-01-26T09:46:28Z</time>
      </trkpt>
      <trkpt lat="47.87266" lon="2.16299">
        <ele>126</ele>
        <time>2014-01-26T09:46:32Z</time>
      </trkpt>
      <trkpt lat="47.87278" lon="2.16269">
        <ele>125</ele>
        <time>2014-01-26T09:46:36Z</time>
      </trkpt>
      <trkpt lat="47.87287" lon="2.16238">
        <ele>125</ele>
        <time>2014-01-26T09:46:40Z</time>
      </trkpt>
      <trkpt lat="47.87296" lon="2.16205">
        <ele>125</ele>
        <time>2014-01-26T09:46:44Z</time>
      </trkpt>
      <trkpt lat="47.87313" lon="2.16173">
        <ele>125</ele>
        <time>2014-01-26T09:46:48Z</time>
      </trkpt>
      <trkpt lat="47.87323" lon="2.16146">
        <ele>125</ele>
        <time>2014-01-26T09:46:52Z</time>
      </trkpt>
      <trkpt lat="47.87343" lon="2.16119">
        <ele>125</ele>
        <time>2014-01-26T09:46:56Z</time>
      </trkpt>
      <trkpt lat="47.87349" lon="2.16085">
        <ele>125</ele>
        <time>2014-01-26T09:47:00Z</time>
      </trkpt>
      <trkpt lat="47.87364" lon="2.16053">
        <ele>125</ele>
        <time>2014-01-26T09:47:04Z</time>
      </trkpt>
      <trkpt lat="47.87373" lon="2.16026">
        <ele>124</ele>
        <time>2014-01-26T09:47:08Z</time>
      </trkpt>
      <trkpt lat="47.87381" lon="2.16">
        <ele>124</ele>
        <time>2014-01-26T09:47:12Z</time>
      </trkpt>
      <trkpt lat="47.87388" lon="2.1597">
        <ele>122</ele>
        <time>2014-01-26T09:47:16Z</time>
      </trkpt>
      <trkpt lat="47.87399" lon="2.1594">
        <ele>122</ele>
        <time>2014-01-26T09:47:20Z</time>
      </trkpt>
      <trkpt lat="47.87411" lon="2.15908">
        <ele>121</ele>
        <time>2014-01-26T09:47:24Z</time>
      </trkpt>
      <trkpt lat="47.87415" lon="2.15873">
        <ele>119</ele>
        <time>2014-01-26T09:47:28Z</time>
      </trkpt>
      <trkpt lat="47.87432" lon="2.15847">
        <ele>117</ele>
        <time>2014-01-26T09:47:32Z</time>
      </trkpt>
      <trkpt lat="47.87459" lon="2.15805">
        <ele>117</ele>
        <time>2014-01-26T09:47:36Z</time>
      </trkpt>
      <trkpt lat="47.8747" lon="2.15754">
        <ele>119</ele>
        <time>2014-01-26T09:47:40Z</time>
      </trkpt>
      <trkpt lat="47.87491" lon="2.15718">
        <ele>121</ele>
        <time>2014-01-26T09:47:44Z</time>
      </trkpt>
      <trkpt lat="47.87503" lon="2.15678">
        <ele>123</ele>
        <time>2014-01-26T09:47:48Z</time>
      </trkpt>
      <trkpt lat="47.87519" lon="2.15639">
        <ele>124</ele>
        <time>2014-01-26T09:47:52Z</time>
      </trkpt>
      <trkpt lat="47.87553" lon="2.15625">
        <ele>124</ele>
        <time>2014-01-26T09:47:56Z</time>
      </trkpt>
      <trkpt lat="47.87579" lon="2.15616">
        <ele>124</ele>
        <time>2014-01-26T09:48:00Z</time>
      </trkpt>
      <trkpt lat="47.87599" lon="2.15627">
        <ele>125</ele>
        <time>2014-01-26T09:48:04Z</time>
      </trkpt>
      <trkpt lat="47.87614" lon="2.15633">
        <ele>125</ele>
        <time>2014-01-26T09:48:08Z</time>
      </trkpt>
      <trkpt lat="47.87634" lon="2.15637">
        <ele>125</ele>
        <time>2014-01-26T09:48:12Z</time>
      </trkpt>
      <trkpt lat="47.87644" lon="2.15636">
        <ele>126</ele>
        <time>2014-01-26T09:48:16Z</time>
      </trkpt>
      <trkpt lat="47.87662" lon="2.15637">
        <ele>126</ele>
        <time>2014-01-26T09:48:20Z</time>
      </trkpt>
      <trkpt lat="47.87676" lon="2.1563">
        <ele>127</ele>
        <time>2014-01-26T09:48:24Z</time>
      </trkpt>
      <trkpt lat="47.87683" lon="2.15626">
        <ele>126</ele>
        <time>2014-01-26T09:48:28Z</time>
      </trkpt>
      <trkpt lat="47.8771" lon="2.15626">
        <ele>126</ele>
        <time>2014-01-26T09:48:32Z</time>
      </trkpt>
      <trkpt lat="47.87727" lon="2.15625">
        <ele>126</ele>
        <time>2014-01-26T09:48:36Z</time>
      </trkpt>
      <trkpt lat="47.87747" lon="2.15626">
        <ele>126</ele>
        <time>2014-01-26T09:48:40Z</time>
      </trkpt>
      <trkpt lat="47.87765" lon="2.15619">
        <ele>125</ele>
        <time>2014-01-26T09:48:44Z</time>
      </trkpt>
      <trkpt lat="47.87786" lon="2.15603">
        <ele>125</ele>
        <time>2014-01-26T09:48:48Z</time>
      </trkpt>
      <trkpt lat="47.87804" lon="2.15584">
        <ele>126</ele>
        <time>2014-01-26T09:48:52Z</time>
      </trkpt>
      <trkpt lat="47.87819" lon="2.15567">
        <ele>126</ele>
        <time>2014-01-26T09:48:56Z</time>
      </trkpt>
      <trkpt lat="47.87832" lon="2.15553">
        <ele>126</ele>
        <time>2014-01-26T09:49:00Z</time>
      </trkpt>
      <trkpt lat="47.87849" lon="2.1554">
        <ele>126</ele>
        <time>2014-01-26T09:49:04Z</time>
      </trkpt>
      <trkpt lat="47.87865" lon="2.15522">
        <ele>126</ele>
        <time>2014-01-26T09:49:08Z</time>
      </trkpt>
      <trkpt lat="47.87881" lon="2.15501">
        <ele>126</ele>
        <time>2014-01-26T09:49:12Z</time>
      </trkpt>
      <trkpt lat="47.87906" lon="2.15484">
        <ele>126</ele>
        <time>2014-01-26T09:49:16Z</time>
      </trkpt>
      <trkpt lat="47.87917" lon="2.15459">
        <ele>126</ele>
        <time>2014-01-26T09:49:20Z</time>
      </trkpt>
      <trkpt lat="47.87926" lon="2.15436">
        <ele>126</ele>
        <time>2014-01-26T09:49:24Z</time>
      </trkpt>
      <trkpt lat="47.87929" lon="2.15413">
        <ele>126</ele>
        <time>2014-01-26T09:49:28Z</time>
      </trkpt>
      <trkpt lat="47.87929" lon="2.1538">
        <ele>127</ele>
        <time>2014-01-26T09:49:32Z</time>
      </trkpt>
      <trkpt lat="47.87931" lon="2.15351">
        <ele>127</ele>
        <time>2014-01-26T09:49:36Z</time>
      </trkpt>
      <trkpt lat="47.87935" lon="2.15321">
        <ele>127</ele>
        <time>2014-01-26T09:49:40Z</time>
      </trkpt>
      <trkpt lat="47.87931" lon="2.15293">
        <ele>126</ele>
        <time>2014-01-26T09:49:44Z</time>
      </trkpt>
      <trkpt lat="47.87926" lon="2.15253">
        <ele>126</ele>
        <time>2014-01-26T09:49:48Z</time>
      </trkpt>
      <trkpt lat="47.87925" lon="2.15224">
        <ele>127</ele>
        <time>2014-01-26T09:49:52Z</time>
      </trkpt>
      <trkpt lat="47.87934" lon="2.15198">
        <ele>127</ele>
        <time>2014-01-26T09:49:56Z</time>
      </trkpt>
      <trkpt lat="47.87937" lon="2.15167">
        <ele>127</ele>
        <time>2014-01-26T09:50:00Z</time>
      </trkpt>
      <trkpt lat="47.87938" lon="2.15133">
        <ele>127</ele>
        <time>2014-01-26T09:50:04Z</time>
      </trkpt>
      <trkpt lat="47.87941" lon="2.15095">
        <ele>127</ele>
        <time>2014-01-26T09:50:08Z</time>
      </trkpt>
      <trkpt lat="47.87944" lon="2.15065">
        <ele>127</ele>
        <time>2014-01-26T09:50:12Z</time>
      </trkpt>
      <trkpt lat="47.87945" lon="2.15039">
        <ele>127</ele>
        <time>2014-01-26T09:50:16Z</time>
      </trkpt>
      <trkpt lat="47.87951" lon="2.15009">
        <ele>127</ele>
        <time>2014-01-26T09:50:20Z</time>
      </trkpt>
      <trkpt lat="47.87954" lon="2.14976">
        <ele>127</ele>
        <time>2014-01-26T09:50:24Z</time>
      </trkpt>
      <trkpt lat="47.87963" lon="2.14939">
        <ele>127</ele>
        <time>2014-01-26T09:50:28Z</time>
      </trkpt>
      <trkpt lat="47.87969" lon="2.1491">
        <ele>127</ele>
        <time>2014-01-26T09:50:32Z</time>
      </trkpt>
      <trkpt lat="47.87973" lon="2.1488">
        <ele>126</ele>
        <time>2014-01-26T09:50:36Z</time>
      </trkpt>
      <trkpt lat="47.87975" lon="2.14852">
        <ele>126</ele>
        <time>2014-01-26T09:50:40Z</time>
      </trkpt>
      <trkpt lat="47.87977" lon="2.1481">
        <ele>126</ele>
        <time>2014-01-26T09:50:44Z</time>
      </trkpt>
      <trkpt lat="47.87972" lon="2.14777">
        <ele>126</ele>
        <time>2014-01-26T09:50:48Z</time>
      </trkpt>
      <trkpt lat="47.87975" lon="2.14745">
        <ele>126</ele>
        <time>2014-01-26T09:50:52Z</time>
      </trkpt>
      <trkpt lat="47.87983" lon="2.14719">
        <ele>126</ele>
        <time>2014-01-26T09:50:56Z</time>
      </trkpt>
      <trkpt lat="47.8799" lon="2.14689">
        <ele>126</ele>
        <time>2014-01-26T09:51:00Z</time>
      </trkpt>
      <trkpt lat="47.87999" lon="2.1466">
        <ele>126</ele>
        <time>2014-01-26T09:51:04Z</time>
      </trkpt>
      <trkpt lat="47.88008" lon="2.14649">
        <ele>126</ele>
        <time>2014-01-26T09:51:08Z</time>
      </trkpt>
      <trkpt lat="47.88014" lon="2.14628">
        <ele>126</ele>
        <time>2014-01-26T09:51:12Z</time>
      </trkpt>
      <trkpt lat="47.88031" lon="2.14615">
        <ele>126</ele>
        <time>2014-01-26T09:51:16Z</time>
      </trkpt>
      <trkpt lat="47.8805" lon="2.14603">
        <ele>125</ele>
        <time>2014-01-26T09:51:20Z</time>
      </trkpt>
      <trkpt lat="47.88068" lon="2.14594">
        <ele>125</ele>
        <time>2014-01-26T09:51:24Z</time>
      </trkpt>
      <trkpt lat="47.88084" lon="2.14581">
        <ele>125</ele>
        <time>2014-01-26T09:51:28Z</time>
      </trkpt>
      <trkpt lat="47.88097" lon="2.14562">
        <ele>125</ele>
        <time>2014-01-26T09:51:32Z</time>
      </trkpt>
      <trkpt lat="47.88118" lon="2.14545">
        <ele>124</ele>
        <time>2014-01-26T09:51:36Z</time>
      </trkpt>
      <trkpt lat="47.88132" lon="2.14533">
        <ele>124</ele>
        <time>2014-01-26T09:51:40Z</time>
      </trkpt>
      <trkpt lat="47.88151" lon="2.1451">
        <ele>125</ele>
        <time>2014-01-26T09:51:44Z</time>
      </trkpt>
      <trkpt lat="47.88175" lon="2.14494">
        <ele>125</ele>
        <time>2014-01-26T09:51:48Z</time>
      </trkpt>
      <trkpt lat="47.88186" lon="2.14472">
        <ele>126</ele>
        <time>2014-01-26T09:51:52Z</time>
      </trkpt>
      <trkpt lat="47.88209" lon="2.14455">
        <ele>126</ele>
        <time>2014-01-26T09:51:56Z</time>
      </trkpt>
      <trkpt lat="47.88235" lon="2.1444">
        <ele>126</ele>
        <time>2014-01-26T09:52:00Z</time>
      </trkpt>
      <trkpt lat="47.88252" lon="2.1442">
        <ele>126</ele>
        <time>2014-01-26T09:52:04Z</time>
      </trkpt>
      <trkpt lat="47.88266" lon="2.14404">
        <ele>126</ele>
        <time>2014-01-26T09:52:08Z</time>
      </trkpt>
      <trkpt lat="47.88292" lon="2.14382">
        <ele>126</ele>
        <time>2014-01-26T09:52:12Z</time>
      </trkpt>
      <trkpt lat="47.8831" lon="2.14357">
        <ele>125</ele>
        <time>2014-01-26T09:52:16Z</time>
      </trkpt>
      <trkpt lat="47.88328" lon="2.14328">
        <ele>125</ele>
        <time>2014-01-26T09:52:20Z</time>
      </trkpt>
      <trkpt lat="47.88337" lon="2.14298">
        <ele>124</ele>
        <time>2014-01-26T09:52:24Z</time>
      </trkpt>
      <trkpt lat="47.88344" lon="2.14265">
        <ele>124</ele>
        <time>2014-01-26T09:52:28Z</time>
      </trkpt>
      <trkpt lat="47.88349" lon="2.1423">
        <ele>123</ele>
        <time>2014-01-26T09:52:32Z</time>
      </trkpt>
      <trkpt lat="47.88355" lon="2.14197">
        <ele>123</ele>
        <time>2014-01-26T09:52:36Z</time>
      </trkpt>
      <trkpt lat="47.88362" lon="2.14165">
        <ele>123</ele>
        <time>2014-01-26T09:52:40Z</time>
      </trkpt>
      <trkpt lat="47.88373" lon="2.14137">
        <ele>124</ele>
        <time>2014-01-26T09:52:44Z</time>
      </trkpt>
      <trkpt lat="47.8838" lon="2.1411">
        <ele>124</ele>
        <time>2014-01-26T09:52:48Z</time>
      </trkpt>
      <trkpt lat="47.88387" lon="2.14082">
        <ele>124</ele>
        <time>2014-01-26T09:52:52Z</time>
      </trkpt>
      <trkpt lat="47.8839" lon="2.14057">
        <ele>125</ele>
        <time>2014-01-26T09:52:56Z</time>
      </trkpt>
      <trkpt lat="47.88395" lon="2.14037">
        <ele>125</ele>
        <time>2014-01-26T09:53:00Z</time>
      </trkpt>
      <trkpt lat="47.8841" lon="2.14049">
        <ele>125</ele>
        <time>2014-01-26T09:53:04Z</time>
      </trkpt>
      <trkpt lat="47.88423" lon="2.14067">
        <ele>126</ele>
        <time>2014-01-26T09:53:08Z</time>
      </trkpt>
      <trkpt lat="47.8844" lon="2.14086">
        <ele>127</ele>
        <time>2014-01-26T09:53:12Z</time>
      </trkpt>
      <trkpt lat="47.88458" lon="2.14108">
        <ele>127</ele>
        <time>2014-01-26T09:53:16Z</time>
      </trkpt>
      <trkpt lat="47.88474" lon="2.14124">
        <ele>127</ele>
        <time>2014-01-26T09:53:20Z</time>
      </trkpt>
      <trkpt lat="47.88492" lon="2.14139">
        <ele>127</ele>
        <time>2014-01-26T09:53:24Z</time>
      </trkpt>
      <trkpt lat="47.88513" lon="2.14161">
        <ele>127</ele>
        <time>2014-01-26T09:53:28Z</time>
      </trkpt>
      <trkpt lat="47.88531" lon="2.1418">
        <ele>127</ele>
        <time>2014-01-26T09:53:32Z</time>
      </trkpt>
      <trkpt lat="47.88551" lon="2.14203">
        <ele>127</ele>
        <time>2014-01-26T09:53:36Z</time>
      </trkpt>
      <trkpt lat="47.88568" lon="2.14214">
        <ele>127</ele>
        <time>2014-01-26T09:53:40Z</time>
      </trkpt>
      <trkpt lat="47.88591" lon="2.14209">
        <ele>127</ele>
        <time>2014-01-26T09:53:44Z</time>
      </trkpt>
      <trkpt lat="47.88612" lon="2.14193">
        <ele>127</ele>
        <time>2014-01-26T09:53:48Z</time>
      </trkpt>
      <trkpt lat="47.88631" lon="2.14176">
        <ele>127</ele>
        <time>2014-01-26T09:53:52Z</time>
      </trkpt>
      <trkpt lat="47.88656" lon="2.14161">
        <ele>127</ele>
        <time>2014-01-26T09:53:56Z</time>
      </trkpt>
      <trkpt lat="47.88681" lon="2.14144">
        <ele>127</ele>
        <time>2014-01-26T09:54:00Z</time>
      </trkpt>
      <trkpt lat="47.88702" lon="2.14125">
        <ele>127</ele>
        <time>2014-01-26T09:54:04Z</time>
      </trkpt>
      <trkpt lat="47.88718" lon="2.14109">
        <ele>127</ele>
        <time>2014-01-26T09:54:08Z</time>
      </trkpt>
      <trkpt lat="47.88741" lon="2.14092">
        <ele>127</ele>
        <time>2014-01-26T09:54:12Z</time>
      </trkpt>
      <trkpt lat="47.88761" lon="2.14076">
        <ele>128</ele>
        <time>2014-01-26T09:54:16Z</time>
      </trkpt>
      <trkpt lat="47.88777" lon="2.14058">
        <ele>128</ele>
        <time>2014-01-26T09:54:20Z</time>
      </trkpt>
      <trkpt lat="47.88797" lon="2.1404">
        <ele>128</ele>
        <time>2014-01-26T09:54:24Z</time>
      </trkpt>
      <trkpt lat="47.88824" lon="2.14025">
        <ele>128</ele>
        <time>2014-01-26T09:54:28Z</time>
      </trkpt>
      <trkpt lat="47.88838" lon="2.14007">
        <ele>128</ele>
        <time>2014-01-26T09:54:32Z</time>
      </trkpt>
      <trkpt lat="47.88862" lon="2.1399">
        <ele>128</ele>
        <time>2014-01-26T09:54:36Z</time>
      </trkpt>
      <trkpt lat="47.88882" lon="2.13976">
        <ele>128</ele>
        <time>2014-01-26T09:54:40Z</time>
      </trkpt>
      <trkpt lat="47.88903" lon="2.13961">
        <ele>128</ele>
        <time>2014-01-26T09:54:44Z</time>
      </trkpt>
      <trkpt lat="47.88926" lon="2.13945">
        <ele>128</ele>
        <time>2014-01-26T09:54:48Z</time>
      </trkpt>
      <trkpt lat="47.88949" lon="2.13929">
        <ele>128</ele>
        <time>2014-01-26T09:54:52Z</time>
      </trkpt>
      <trkpt lat="47.8897" lon="2.13914">
        <ele>128</ele>
        <time>2014-01-26T09:54:56Z</time>
      </trkpt>
      <trkpt lat="47.88991" lon="2.13897">
        <ele>128</ele>
        <time>2014-01-26T09:55:00Z</time>
      </trkpt>
      <trkpt lat="47.89009" lon="2.13882">
        <ele>128</ele>
        <time>2014-01-26T09:55:04Z</time>
      </trkpt>
      <trkpt lat="47.8903" lon="2.13867">
        <ele>128</ele>
        <time>2014-01-26T09:55:08Z</time>
      </trkpt>
      <trkpt lat="47.89051" lon="2.13851">
        <ele>129</ele>
        <time>2014-01-26T09:55:12Z</time>
      </trkpt>
      <trkpt lat="47.89066" lon="2.13833">
        <ele>128</ele>
        <time>2014-01-26T09:55:16Z</time>
      </trkpt>
      <trkpt lat="47.89086" lon="2.13817">
        <ele>129</ele>
        <time>2014-01-26T09:55:20Z</time>
      </trkpt>
      <trkpt lat="47.89105" lon="2.13802">
        <ele>128</ele>
        <time>2014-01-26T09:55:24Z</time>
      </trkpt>
      <trkpt lat="47.89121" lon="2.13785">
        <ele>128</ele>
        <time>2014-01-26T09:55:28Z</time>
      </trkpt>
      <trkpt lat="47.89141" lon="2.13769">
        <ele>128</ele>
        <time>2014-01-26T09:55:32Z</time>
      </trkpt>
      <trkpt lat="47.89163" lon="2.13757">
        <ele>128</ele>
        <time>2014-01-26T09:55:36Z</time>
      </trkpt>
      <trkpt lat="47.8918" lon="2.13738">
        <ele>128</ele>
        <time>2014-01-26T09:55:40Z</time>
      </trkpt>
      <trkpt lat="47.89196" lon="2.13722">
        <ele>128</ele>
        <time>2014-01-26T09:55:44Z</time>
      </trkpt>
      <trkpt lat="47.89219" lon="2.13707">
        <ele>128</ele>
        <time>2014-01-26T09:55:48Z</time>
      </trkpt>
      <trkpt lat="47.89238" lon="2.13693">
        <ele>128</ele>
        <time>2014-01-26T09:55:52Z</time>
      </trkpt>
      <trkpt lat="47.89259" lon="2.1368">
        <ele>127</ele>
        <time>2014-01-26T09:55:56Z</time>
      </trkpt>
      <trkpt lat="47.89279" lon="2.13665">
        <ele>128</ele>
        <time>2014-01-26T09:56:00Z</time>
      </trkpt>
      <trkpt lat="47.893" lon="2.1365">
        <ele>127</ele>
        <time>2014-01-26T09:56:04Z</time>
      </trkpt>
      <trkpt lat="47.89315" lon="2.13636">
        <ele>127</ele>
        <time>2014-01-26T09:56:08Z</time>
      </trkpt>
      <trkpt lat="47.89332" lon="2.13619">
        <ele>127</ele>
        <time>2014-01-26T09:56:12Z</time>
      </trkpt>
      <trkpt lat="47.8935" lon="2.13605">
        <ele>128</ele>
        <time>2014-01-26T09:56:16Z</time>
      </trkpt>
      <trkpt lat="47.8937" lon="2.13594">
        <ele>128</ele>
        <time>2014-01-26T09:56:20Z</time>
      </trkpt>
      <trkpt lat="47.89391" lon="2.13579">
        <ele>128</ele>
        <time>2014-01-26T09:56:24Z</time>
      </trkpt>
      <trkpt lat="47.89412" lon="2.13563">
        <ele>128</ele>
        <time>2014-01-26T09:56:28Z</time>
      </trkpt>
      <trkpt lat="47.89432" lon="2.13551">
        <ele>127</ele>
        <time>2014-01-26T09:56:32Z</time>
      </trkpt>
      <trkpt lat="47.89448" lon="2.13533">
        <ele>127</ele>
        <time>2014-01-26T09:56:36Z</time>
      </trkpt>
      <trkpt lat="47.89464" lon="2.13514">
        <ele>127</ele>
        <time>2014-01-26T09:56:40Z</time>
      </trkpt>
      <trkpt lat="47.8948" lon="2.135">
        <ele>127</ele>
        <time>2014-01-26T09:56:44Z</time>
      </trkpt>
      <trkpt lat="47.89503" lon="2.13482">
        <ele>127</ele>
        <time>2014-01-26T09:56:48Z</time>
      </trkpt>
      <trkpt lat="47.89524" lon="2.1347">
        <ele>127</ele>
        <time>2014-01-26T09:56:52Z</time>
      </trkpt>
      <trkpt lat="47.8954" lon="2.13454">
        <ele>127</ele>
        <time>2014-01-26T09:56:56Z</time>
      </trkpt>
      <trkpt lat="47.8956" lon="2.13439">
        <ele>126</ele>
        <time>2014-01-26T09:57:00Z</time>
      </trkpt>
      <trkpt lat="47.89575" lon="2.13423">
        <ele>126</ele>
        <time>2014-01-26T09:57:04Z</time>
      </trkpt>
      <trkpt lat="47.89595" lon="2.1341">
        <ele>126</ele>
        <time>2014-01-26T09:57:08Z</time>
      </trkpt>
      <trkpt lat="47.89613" lon="2.13398">
        <ele>125</ele>
        <time>2014-01-26T09:57:12Z</time>
      </trkpt>
      <trkpt lat="47.89628" lon="2.13385">
        <ele>126</ele>
        <time>2014-01-26T09:57:16Z</time>
      </trkpt>
      <trkpt lat="47.89629" lon="2.13364">
        <ele>126</ele>
        <time>2014-01-26T09:57:20Z</time>
      </trkpt>
      <trkpt lat="47.89626" lon="2.13343">
        <ele>126</ele>
        <time>2014-01-26T09:57:24Z</time>
      </trkpt>
      <trkpt lat="47.89627" lon="2.13316">
        <ele>126</ele>
        <time>2014-01-26T09:57:28Z</time>
      </trkpt>
      <trkpt lat="47.89626" lon="2.13289">
        <ele>126</ele>
        <time>2014-01-26T09:57:32Z</time>
      </trkpt>
      <trkpt lat="47.89632" lon="2.13259">
        <ele>125</ele>
        <time>2014-01-26T09:57:36Z</time>
      </trkpt>
      <trkpt lat="47.8963" lon="2.13223">
        <ele>126</ele>
        <time>2014-01-26T09:57:40Z</time>
      </trkpt>
      <trkpt lat="47.89628" lon="2.13186">
        <ele>126</ele>
        <time>2014-01-26T09:57:44Z</time>
      </trkpt>
      <trkpt lat="47.89635" lon="2.1316">
        <ele>126</ele>
        <time>2014-01-26T09:57:48Z</time>
      </trkpt>
      <trkpt lat="47.89637" lon="2.13129">
        <ele>126</ele>
        <time>2014-01-26T09:57:52Z</time>
      </trkpt>
      <trkpt lat="47.89632" lon="2.13098">
        <ele>126</ele>
        <time>2014-01-26T09:57:56Z</time>
      </trkpt>
      <trkpt lat="47.89629" lon="2.13065">
        <ele>125</ele>
        <time>2014-01-26T09:58:00Z</time>
      </trkpt>
      <trkpt lat="47.89638" lon="2.13041">
        <ele>126</ele>
        <time>2014-01-26T09:58:04Z</time>
      </trkpt>
      <trkpt lat="47.89635" lon="2.13003">
        <ele>126</ele>
        <time>2014-01-26T09:58:08Z</time>
      </trkpt>
      <trkpt lat="47.89636" lon="2.12962">
        <ele>126</ele>
        <time>2014-01-26T09:58:12Z</time>
      </trkpt>
      <trkpt lat="47.89641" lon="2.12929">
        <ele>126</ele>
        <time>2014-01-26T09:58:16Z</time>
      </trkpt>
      <trkpt lat="47.8964" lon="2.12896">
        <ele>126</ele>
        <time>2014-01-26T09:58:20Z</time>
      </trkpt>
      <trkpt lat="47.89648" lon="2.1287">
        <ele>126</ele>
        <time>2014-01-26T09:58:24Z</time>
      </trkpt>
      <trkpt lat="47.89647" lon="2.12845">
        <ele>126</ele>
        <time>2014-01-26T09:58:32Z</time>
      </trkpt>
      <trkpt lat="47.89645" lon="2.12809">
        <ele>126</ele>
        <time>2014-01-26T09:58:36Z</time>
      </trkpt>
      <trkpt lat="47.89649" lon="2.12794">
        <ele>126</ele>
        <time>2014-01-26T09:58:40Z</time>
      </trkpt>
      <trkpt lat="47.8966" lon="2.12782">
        <ele>126</ele>
        <time>2014-01-26T09:58:48Z</time>
      </trkpt>
      <trkpt lat="47.89672" lon="2.12765">
        <ele>126</ele>
        <time>2014-01-26T09:58:52Z</time>
      </trkpt>
      <trkpt lat="47.89683" lon="2.12739">
        <ele>126</ele>
        <time>2014-01-26T09:58:56Z</time>
      </trkpt>
      <trkpt lat="47.89689" lon="2.1271">
        <ele>126</ele>
        <time>2014-01-26T09:59:00Z</time>
      </trkpt>
      <trkpt lat="47.8969" lon="2.12681">
        <ele>125</ele>
        <time>2014-01-26T09:59:04Z</time>
      </trkpt>
      <trkpt lat="47.89695" lon="2.12635">
        <ele>126</ele>
        <time>2014-01-26T09:59:12Z</time>
      </trkpt>
      <trkpt lat="47.89703" lon="2.1259">
        <ele>125</ele>
        <time>2014-01-26T09:59:16Z</time>
      </trkpt>
      <trkpt lat="47.89707" lon="2.12541">
        <ele>126</ele>
        <time>2014-01-26T09:59:20Z</time>
      </trkpt>
      <trkpt lat="47.8971" lon="2.12507">
        <ele>125</ele>
        <time>2014-01-26T09:59:28Z</time>
      </trkpt>
      <trkpt lat="47.89707" lon="2.12462">
        <ele>126</ele>
        <time>2014-01-26T09:59:32Z</time>
      </trkpt>
      <trkpt lat="47.89709" lon="2.12424">
        <ele>125</ele>
        <time>2014-01-26T09:59:36Z</time>
      </trkpt>
      <trkpt lat="47.89716" lon="2.12387">
        <ele>126</ele>
        <time>2014-01-26T09:59:44Z</time>
      </trkpt>
      <trkpt lat="47.89723" lon="2.12346">
        <ele>125</ele>
        <time>2014-01-26T09:59:48Z</time>
      </trkpt>
      <trkpt lat="47.89724" lon="2.12299">
        <ele>125</ele>
        <time>2014-01-26T09:59:56Z</time>
      </trkpt>
      <trkpt lat="47.89726" lon="2.12265">
        <ele>126</ele>
        <time>2014-01-26T10:00:00Z</time>
      </trkpt>
      <trkpt lat="47.89728" lon="2.12239">
        <ele>126</ele>
        <time>2014-01-26T10:00:04Z</time>
      </trkpt>
      <trkpt lat="47.8973" lon="2.1221">
        <ele>126</ele>
        <time>2014-01-26T10:00:08Z</time>
      </trkpt>
      <trkpt lat="47.89732" lon="2.12179">
        <ele>125</ele>
        <time>2014-01-26T10:00:12Z</time>
      </trkpt>
      <trkpt lat="47.89734" lon="2.12152">
        <ele>125</ele>
        <time>2014-01-26T10:00:16Z</time>
      </trkpt>
      <trkpt lat="47.89738" lon="2.12123">
        <ele>125</ele>
        <time>2014-01-26T10:00:20Z</time>
      </trkpt>
      <trkpt lat="47.8974" lon="2.1209">
        <ele>125</ele>
        <time>2014-01-26T10:00:24Z</time>
      </trkpt>
      <trkpt lat="47.89747" lon="2.12062">
        <ele>125</ele>
        <time>2014-01-26T10:00:28Z</time>
      </trkpt>
      <trkpt lat="47.89756" lon="2.1204">
        <ele>125</ele>
        <time>2014-01-26T10:00:32Z</time>
      </trkpt>
      <trkpt lat="47.89758" lon="2.1201">
        <ele>125</ele>
        <time>2014-01-26T10:00:36Z</time>
      </trkpt>
      <trkpt lat="47.89764" lon="2.11981">
        <ele>125</ele>
        <time>2014-01-26T10:00:40Z</time>
      </trkpt>
      <trkpt lat="47.89766" lon="2.11951">
        <ele>125</ele>
        <time>2014-01-26T10:00:44Z</time>
      </trkpt>
      <trkpt lat="47.89768" lon="2.11921">
        <ele>125</ele>
        <time>2014-01-26T10:00:48Z</time>
      </trkpt>
      <trkpt lat="47.8977" lon="2.11891">
        <ele>125</ele>
        <time>2014-01-26T10:00:52Z</time>
      </trkpt>
      <trkpt lat="47.89775" lon="2.11865">
        <ele>125</ele>
        <time>2014-01-26T10:00:56Z</time>
      </trkpt>
      <trkpt lat="47.89781" lon="2.1184">
        <ele>125</ele>
        <time>2014-01-26T10:01:00Z</time>
      </trkpt>
      <trkpt lat="47.89788" lon="2.11805">
        <ele>124</ele>
        <time>2014-01-26T10:01:04Z</time>
      </trkpt>
      <trkpt lat="47.89787" lon="2.11763">
        <ele>124</ele>
        <time>2014-01-26T10:01:08Z</time>
      </trkpt>
      <trkpt lat="47.89779" lon="2.11733">
        <ele>124</ele>
        <time>2014-01-26T10:01:12Z</time>
      </trkpt>
      <trkpt lat="47.8978" lon="2.11701">
        <ele>125</ele>
        <time>2014-01-26T10:01:16Z</time>
      </trkpt>
      <trkpt lat="47.89788" lon="2.11693">
        <ele>125</ele>
        <time>2014-01-26T10:01:20Z</time>
      </trkpt>
      <trkpt lat="47.89807" lon="2.11693">
        <ele>124</ele>
        <time>2014-01-26T10:01:24Z</time>
      </trkpt>
      <trkpt lat="47.89829" lon="2.11694">
        <ele>124</ele>
        <time>2014-01-26T10:01:28Z</time>
      </trkpt>
      <trkpt lat="47.89847" lon="2.11692">
        <ele>124</ele>
        <time>2014-01-26T10:01:32Z</time>
      </trkpt>
      <trkpt lat="47.89868" lon="2.11704">
        <ele>124</ele>
        <time>2014-01-26T10:01:36Z</time>
      </trkpt>
      <trkpt lat="47.89891" lon="2.11706">
        <ele>125</ele>
        <time>2014-01-26T10:01:40Z</time>
      </trkpt>
      <trkpt lat="47.8991" lon="2.1171">
        <ele>125</ele>
        <time>2014-01-26T10:01:44Z</time>
      </trkpt>
      <trkpt lat="47.89933" lon="2.11715">
        <ele>124</ele>
        <time>2014-01-26T10:01:48Z</time>
      </trkpt>
      <trkpt lat="47.89958" lon="2.11719">
        <ele>124</ele>
        <time>2014-01-26T10:01:52Z</time>
      </trkpt>
      <trkpt lat="47.89981" lon="2.11726">
        <ele>123</ele>
        <time>2014-01-26T10:01:56Z</time>
      </trkpt>
      <trkpt lat="47.90002" lon="2.11724">
        <ele>124</ele>
        <time>2014-01-26T10:02:00Z</time>
      </trkpt>
      <trkpt lat="47.90023" lon="2.11727">
        <ele>124</ele>
        <time>2014-01-26T10:02:04Z</time>
      </trkpt>
      <trkpt lat="47.9004" lon="2.11723">
        <ele>124</ele>
        <time>2014-01-26T10:02:08Z</time>
      </trkpt>
      <trkpt lat="47.90065" lon="2.11721">
        <ele>123</ele>
        <time>2014-01-26T10:02:12Z</time>
      </trkpt>
      <trkpt lat="47.90089" lon="2.11717">
        <ele>122</ele>
        <time>2014-01-26T10:02:16Z</time>
      </trkpt>
      <trkpt lat="47.90123" lon="2.11719">
        <ele>121</ele>
        <time>2014-01-26T10:02:20Z</time>
      </trkpt>
      <trkpt lat="47.90143" lon="2.11716">
        <ele>119</ele>
        <time>2014-01-26T10:02:24Z</time>
      </trkpt>
      <trkpt lat="47.90171" lon="2.11721">
        <ele>118</ele>
        <time>2014-01-26T10:02:28Z</time>
      </trkpt>
      <trkpt lat="47.90208" lon="2.11719">
        <ele>117</ele>
        <time>2014-01-26T10:02:32Z</time>
      </trkpt>
      <trkpt lat="47.9023" lon="2.1172">
        <ele>116</ele>
        <time>2014-01-26T10:02:36Z</time>
      </trkpt>
      <trkpt lat="47.9026" lon="2.11712">
        <ele>114</ele>
        <time>2014-01-26T10:02:40Z</time>
      </trkpt>
      <trkpt lat="47.90264" lon="2.11694">
        <ele>113</ele>
        <time>2014-01-26T10:02:48Z</time>
      </trkpt>
      <trkpt lat="47.90304" lon="2.117">
        <ele>113</ele>
        <time>2014-01-26T10:02:52Z</time>
      </trkpt>
      <trkpt lat="47.90334" lon="2.11697">
        <ele>112</ele>
        <time>2014-01-26T10:02:56Z</time>
      </trkpt>
      <trkpt lat="47.90361" lon="2.11697">
        <ele>112</ele>
        <time>2014-01-26T10:03:00Z</time>
      </trkpt>
      <trkpt lat="47.90389" lon="2.11696">
        <ele>112</ele>
        <time>2014-01-26T10:03:04Z</time>
      </trkpt>
      <trkpt lat="47.90407" lon="2.11675">
        <ele>111</ele>
        <time>2014-01-26T10:03:08Z</time>
      </trkpt>
      <trkpt lat="47.90408" lon="2.11645">
        <ele>111</ele>
        <time>2014-01-26T10:03:12Z</time>
      </trkpt>
      <trkpt lat="47.90409" lon="2.11616">
        <ele>111</ele>
        <time>2014-01-26T10:03:16Z</time>
      </trkpt>
      <trkpt lat="47.9041" lon="2.11592">
        <ele>112</ele>
        <time>2014-01-26T10:03:20Z</time>
      </trkpt>
      <trkpt lat="47.90407" lon="2.11559">
        <ele>111</ele>
        <time>2014-01-26T10:03:24Z</time>
      </trkpt>
      <trkpt lat="47.90405" lon="2.11527">
        <ele>111</ele>
        <time>2014-01-26T10:03:28Z</time>
      </trkpt>
      <trkpt lat="47.90397" lon="2.11491">
        <ele>111</ele>
        <time>2014-01-26T10:03:32Z</time>
      </trkpt>
      <trkpt lat="47.9039" lon="2.11454">
        <ele>111</ele>
        <time>2014-01-26T10:03:36Z</time>
      </trkpt>
      <trkpt lat="47.90389" lon="2.11425">
        <ele>111</ele>
        <time>2014-01-26T10:03:40Z</time>
      </trkpt>
      <trkpt lat="47.90393" lon="2.11395">
        <ele>111</ele>
        <time>2014-01-26T10:03:44Z</time>
      </trkpt>
      <trkpt lat="47.90389" lon="2.11356">
        <ele>111</ele>
        <time>2014-01-26T10:03:48Z</time>
      </trkpt>
      <trkpt lat="47.90393" lon="2.11328">
        <ele>110</ele>
        <time>2014-01-26T10:03:52Z</time>
      </trkpt>
      <trkpt lat="47.90396" lon="2.11296">
        <ele>111</ele>
        <time>2014-01-26T10:03:56Z</time>
      </trkpt>
      <trkpt lat="47.90402" lon="2.11272">
        <ele>111</ele>
        <time>2014-01-26T10:04:00Z</time>
      </trkpt>
      <trkpt lat="47.90406" lon="2.11241">
        <ele>111</ele>
        <time>2014-01-26T10:04:04Z</time>
      </trkpt>
      <trkpt lat="47.90412" lon="2.11219">
        <ele>111</ele>
        <time>2014-01-26T10:04:08Z</time>
      </trkpt>
      <trkpt lat="47.90411" lon="2.11187">
        <ele>111</ele>
        <time>2014-01-26T10:04:12Z</time>
      </trkpt>
      <trkpt lat="47.90418" lon="2.11171">
        <ele>112</ele>
        <time>2014-01-26T10:04:16Z</time>
      </trkpt>
      <trkpt lat="47.90418" lon="2.11144">
        <ele>112</ele>
        <time>2014-01-26T10:04:20Z</time>
      </trkpt>
      <trkpt lat="47.90431" lon="2.1113">
        <ele>113</ele>
        <time>2014-01-26T10:04:24Z</time>
      </trkpt>
      <trkpt lat="47.9044" lon="2.11111">
        <ele>113</ele>
        <time>2014-01-26T10:04:28Z</time>
      </trkpt>
      <trkpt lat="47.90459" lon="2.111">
        <ele>115</ele>
        <time>2014-01-26T10:04:32Z</time>
      </trkpt>
      <trkpt lat="47.90471" lon="2.11086">
        <ele>116</ele>
        <time>2014-01-26T10:04:36Z</time>
      </trkpt>
      <trkpt lat="47.90486" lon="2.11073">
        <ele>115</ele>
        <time>2014-01-26T10:04:40Z</time>
      </trkpt>
      <trkpt lat="47.90499" lon="2.11064">
        <ele>116</ele>
        <time>2014-01-26T10:04:44Z</time>
      </trkpt>
      <trkpt lat="47.90511" lon="2.11059">
        <ele>116</ele>
        <time>2014-01-26T10:04:48Z</time>
      </trkpt>
      <trkpt lat="47.90525" lon="2.11056">
        <ele>116</ele>
        <time>2014-01-26T10:04:52Z</time>
      </trkpt>
      <trkpt lat="47.90539" lon="2.11047">
        <ele>116</ele>
        <time>2014-01-26T10:04:56Z</time>
      </trkpt>
      <trkpt lat="47.90559" lon="2.1104">
        <ele>116</ele>
        <time>2014-01-26T10:05:00Z</time>
      </trkpt>
      <trkpt lat="47.90572" lon="2.11033">
        <ele>115</ele>
        <time>2014-01-26T10:05:04Z</time>
      </trkpt>
      <trkpt lat="47.90595" lon="2.11027">
        <ele>115</ele>
        <time>2014-01-26T10:05:08Z</time>
      </trkpt>
      <trkpt lat="47.90612" lon="2.11019">
        <ele>115</ele>
        <time>2014-01-26T10:05:12Z</time>
      </trkpt>
      <trkpt lat="47.90629" lon="2.11012">
        <ele>115</ele>
        <time>2014-01-26T10:05:16Z</time>
      </trkpt>
      <trkpt lat="47.90651" lon="2.11002">
        <ele>114</ele>
        <time>2014-01-26T10:05:20Z</time>
      </trkpt>
      <trkpt lat="47.90671" lon="2.10992">
        <ele>114</ele>
        <time>2014-01-26T10:05:24Z</time>
      </trkpt>
      <trkpt lat="47.90689" lon="2.10979">
        <ele>113</ele>
        <time>2014-01-26T10:05:28Z</time>
      </trkpt>
      <trkpt lat="47.90706" lon="2.10965">
        <ele>113</ele>
        <time>2014-01-26T10:05:32Z</time>
      </trkpt>
      <trkpt lat="47.90724" lon="2.10946">
        <ele>113</ele>
        <time>2014-01-26T10:05:36Z</time>
      </trkpt>
      <trkpt lat="47.90744" lon="2.10925">
        <ele>113</ele>
        <time>2014-01-26T10:05:40Z</time>
      </trkpt>
      <trkpt lat="47.90763" lon="2.10903">
        <ele>113</ele>
        <time>2014-01-26T10:05:44Z</time>
      </trkpt>
      <trkpt lat="47.90782" lon="2.10879">
        <ele>112</ele>
        <time>2014-01-26T10:05:48Z</time>
      </trkpt>
      <trkpt lat="47.908" lon="2.10853">
        <ele>111</ele>
        <time>2014-01-26T10:05:52Z</time>
      </trkpt>
      <trkpt lat="47.90814" lon="2.10822">
        <ele>111</ele>
        <time>2014-01-26T10:05:56Z</time>
      </trkpt>
      <trkpt lat="47.90827" lon="2.10793">
        <ele>112</ele>
        <time>2014-01-26T10:06:00Z</time>
      </trkpt>
      <trkpt lat="47.90844" lon="2.10755">
        <ele>111</ele>
        <time>2014-01-26T10:06:08Z</time>
      </trkpt>
      <trkpt lat="47.9086" lon="2.10719">
        <ele>110</ele>
        <time>2014-01-26T10:06:12Z</time>
      </trkpt>
      <trkpt lat="47.90873" lon="2.10691">
        <ele>110</ele>
        <time>2014-01-26T10:06:16Z</time>
      </trkpt>
      <trkpt lat="47.90888" lon="2.10665">
        <ele>109</ele>
        <time>2014-01-26T10:06:20Z</time>
      </trkpt>
      <trkpt lat="47.90904" lon="2.1064">
        <ele>110</ele>
        <time>2014-01-26T10:06:24Z</time>
      </trkpt>
      <trkpt lat="47.90918" lon="2.10615">
        <ele>110</ele>
        <time>2014-01-26T10:06:28Z</time>
      </trkpt>
      <trkpt lat="47.90933" lon="2.10589">
        <ele>110</ele>
        <time>2014-01-26T10:06:32Z</time>
      </trkpt>
      <trkpt lat="47.90948" lon="2.10564">
        <ele>110</ele>
        <time>2014-01-26T10:06:36Z</time>
      </trkpt>
      <trkpt lat="47.90961" lon="2.10539">
        <ele>110</ele>
        <time>2014-01-26T10:06:40Z</time>
      </trkpt>
      <trkpt lat="47.90974" lon="2.10514">
        <ele>110</ele>
        <time>2014-01-26T10:06:44Z</time>
      </trkpt>
      <trkpt lat="47.90992" lon="2.10493">
        <ele>110</ele>
        <time>2014-01-26T10:06:48Z</time>
      </trkpt>
      <trkpt lat="47.91009" lon="2.1047">
        <ele>110</ele>
        <time>2014-01-26T10:06:52Z</time>
      </trkpt>
      <trkpt lat="47.91012" lon="2.10448">
        <ele>110</ele>
        <time>2014-01-26T10:06:56Z</time>
      </trkpt>
      <trkpt lat="47.91025" lon="2.10426">
        <ele>110</ele>
        <time>2014-01-26T10:07:00Z</time>
      </trkpt>
      <trkpt lat="47.91045" lon="2.10416">
        <ele>110</ele>
        <time>2014-01-26T10:07:04Z</time>
      </trkpt>
      <trkpt lat="47.91064" lon="2.10426">
        <ele>110</ele>
        <time>2014-01-26T10:07:08Z</time>
      </trkpt>
      <trkpt lat="47.91082" lon="2.1044">
        <ele>110</ele>
        <time>2014-01-26T10:07:12Z</time>
      </trkpt>
      <trkpt lat="47.91097" lon="2.10452">
        <ele>111</ele>
        <time>2014-01-26T10:07:16Z</time>
      </trkpt>
      <trkpt lat="47.91116" lon="2.10465">
        <ele>111</ele>
        <time>2014-01-26T10:07:20Z</time>
      </trkpt>
      <trkpt lat="47.9113" lon="2.10472">
        <ele>110</ele>
        <time>2014-01-26T10:07:24Z</time>
      </trkpt>
      <trkpt lat="47.91145" lon="2.10467">
        <ele>111</ele>
        <time>2014-01-26T10:07:28Z</time>
      </trkpt>
      <trkpt lat="47.9117" lon="2.10458">
        <ele>110</ele>
        <time>2014-01-26T10:07:32Z</time>
      </trkpt>
      <trkpt lat="47.91192" lon="2.10443">
        <ele>110</ele>
        <time>2014-01-26T10:07:36Z</time>
      </trkpt>
      <trkpt lat="47.91215" lon="2.10426">
        <ele>110</ele>
        <time>2014-01-26T10:07:40Z</time>
      </trkpt>
      <trkpt lat="47.91233" lon="2.10413">
        <ele>110</ele>
        <time>2014-01-26T10:07:44Z</time>
      </trkpt>
      <trkpt lat="47.91254" lon="2.104">
        <ele>109</ele>
        <time>2014-01-26T10:07:48Z</time>
      </trkpt>
      <trkpt lat="47.91275" lon="2.10385">
        <ele>109</ele>
        <time>2014-01-26T10:07:52Z</time>
      </trkpt>
      <trkpt lat="47.91291" lon="2.10373">
        <ele>109</ele>
        <time>2014-01-26T10:07:56Z</time>
      </trkpt>
      <trkpt lat="47.91309" lon="2.10363">
        <ele>109</ele>
        <time>2014-01-26T10:08:00Z</time>
      </trkpt>
      <trkpt lat="47.9133" lon="2.10358">
        <ele>109</ele>
        <time>2014-01-26T10:08:04Z</time>
      </trkpt>
      <trkpt lat="47.91352" lon="2.10348">
        <ele>109</ele>
        <time>2014-01-26T10:08:08Z</time>
      </trkpt>
      <trkpt lat="47.91385" lon="2.10338">
        <ele>109</ele>
        <time>2014-01-26T10:08:12Z</time>
      </trkpt>
      <trkpt lat="47.91406" lon="2.1033">
        <ele>110</ele>
        <time>2014-01-26T10:08:16Z</time>
      </trkpt>
      <trkpt lat="47.91428" lon="2.10325">
        <ele>110</ele>
        <time>2014-01-26T10:08:20Z</time>
      </trkpt>
      <trkpt lat="47.91443" lon="2.1031">
        <ele>111</ele>
        <time>2014-01-26T10:08:24Z</time>
      </trkpt>
      <trkpt lat="47.91459" lon="2.10298">
        <ele>110</ele>
        <time>2014-01-26T10:08:28Z</time>
      </trkpt>
      <trkpt lat="47.91478" lon="2.10286">
        <ele>110</ele>
        <time>2014-01-26T10:08:32Z</time>
      </trkpt>
      <trkpt lat="47.91494" lon="2.10274">
        <ele>109</ele>
        <time>2014-01-26T10:08:36Z</time>
      </trkpt>
      <trkpt lat="47.91509" lon="2.10259">
        <ele>110</ele>
        <time>2014-01-26T10:08:40Z</time>
      </trkpt>
      <trkpt lat="47.91528" lon="2.10247">
        <ele>111</ele>
        <time>2014-01-26T10:08:44Z</time>
      </trkpt>
      <trkpt lat="47.91531" lon="2.10223">
        <ele>111</ele>
        <time>2014-01-26T10:08:48Z</time>
      </trkpt>
      <trkpt lat="47.91541" lon="2.10199">
        <ele>111</ele>
        <time>2014-01-26T10:08:52Z</time>
      </trkpt>
      <trkpt lat="47.91549" lon="2.10174">
        <ele>112</ele>
        <time>2014-01-26T10:08:56Z</time>
      </trkpt>
      <trkpt lat="47.91554" lon="2.10147">
        <ele>112</ele>
        <time>2014-01-26T10:09:00Z</time>
      </trkpt>
      <trkpt lat="47.91559" lon="2.10118">
        <ele>112</ele>
        <time>2014-01-26T10:09:04Z</time>
      </trkpt>
      <trkpt lat="47.91564" lon="2.10092">
        <ele>113</ele>
        <time>2014-01-26T10:09:08Z</time>
      </trkpt>
      <trkpt lat="47.91567" lon="2.10065">
        <ele>113</ele>
        <time>2014-01-26T10:09:12Z</time>
      </trkpt>
      <trkpt lat="47.91571" lon="2.10041">
        <ele>114</ele>
        <time>2014-01-26T10:09:16Z</time>
      </trkpt>
      <trkpt lat="47.91579" lon="2.10018">
        <ele>114</ele>
        <time>2014-01-26T10:09:20Z</time>
      </trkpt>
      <trkpt lat="47.9159" lon="2.09996">
        <ele>114</ele>
        <time>2014-01-26T10:09:24Z</time>
      </trkpt>
      <trkpt lat="47.91601" lon="2.09975">
        <ele>115</ele>
        <time>2014-01-26T10:09:28Z</time>
      </trkpt>
      <trkpt lat="47.91607" lon="2.09953">
        <ele>116</ele>
        <time>2014-01-26T10:09:32Z</time>
      </trkpt>
      <trkpt lat="47.9162" lon="2.09927">
        <ele>116</ele>
        <time>2014-01-26T10:09:36Z</time>
      </trkpt>
      <trkpt lat="47.91637" lon="2.09907">
        <ele>118</ele>
        <time>2014-01-26T10:09:40Z</time>
      </trkpt>
      <trkpt lat="47.91646" lon="2.09884">
        <ele>118</ele>
        <time>2014-01-26T10:09:44Z</time>
      </trkpt>
      <trkpt lat="47.91648" lon="2.0986">
        <ele>119</ele>
        <time>2014-01-26T10:09:48Z</time>
      </trkpt>
      <trkpt lat="47.91658" lon="2.09845">
        <ele>119</ele>
        <time>2014-01-26T10:09:52Z</time>
      </trkpt>
      <trkpt lat="47.91661" lon="2.09831">
        <ele>118</ele>
        <time>2014-01-26T10:09:56Z</time>
      </trkpt>
      <trkpt lat="47.91663" lon="2.09817">
        <ele>119</ele>
        <time>2014-01-26T10:10:00Z</time>
      </trkpt>
      <trkpt lat="47.91666" lon="2.09797">
        <ele>118</ele>
        <time>2014-01-26T10:10:04Z</time>
      </trkpt>
      <trkpt lat="47.91674" lon="2.09782">
        <ele>118</ele>
        <time>2014-01-26T10:10:08Z</time>
      </trkpt>
      <trkpt lat="47.91686" lon="2.09771">
        <ele>118</ele>
        <time>2014-01-26T10:10:12Z</time>
      </trkpt>
      <trkpt lat="47.91695" lon="2.09756">
        <ele>118</ele>
        <time>2014-01-26T10:10:16Z</time>
      </trkpt>
      <trkpt lat="47.91706" lon="2.09746">
        <ele>117</ele>
        <time>2014-01-26T10:10:20Z</time>
      </trkpt>
      <trkpt lat="47.9172" lon="2.09734">
        <ele>117</ele>
        <time>2014-01-26T10:10:24Z</time>
      </trkpt>
      <trkpt lat="47.91732" lon="2.09718">
        <ele>117</ele>
        <time>2014-01-26T10:10:28Z</time>
      </trkpt>
      <trkpt lat="47.91741" lon="2.097">
        <ele>116</ele>
        <time>2014-01-26T10:10:32Z</time>
      </trkpt>
      <trkpt lat="47.91748" lon="2.09678">
        <ele>117</ele>
        <time>2014-01-26T10:10:36Z</time>
      </trkpt>
      <trkpt lat="47.91762" lon="2.09656">
        <ele>117</ele>
        <time>2014-01-26T10:10:40Z</time>
      </trkpt>
      <trkpt lat="47.9177" lon="2.09636">
        <ele>117</ele>
        <time>2014-01-26T10:10:44Z</time>
      </trkpt>
      <trkpt lat="47.91779" lon="2.09613">
        <ele>116</ele>
        <time>2014-01-26T10:10:48Z</time>
      </trkpt>
      <trkpt lat="47.9179" lon="2.0959">
        <ele>116</ele>
        <time>2014-01-26T10:10:52Z</time>
      </trkpt>
      <trkpt lat="47.918" lon="2.09565">
        <ele>115</ele>
        <time>2014-01-26T10:10:56Z</time>
      </trkpt>
      <trkpt lat="47.91813" lon="2.09543">
        <ele>115</ele>
        <time>2014-01-26T10:11:00Z</time>
      </trkpt>
      <trkpt lat="47.91825" lon="2.09516">
        <ele>114</ele>
        <time>2014-01-26T10:11:04Z</time>
      </trkpt>
      <trkpt lat="47.91838" lon="2.09488">
        <ele>114</ele>
        <time>2014-01-26T10:11:08Z</time>
      </trkpt>
      <trkpt lat="47.91847" lon="2.09465">
        <ele>113</ele>
        <time>2014-01-26T10:11:12Z</time>
      </trkpt>
      <trkpt lat="47.91858" lon="2.09439">
        <ele>113</ele>
        <time>2014-01-26T10:11:16Z</time>
      </trkpt>
      <trkpt lat="47.9187" lon="2.09412">
        <ele>113</ele>
        <time>2014-01-26T10:11:20Z</time>
      </trkpt>
      <trkpt lat="47.91882" lon="2.09384">
        <ele>113</ele>
        <time>2014-01-26T10:11:24Z</time>
      </trkpt>
      <trkpt lat="47.9189" lon="2.09361">
        <ele>113</ele>
        <time>2014-01-26T10:11:28Z</time>
      </trkpt>
      <trkpt lat="47.91895" lon="2.09334">
        <ele>113</ele>
        <time>2014-01-26T10:11:32Z</time>
      </trkpt>
      <trkpt lat="47.91887" lon="2.09311">
        <ele>113</ele>
        <time>2014-01-26T10:11:36Z</time>
      </trkpt>
      <trkpt lat="47.91871" lon="2.09292">
        <ele>113</ele>
        <time>2014-01-26T10:11:40Z</time>
      </trkpt>
      <trkpt lat="47.91854" lon="2.09276">
        <ele>112</ele>
        <time>2014-01-26T10:11:44Z</time>
      </trkpt>
      <trkpt lat="47.91835" lon="2.09256">
        <ele>113</ele>
        <time>2014-01-26T10:11:48Z</time>
      </trkpt>
      <trkpt lat="47.91818" lon="2.09232">
        <ele>112</ele>
        <time>2014-01-26T10:11:52Z</time>
      </trkpt>
      <trkpt lat="47.918" lon="2.09212">
        <ele>112</ele>
        <time>2014-01-26T10:11:56Z</time>
      </trkpt>
      <trkpt lat="47.91782" lon="2.09191">
        <ele>112</ele>
        <time>2014-01-26T10:12:00Z</time>
      </trkpt>
      <trkpt lat="47.91762" lon="2.0917">
        <ele>112</ele>
        <time>2014-01-26T10:12:04Z</time>
      </trkpt>
      <trkpt lat="47.91747" lon="2.09151">
        <ele>112</ele>
        <time>2014-01-26T10:12:08Z</time>
      </trkpt>
      <trkpt lat="47.91728" lon="2.09131">
        <ele>112</ele>
        <time>2014-01-26T10:12:12Z</time>
      </trkpt>
      <trkpt lat="47.91711" lon="2.09118">
        <ele>113</ele>
        <time>2014-01-26T10:12:16Z</time>
      </trkpt>
      <trkpt lat="47.91696" lon="2.09112">
        <ele>113</ele>
        <time>2014-01-26T10:12:20Z</time>
      </trkpt>
      <trkpt lat="47.91675" lon="2.09103">
        <ele>112</ele>
        <time>2014-01-26T10:12:24Z</time>
      </trkpt>
      <trkpt lat="47.91655" lon="2.09103">
        <ele>112</ele>
        <time>2014-01-26T10:12:28Z</time>
      </trkpt>
      <trkpt lat="47.91635" lon="2.09102">
        <ele>112</ele>
        <time>2014-01-26T10:12:32Z</time>
      </trkpt>
      <trkpt lat="47.91616" lon="2.09097">
        <ele>112</ele>
        <time>2014-01-26T10:12:36Z</time>
      </trkpt>
      <trkpt lat="47.91597" lon="2.09089">
        <ele>112</ele>
        <time>2014-01-26T10:12:40Z</time>
      </trkpt>
      <trkpt lat="47.91573" lon="2.09081">
        <ele>112</ele>
        <time>2014-01-26T10:12:44Z</time>
      </trkpt>
      <trkpt lat="47.91555" lon="2.0907">
        <ele>113</ele>
        <time>2014-01-26T10:12:48Z</time>
      </trkpt>
      <trkpt lat="47.91536" lon="2.0906">
        <ele>113</ele>
        <time>2014-01-26T10:12:52Z</time>
      </trkpt>
      <trkpt lat="47.91516" lon="2.09053">
        <ele>113</ele>
        <time>2014-01-26T10:12:56Z</time>
      </trkpt>
      <trkpt lat="47.91497" lon="2.09044">
        <ele>113</ele>
        <time>2014-01-26T10:13:00Z</time>
      </trkpt>
      <trkpt lat="47.91477" lon="2.09042">
        <ele>113</ele>
        <time>2014-01-26T10:13:04Z</time>
      </trkpt>
      <trkpt lat="47.9146" lon="2.09035">
        <ele>113</ele>
        <time>2014-01-26T10:13:08Z</time>
      </trkpt>
      <trkpt lat="47.9144" lon="2.09024">
        <ele>113</ele>
        <time>2014-01-26T10:13:12Z</time>
      </trkpt>
      <trkpt lat="47.91423" lon="2.09011">
        <ele>113</ele>
        <time>2014-01-26T10:13:16Z</time>
      </trkpt>
      <trkpt lat="47.91409" lon="2.09004">
        <ele>114</ele>
        <time>2014-01-26T10:13:20Z</time>
      </trkpt>
      <trkpt lat="47.91392" lon="2.08995">
        <ele>114</ele>
        <time>2014-01-26T10:13:24Z</time>
      </trkpt>
      <trkpt lat="47.91382" lon="2.08969">
        <ele>115</ele>
        <time>2014-01-26T10:13:28Z</time>
      </trkpt>
      <trkpt lat="47.91375" lon="2.08939">
        <ele>115</ele>
        <time>2014-01-26T10:13:32Z</time>
      </trkpt>
      <trkpt lat="47.91372" lon="2.08912">
        <ele>115</ele>
        <time>2014-01-26T10:13:36Z</time>
      </trkpt>
      <trkpt lat="47.91367" lon="2.08883">
        <ele>115</ele>
        <time>2014-01-26T10:13:40Z</time>
      </trkpt>
      <trkpt lat="47.91358" lon="2.0886">
        <ele>115</ele>
        <time>2014-01-26T10:13:44Z</time>
      </trkpt>
      <trkpt lat="47.91353" lon="2.08829">
        <ele>116</ele>
        <time>2014-01-26T10:13:48Z</time>
      </trkpt>
      <trkpt lat="47.91346" lon="2.088">
        <ele>117</ele>
        <time>2014-01-26T10:13:52Z</time>
      </trkpt>
      <trkpt lat="47.9134" lon="2.08771">
        <ele>118</ele>
        <time>2014-01-26T10:13:56Z</time>
      </trkpt>
      <trkpt lat="47.9134" lon="2.08743">
        <ele>119</ele>
        <time>2014-01-26T10:14:00Z</time>
      </trkpt>
      <trkpt lat="47.91336" lon="2.08711">
        <ele>120</ele>
        <time>2014-01-26T10:14:04Z</time>
      </trkpt>
      <trkpt lat="47.91341" lon="2.08688">
        <ele>121</ele>
        <time>2014-01-26T10:14:08Z</time>
      </trkpt>
      <trkpt lat="47.91351" lon="2.08666">
        <ele>121</ele>
        <time>2014-01-26T10:14:12Z</time>
      </trkpt>
      <trkpt lat="47.91359" lon="2.08641">
        <ele>121</ele>
        <time>2014-01-26T10:14:16Z</time>
      </trkpt>
      <trkpt lat="47.91364" lon="2.08611">
        <ele>120</ele>
        <time>2014-01-26T10:14:20Z</time>
      </trkpt>
      <trkpt lat="47.91372" lon="2.08585">
        <ele>121</ele>
        <time>2014-01-26T10:14:24Z</time>
      </trkpt>
      <trkpt lat="47.91373" lon="2.08558">
        <ele>121</ele>
        <time>2014-01-26T10:14:28Z</time>
      </trkpt>
      <trkpt lat="47.91359" lon="2.08538">
        <ele>122</ele>
        <time>2014-01-26T10:14:32Z</time>
      </trkpt>
      <trkpt lat="47.9135" lon="2.08523">
        <ele>122</ele>
        <time>2014-01-26T10:14:36Z</time>
      </trkpt>
      <trkpt lat="47.91357" lon="2.08494">
        <ele>121</ele>
        <time>2014-01-26T10:14:40Z</time>
      </trkpt>
      <trkpt lat="47.91364" lon="2.08464">
        <ele>121</ele>
        <time>2014-01-26T10:14:44Z</time>
      </trkpt>
      <trkpt lat="47.9137" lon="2.08435">
        <ele>121</ele>
        <time>2014-01-26T10:14:48Z</time>
      </trkpt>
      <trkpt lat="47.91379" lon="2.08409">
        <ele>121</ele>
        <time>2014-01-26T10:14:52Z</time>
      </trkpt>
      <trkpt lat="47.91387" lon="2.08381">
        <ele>122</ele>
        <time>2014-01-26T10:14:56Z</time>
      </trkpt>
      <trkpt lat="47.91398" lon="2.08358">
        <ele>122</ele>
        <time>2014-01-26T10:15:00Z</time>
      </trkpt>
      <trkpt lat="47.91406" lon="2.08332">
        <ele>122</ele>
        <time>2014-01-26T10:15:04Z</time>
      </trkpt>
      <trkpt lat="47.91412" lon="2.08302">
        <ele>123</ele>
        <time>2014-01-26T10:15:08Z</time>
      </trkpt>
      <trkpt lat="47.91418" lon="2.08275">
        <ele>123</ele>
        <time>2014-01-26T10:15:12Z</time>
      </trkpt>
      <trkpt lat="47.91424" lon="2.08244">
        <ele>123</ele>
        <time>2014-01-26T10:15:16Z</time>
      </trkpt>
      <trkpt lat="47.9143" lon="2.08216">
        <ele>122</ele>
        <time>2014-01-26T10:15:20Z</time>
      </trkpt>
      <trkpt lat="47.91432" lon="2.08184">
        <ele>121</ele>
        <time>2014-01-26T10:15:24Z</time>
      </trkpt>
      <trkpt lat="47.9144" lon="2.08153">
        <ele>122</ele>
        <time>2014-01-26T10:15:28Z</time>
      </trkpt>
      <trkpt lat="47.91442" lon="2.08124">
        <ele>122</ele>
        <time>2014-01-26T10:15:32Z</time>
      </trkpt>
      <trkpt lat="47.91446" lon="2.08093">
        <ele>121</ele>
        <time>2014-01-26T10:15:36Z</time>
      </trkpt>
      <trkpt lat="47.91451" lon="2.08063">
        <ele>121</ele>
        <time>2014-01-26T10:15:40Z</time>
      </trkpt>
      <trkpt lat="47.91456" lon="2.08035">
        <ele>121</ele>
        <time>2014-01-26T10:15:44Z</time>
      </trkpt>
      <trkpt lat="47.91457" lon="2.08002">
        <ele>122</ele>
        <time>2014-01-26T10:15:48Z</time>
      </trkpt>
      <trkpt lat="47.91463" lon="2.07969">
        <ele>122</ele>
        <time>2014-01-26T10:15:52Z</time>
      </trkpt>
      <trkpt lat="47.91467" lon="2.07938">
        <ele>122</ele>
        <time>2014-01-26T10:15:56Z</time>
      </trkpt>
      <trkpt lat="47.9147" lon="2.07907">
        <ele>122</ele>
        <time>2014-01-26T10:16:00Z</time>
      </trkpt>
      <trkpt lat="47.91477" lon="2.07876">
        <ele>122</ele>
        <time>2014-01-26T10:16:04Z</time>
      </trkpt>
      <trkpt lat="47.91475" lon="2.07849">
        <ele>122</ele>
        <time>2014-01-26T10:16:08Z</time>
      </trkpt>
      <trkpt lat="47.91485" lon="2.07826">
        <ele>123</ele>
        <time>2014-01-26T10:16:12Z</time>
      </trkpt>
      <trkpt lat="47.91492" lon="2.07803">
        <ele>123</ele>
        <time>2014-01-26T10:16:16Z</time>
      </trkpt>
      <trkpt lat="47.91498" lon="2.07782">
        <ele>123</ele>
        <time>2014-01-26T10:16:20Z</time>
      </trkpt>
      <trkpt lat="47.91503" lon="2.07758">
        <ele>123</ele>
        <time>2014-01-26T10:16:24Z</time>
      </trkpt>
      <trkpt lat="47.91502" lon="2.07725">
        <ele>123</ele>
        <time>2014-01-26T10:16:28Z</time>
      </trkpt>
      <trkpt lat="47.91512" lon="2.07704">
        <ele>124</ele>
        <time>2014-01-26T10:16:32Z</time>
      </trkpt>
      <trkpt lat="47.91515" lon="2.07676">
        <ele>123</ele>
        <time>2014-01-26T10:16:36Z</time>
      </trkpt>
      <trkpt lat="47.91523" lon="2.07652">
        <ele>124</ele>
        <time>2014-01-26T10:16:40Z</time>
      </trkpt>
      <trkpt lat="47.91529" lon="2.07622">
        <ele>124</ele>
        <time>2014-01-26T10:16:44Z</time>
      </trkpt>
      <trkpt lat="47.9153" lon="2.07594">
        <ele>124</ele>
        <time>2014-01-26T10:16:48Z</time>
      </trkpt>
      <trkpt lat="47.9153" lon="2.07566">
        <ele>124</ele>
        <time>2014-01-26T10:16:52Z</time>
      </trkpt>
      <trkpt lat="47.91535" lon="2.07539">
        <ele>124</ele>
        <time>2014-01-26T10:16:56Z</time>
      </trkpt>
      <trkpt lat="47.9155" lon="2.07539">
        <ele>124</ele>
        <time>2014-01-26T10:17:00Z</time>
      </trkpt>
      <trkpt lat="47.91566" lon="2.07539">
        <ele>124</ele>
        <time>2014-01-26T10:17:04Z</time>
      </trkpt>
      <trkpt lat="47.91578" lon="2.07539">
        <ele>124</ele>
        <time>2014-01-26T10:17:08Z</time>
      </trkpt>
      <trkpt lat="47.91591" lon="2.07518">
        <ele>124</ele>
        <time>2014-01-26T10:17:12Z</time>
      </trkpt>
      <trkpt lat="47.91597" lon="2.07491">
        <ele>124</ele>
        <time>2014-01-26T10:17:16Z</time>
      </trkpt>
      <trkpt lat="47.91601" lon="2.07459">
        <ele>124</ele>
        <time>2014-01-26T10:17:20Z</time>
      </trkpt>
      <trkpt lat="47.91599" lon="2.07423">
        <ele>124</ele>
        <time>2014-01-26T10:17:24Z</time>
      </trkpt>
      <trkpt lat="47.9161" lon="2.07403">
        <ele>124</ele>
        <time>2014-01-26T10:17:28Z</time>
      </trkpt>
      <trkpt lat="47.91618" lon="2.07378">
        <ele>124</ele>
        <time>2014-01-26T10:17:32Z</time>
      </trkpt>
      <trkpt lat="47.91618" lon="2.0735">
        <ele>124</ele>
        <time>2014-01-26T10:17:36Z</time>
      </trkpt>
      <trkpt lat="47.91618" lon="2.07325">
        <ele>124</ele>
        <time>2014-01-26T10:17:40Z</time>
      </trkpt>
      <trkpt lat="47.91628" lon="2.07307">
        <ele>124</ele>
        <time>2014-01-26T10:17:44Z</time>
      </trkpt>
      <trkpt lat="47.91633" lon="2.07278">
        <ele>124</ele>
        <time>2014-01-26T10:17:48Z</time>
      </trkpt>
      <trkpt lat="47.91633" lon="2.07256">
        <ele>125</ele>
        <time>2014-01-26T10:17:52Z</time>
      </trkpt>
      <trkpt lat="47.91642" lon="2.07235">
        <ele>125</ele>
        <time>2014-01-26T10:17:56Z</time>
      </trkpt>
      <trkpt lat="47.91649" lon="2.07215">
        <ele>125</ele>
        <time>2014-01-26T10:18:00Z</time>
      </trkpt>
      <trkpt lat="47.91659" lon="2.07198">
        <ele>125</ele>
        <time>2014-01-26T10:18:04Z</time>
      </trkpt>
      <trkpt lat="47.91667" lon="2.07177">
        <ele>125</ele>
        <time>2014-01-26T10:18:08Z</time>
      </trkpt>
      <trkpt lat="47.91669" lon="2.07154">
        <ele>125</ele>
        <time>2014-01-26T10:18:12Z</time>
      </trkpt>
      <trkpt lat="47.91676" lon="2.07132">
        <ele>125</ele>
        <time>2014-01-26T10:18:16Z</time>
      </trkpt>
      <trkpt lat="47.9168" lon="2.07109">
        <ele>126</ele>
        <time>2014-01-26T10:18:20Z</time>
      </trkpt>
      <trkpt lat="47.91682" lon="2.07081">
        <ele>125</ele>
        <time>2014-01-26T10:18:24Z</time>
      </trkpt>
      <trkpt lat="47.91677" lon="2.07047">
        <ele>125</ele>
        <time>2014-01-26T10:18:28Z</time>
      </trkpt>
      <trkpt lat="47.91683" lon="2.07025">
        <ele>126</ele>
        <time>2014-01-26T10:18:32Z</time>
      </trkpt>
      <trkpt lat="47.91682" lon="2.06996">
        <ele>126</ele>
        <time>2014-01-26T10:18:36Z</time>
      </trkpt>
      <trkpt lat="47.91689" lon="2.06973">
        <ele>126</ele>
        <time>2014-01-26T10:18:40Z</time>
      </trkpt>
      <trkpt lat="47.917" lon="2.06952">
        <ele>126</ele>
        <time>2014-01-26T10:18:44Z</time>
      </trkpt>
      <trkpt lat="47.91707" lon="2.06927">
        <ele>126</ele>
        <time>2014-01-26T10:18:48Z</time>
      </trkpt>
      <trkpt lat="47.91706" lon="2.06902">
        <ele>126</ele>
        <time>2014-01-26T10:18:52Z</time>
      </trkpt>
      <trkpt lat="47.91708" lon="2.06869">
        <ele>126</ele>
        <time>2014-01-26T10:18:56Z</time>
      </trkpt>
      <trkpt lat="47.91705" lon="2.06838">
        <ele>126</ele>
        <time>2014-01-26T10:19:00Z</time>
      </trkpt>
      <trkpt lat="47.91705" lon="2.06815">
        <ele>126</ele>
        <time>2014-01-26T10:19:04Z</time>
      </trkpt>
      <trkpt lat="47.91708" lon="2.06776">
        <ele>125</ele>
        <time>2014-01-26T10:19:08Z</time>
      </trkpt>
      <trkpt lat="47.91703" lon="2.06745">
        <ele>125</ele>
        <time>2014-01-26T10:19:12Z</time>
      </trkpt>
      <trkpt lat="47.91704" lon="2.06726">
        <ele>125</ele>
        <time>2014-01-26T10:19:16Z</time>
      </trkpt>
      <trkpt lat="47.91712" lon="2.06703">
        <ele>125</ele>
        <time>2014-01-26T10:19:20Z</time>
      </trkpt>
      <trkpt lat="47.9172" lon="2.0669">
        <ele>125</ele>
        <time>2014-01-26T10:19:24Z</time>
      </trkpt>
      <trkpt lat="47.91737" lon="2.06683">
        <ele>125</ele>
        <time>2014-01-26T10:19:28Z</time>
      </trkpt>
      <trkpt lat="47.91746" lon="2.06683">
        <ele>125</ele>
        <time>2014-01-26T10:19:32Z</time>
      </trkpt>
      <trkpt lat="47.91761" lon="2.06673">
        <ele>125</ele>
        <time>2014-01-26T10:19:36Z</time>
      </trkpt>
      <trkpt lat="47.91778" lon="2.06663">
        <ele>125</ele>
        <time>2014-01-26T10:19:40Z</time>
      </trkpt>
      <trkpt lat="47.91804" lon="2.06654">
        <ele>125</ele>
        <time>2014-01-26T10:19:44Z</time>
      </trkpt>
      <trkpt lat="47.91819" lon="2.06646">
        <ele>125</ele>
        <time>2014-01-26T10:19:48Z</time>
      </trkpt>
      <trkpt lat="47.91835" lon="2.06641">
        <ele>125</ele>
        <time>2014-01-26T10:19:52Z</time>
      </trkpt>
      <trkpt lat="47.91861" lon="2.06633">
        <ele>125</ele>
        <time>2014-01-26T10:19:56Z</time>
      </trkpt>
      <trkpt lat="47.91877" lon="2.06621">
        <ele>125</ele>
        <time>2014-01-26T10:20:00Z</time>
      </trkpt>
      <trkpt lat="47.9189" lon="2.06605">
        <ele>125</ele>
        <time>2014-01-26T10:20:04Z</time>
      </trkpt>
      <trkpt lat="47.91908" lon="2.06587">
        <ele>124</ele>
        <time>2014-01-26T10:20:08Z</time>
      </trkpt>
      <trkpt lat="47.91925" lon="2.06571">
        <ele>124</ele>
        <time>2014-01-26T10:20:12Z</time>
      </trkpt>
      <trkpt lat="47.91936" lon="2.06556">
        <ele>124</ele>
        <time>2014-01-26T10:20:16Z</time>
      </trkpt>
      <trkpt lat="47.91945" lon="2.06536">
        <ele>124</ele>
        <time>2014-01-26T10:20:20Z</time>
      </trkpt>
      <trkpt lat="47.91957" lon="2.06508">
        <ele>124</ele>
        <time>2014-01-26T10:20:24Z</time>
      </trkpt>
      <trkpt lat="47.91971" lon="2.06491">
        <ele>123</ele>
        <time>2014-01-26T10:20:28Z</time>
      </trkpt>
      <trkpt lat="47.9198" lon="2.0646">
        <ele>123</ele>
        <time>2014-01-26T10:20:32Z</time>
      </trkpt>
      <trkpt lat="47.92" lon="2.06436">
        <ele>124</ele>
        <time>2014-01-26T10:20:36Z</time>
      </trkpt>
      <trkpt lat="47.92015" lon="2.06428">
        <ele>124</ele>
        <time>2014-01-26T10:20:40Z</time>
      </trkpt>
      <trkpt lat="47.92034" lon="2.06428">
        <ele>124</ele>
        <time>2014-01-26T10:20:44Z</time>
      </trkpt>
      <trkpt lat="47.92054" lon="2.06419">
        <ele>124</ele>
        <time>2014-01-26T10:20:48Z</time>
      </trkpt>
      <trkpt lat="47.92071" lon="2.06409">
        <ele>124</ele>
        <time>2014-01-26T10:20:52Z</time>
      </trkpt>
      <trkpt lat="47.92082" lon="2.06387">
        <ele>124</ele>
        <time>2014-01-26T10:20:56Z</time>
      </trkpt>
      <trkpt lat="47.92094" lon="2.06364">
        <ele>124</ele>
        <time>2014-01-26T10:21:00Z</time>
      </trkpt>
      <trkpt lat="47.921" lon="2.06346">
        <ele>124</ele>
        <time>2014-01-26T10:21:04Z</time>
      </trkpt>
      <trkpt lat="47.92105" lon="2.06316">
        <ele>124</ele>
        <time>2014-01-26T10:21:08Z</time>
      </trkpt>
      <trkpt lat="47.92109" lon="2.0629">
        <ele>124</ele>
        <time>2014-01-26T10:21:12Z</time>
      </trkpt>
      <trkpt lat="47.92107" lon="2.06259">
        <ele>124</ele>
        <time>2014-01-26T10:21:16Z</time>
      </trkpt>
      <trkpt lat="47.92106" lon="2.06227">
        <ele>124</ele>
        <time>2014-01-26T10:21:20Z</time>
      </trkpt>
      <trkpt lat="47.92113" lon="2.06196">
        <ele>123</ele>
        <time>2014-01-26T10:21:24Z</time>
      </trkpt>
      <trkpt lat="47.92113" lon="2.06164">
        <ele>123</ele>
        <time>2014-01-26T10:21:28Z</time>
      </trkpt>
      <trkpt lat="47.92128" lon="2.06138">
        <ele>123</ele>
        <time>2014-01-26T10:21:32Z</time>
      </trkpt>
      <trkpt lat="47.92129" lon="2.06108">
        <ele>124</ele>
        <time>2014-01-26T10:21:36Z</time>
      </trkpt>
      <trkpt lat="47.92135" lon="2.06077">
        <ele>124</ele>
        <time>2014-01-26T10:21:40Z</time>
      </trkpt>
      <trkpt lat="47.92147" lon="2.06053">
        <ele>124</ele>
        <time>2014-01-26T10:21:44Z</time>
      </trkpt>
      <trkpt lat="47.92147" lon="2.06026">
        <ele>125</ele>
        <time>2014-01-26T10:21:48Z</time>
      </trkpt>
      <trkpt lat="47.92153" lon="2.06004">
        <ele>125</ele>
        <time>2014-01-26T10:21:52Z</time>
      </trkpt>
      <trkpt lat="47.92164" lon="2.05975">
        <ele>125</ele>
        <time>2014-01-26T10:21:56Z</time>
      </trkpt>
      <trkpt lat="47.92175" lon="2.05951">
        <ele>125</ele>
        <time>2014-01-26T10:22:00Z</time>
      </trkpt>
      <trkpt lat="47.92179" lon="2.05925">
        <ele>126</ele>
        <time>2014-01-26T10:22:04Z</time>
      </trkpt>
      <trkpt lat="47.92188" lon="2.05891">
        <ele>126</ele>
        <time>2014-01-26T10:22:08Z</time>
      </trkpt>
      <trkpt lat="47.92186" lon="2.05858">
        <ele>125</ele>
        <time>2014-01-26T10:22:12Z</time>
      </trkpt>
      <trkpt lat="47.92189" lon="2.05832">
        <ele>125</ele>
        <time>2014-01-26T10:22:16Z</time>
      </trkpt>
      <trkpt lat="47.922" lon="2.05802">
        <ele>124</ele>
        <time>2014-01-26T10:22:20Z</time>
      </trkpt>
      <trkpt lat="47.92206" lon="2.05775">
        <ele>125</ele>
        <time>2014-01-26T10:22:24Z</time>
      </trkpt>
      <trkpt lat="47.92209" lon="2.05744">
        <ele>126</ele>
        <time>2014-01-26T10:22:28Z</time>
      </trkpt>
      <trkpt lat="47.92217" lon="2.05718">
        <ele>125</ele>
        <time>2014-01-26T10:22:32Z</time>
      </trkpt>
      <trkpt lat="47.92225" lon="2.05691">
        <ele>125</ele>
        <time>2014-01-26T10:22:36Z</time>
      </trkpt>
      <trkpt lat="47.92232" lon="2.05665">
        <ele>126</ele>
        <time>2014-01-26T10:22:40Z</time>
      </trkpt>
      <trkpt lat="47.92235" lon="2.05639">
        <ele>127</ele>
        <time>2014-01-26T10:22:44Z</time>
      </trkpt>
      <trkpt lat="47.92241" lon="2.05616">
        <ele>127</ele>
        <time>2014-01-26T10:22:48Z</time>
      </trkpt>
      <trkpt lat="47.92244" lon="2.05586">
        <ele>126</ele>
        <time>2014-01-26T10:22:52Z</time>
      </trkpt>
      <trkpt lat="47.92244" lon="2.05559">
        <ele>126</ele>
        <time>2014-01-26T10:22:56Z</time>
      </trkpt>
      <trkpt lat="47.92243" lon="2.05527">
        <ele>126</ele>
        <time>2014-01-26T10:23:00Z</time>
      </trkpt>
      <trkpt lat="47.9225" lon="2.05502">
        <ele>126</ele>
        <time>2014-01-26T10:23:04Z</time>
      </trkpt>
      <trkpt lat="47.92249" lon="2.05476">
        <ele>126</ele>
        <time>2014-01-26T10:23:08Z</time>
      </trkpt>
      <trkpt lat="47.92248" lon="2.05447">
        <ele>126</ele>
        <time>2014-01-26T10:23:12Z</time>
      </trkpt>
      <trkpt lat="47.92255" lon="2.05418">
        <ele>126</ele>
        <time>2014-01-26T10:23:16Z</time>
      </trkpt>
      <trkpt lat="47.92258" lon="2.05389">
        <ele>127</ele>
        <time>2014-01-26T10:23:20Z</time>
      </trkpt>
      <trkpt lat="47.92265" lon="2.05362">
        <ele>127</ele>
        <time>2014-01-26T10:23:24Z</time>
      </trkpt>
      <trkpt lat="47.92264" lon="2.05333">
        <ele>127</ele>
        <time>2014-01-26T10:23:28Z</time>
      </trkpt>
      <trkpt lat="47.92268" lon="2.05314">
        <ele>128</ele>
        <time>2014-01-26T10:23:32Z</time>
      </trkpt>
      <trkpt lat="47.92266" lon="2.05301">
        <ele>128</ele>
        <time>2014-01-26T10:23:36Z</time>
      </trkpt>
      <trkpt lat="47.92272" lon="2.05288">
        <ele>128</ele>
        <time>2014-01-26T10:23:40Z</time>
      </trkpt>
      <trkpt lat="47.92271" lon="2.05273">
        <ele>127</ele>
        <time>2014-01-26T10:23:44Z</time>
      </trkpt>
      <trkpt lat="47.92268" lon="2.05258">
        <ele>127</ele>
        <time>2014-01-26T10:23:48Z</time>
      </trkpt>
      <trkpt lat="47.92275" lon="2.05242">
        <ele>128</ele>
        <time>2014-01-26T10:24:56Z</time>
      </trkpt>
      <trkpt lat="47.92283" lon="2.05246">
        <ele>128</ele>
        <time>2014-01-26T10:25:00Z</time>
      </trkpt>
      <trkpt lat="47.92293" lon="2.05248">
        <ele>128</ele>
        <time>2014-01-26T10:25:04Z</time>
      </trkpt>
      <trkpt lat="47.92308" lon="2.05255">
        <ele>128</ele>
        <time>2014-01-26T10:25:08Z</time>
      </trkpt>
      <trkpt lat="47.92327" lon="2.05259">
        <ele>128</ele>
        <time>2014-01-26T10:25:12Z</time>
      </trkpt>
      <trkpt lat="47.92343" lon="2.05261">
        <ele>128</ele>
        <time>2014-01-26T10:25:16Z</time>
      </trkpt>
      <trkpt lat="47.92363" lon="2.05267">
        <ele>128</ele>
        <time>2014-01-26T10:25:20Z</time>
      </trkpt>
      <trkpt lat="47.92381" lon="2.05273">
        <ele>128</ele>
        <time>2014-01-26T10:25:24Z</time>
      </trkpt>
      <trkpt lat="47.92401" lon="2.05277">
        <ele>128</ele>
        <time>2014-01-26T10:25:28Z</time>
      </trkpt>
      <trkpt lat="47.92424" lon="2.0528">
        <ele>128</ele>
        <time>2014-01-26T10:25:32Z</time>
      </trkpt>
      <trkpt lat="47.92443" lon="2.0528">
        <ele>128</ele>
        <time>2014-01-26T10:25:36Z</time>
      </trkpt>
      <trkpt lat="47.9246" lon="2.05283">
        <ele>127</ele>
        <time>2014-01-26T10:25:40Z</time>
      </trkpt>
      <trkpt lat="47.92479" lon="2.05285">
        <ele>127</ele>
        <time>2014-01-26T10:25:44Z</time>
      </trkpt>
      <trkpt lat="47.925" lon="2.05284">
        <ele>126</ele>
        <time>2014-01-26T10:25:48Z</time>
      </trkpt>
      <trkpt lat="47.92519" lon="2.05283">
        <ele>126</ele>
        <time>2014-01-26T10:25:52Z</time>
      </trkpt>
      <trkpt lat="47.92534" lon="2.05283">
        <ele>125</ele>
        <time>2014-01-26T10:25:56Z</time>
      </trkpt>
      <trkpt lat="47.92548" lon="2.05279">
        <ele>125</ele>
        <time>2014-01-26T10:26:00Z</time>
      </trkpt>
      <trkpt lat="47.92553" lon="2.05254">
        <ele>125</ele>
        <time>2014-01-26T10:26:04Z</time>
      </trkpt>
      <trkpt lat="47.92557" lon="2.05228">
        <ele>125</ele>
        <time>2014-01-26T10:26:08Z</time>
      </trkpt>
      <trkpt lat="47.92555" lon="2.05198">
        <ele>125</ele>
        <time>2014-01-26T10:26:12Z</time>
      </trkpt>
      <trkpt lat="47.92558" lon="2.05175">
        <ele>125</ele>
        <time>2014-01-26T10:26:16Z</time>
      </trkpt>
      <trkpt lat="47.92561" lon="2.05148">
        <ele>124</ele>
        <time>2014-01-26T10:26:20Z</time>
      </trkpt>
      <trkpt lat="47.92558" lon="2.05115">
        <ele>124</ele>
        <time>2014-01-26T10:26:24Z</time>
      </trkpt>
      <trkpt lat="47.92557" lon="2.05085">
        <ele>123</ele>
        <time>2014-01-26T10:26:28Z</time>
      </trkpt>
      <trkpt lat="47.92556" lon="2.05056">
        <ele>123</ele>
        <time>2014-01-26T10:26:32Z</time>
      </trkpt>
      <trkpt lat="47.92556" lon="2.05022">
        <ele>123</ele>
        <time>2014-01-26T10:26:36Z</time>
      </trkpt>
      <trkpt lat="47.92563" lon="2.04996">
        <ele>123</ele>
        <time>2014-01-26T10:26:40Z</time>
      </trkpt>
      <trkpt lat="47.92564" lon="2.04966">
        <ele>123</ele>
        <time>2014-01-26T10:26:44Z</time>
      </trkpt>
      <trkpt lat="47.9257" lon="2.04934">
        <ele>123</ele>
        <time>2014-01-26T10:26:48Z</time>
      </trkpt>
      <trkpt lat="47.92576" lon="2.04905">
        <ele>123</ele>
        <time>2014-01-26T10:26:52Z</time>
      </trkpt>
      <trkpt lat="47.92581" lon="2.04879">
        <ele>123</ele>
        <time>2014-01-26T10:26:56Z</time>
      </trkpt>
      <trkpt lat="47.9258" lon="2.04845">
        <ele>123</ele>
        <time>2014-01-26T10:27:00Z</time>
      </trkpt>
      <trkpt lat="47.92582" lon="2.04819">
        <ele>123</ele>
        <time>2014-01-26T10:27:04Z</time>
      </trkpt>
      <trkpt lat="47.92585" lon="2.04793">
        <ele>123</ele>
        <time>2014-01-26T10:27:08Z</time>
      </trkpt>
      <trkpt lat="47.92578" lon="2.04763">
        <ele>123</ele>
        <time>2014-01-26T10:27:12Z</time>
      </trkpt>
      <trkpt lat="47.92573" lon="2.04731">
        <ele>123</ele>
        <time>2014-01-26T10:27:16Z</time>
      </trkpt>
      <trkpt lat="47.92575" lon="2.04708">
        <ele>123</ele>
        <time>2014-01-26T10:27:20Z</time>
      </trkpt>
      <trkpt lat="47.92576" lon="2.04678">
        <ele>123</ele>
        <time>2014-01-26T10:27:24Z</time>
      </trkpt>
      <trkpt lat="47.92572" lon="2.04649">
        <ele>123</ele>
        <time>2014-01-26T10:27:28Z</time>
      </trkpt>
      <trkpt lat="47.92568" lon="2.04624">
        <ele>123</ele>
        <time>2014-01-26T10:27:32Z</time>
      </trkpt>
      <trkpt lat="47.92565" lon="2.04614">
        <ele>123</ele>
        <time>2014-01-26T10:27:36Z</time>
      </trkpt>
      <trkpt lat="47.92561" lon="2.04614">
        <ele>123</ele>
        <time>2014-01-26T10:27:40Z</time>
      </trkpt>
      <trkpt lat="47.92564" lon="2.04618">
        <ele>123</ele>
        <time>2014-01-26T10:29:00Z</time>
      </trkpt>
      <trkpt lat="47.92571" lon="2.04615">
        <ele>122</ele>
        <time>2014-01-26T10:29:04Z</time>
      </trkpt>
      <trkpt lat="47.9257" lon="2.04604">
        <ele>122</ele>
        <time>2014-01-26T10:29:08Z</time>
      </trkpt>
      <trkpt lat="47.92573" lon="2.04587">
        <ele>122</ele>
        <time>2014-01-26T10:29:12Z</time>
      </trkpt>
      <trkpt lat="47.92582" lon="2.04571">
        <ele>122</ele>
        <time>2014-01-26T10:29:16Z</time>
      </trkpt>
      <trkpt lat="47.92591" lon="2.04554">
        <ele>122</ele>
        <time>2014-01-26T10:29:20Z</time>
      </trkpt>
      <trkpt lat="47.926" lon="2.04531">
        <ele>122</ele>
        <time>2014-01-26T10:29:24Z</time>
      </trkpt>
      <trkpt lat="47.92614" lon="2.0451">
        <ele>121</ele>
        <time>2014-01-26T10:29:28Z</time>
      </trkpt>
      <trkpt lat="47.92622" lon="2.0449">
        <ele>120</ele>
        <time>2014-01-26T10:29:32Z</time>
      </trkpt>
      <trkpt lat="47.92633" lon="2.04464">
        <ele>119</ele>
        <time>2014-01-26T10:29:36Z</time>
      </trkpt>
      <trkpt lat="47.92634" lon="2.04432">
        <ele>120</ele>
        <time>2014-01-26T10:29:40Z</time>
      </trkpt>
      <trkpt lat="47.92629" lon="2.04406">
        <ele>120</ele>
        <time>2014-01-26T10:29:44Z</time>
      </trkpt>
      <trkpt lat="47.92628" lon="2.04373">
        <ele>121</ele>
        <time>2014-01-26T10:29:48Z</time>
      </trkpt>
      <trkpt lat="47.92626" lon="2.04341">
        <ele>121</ele>
        <time>2014-01-26T10:29:52Z</time>
      </trkpt>
      <trkpt lat="47.92615" lon="2.04305">
        <ele>121</ele>
        <time>2014-01-26T10:29:56Z</time>
      </trkpt>
      <trkpt lat="47.92609" lon="2.04275">
        <ele>121</ele>
        <time>2014-01-26T10:30:00Z</time>
      </trkpt>
      <trkpt lat="47.9261" lon="2.04247">
        <ele>121</ele>
        <time>2014-01-26T10:30:04Z</time>
      </trkpt>
      <trkpt lat="47.92607" lon="2.04224">
        <ele>121</ele>
        <time>2014-01-26T10:30:08Z</time>
      </trkpt>
      <trkpt lat="47.926" lon="2.04189">
        <ele>120</ele>
        <time>2014-01-26T10:30:12Z</time>
      </trkpt>
      <trkpt lat="47.92599" lon="2.04159">
        <ele>119</ele>
        <time>2014-01-26T10:30:16Z</time>
      </trkpt>
      <trkpt lat="47.92607" lon="2.04125">
        <ele>118</ele>
        <time>2014-01-26T10:30:20Z</time>
      </trkpt>
      <trkpt lat="47.92613" lon="2.04093">
        <ele>118</ele>
        <time>2014-01-26T10:30:24Z</time>
      </trkpt>
      <trkpt lat="47.92621" lon="2.04062">
        <ele>118</ele>
        <time>2014-01-26T10:30:28Z</time>
      </trkpt>
      <trkpt lat="47.92628" lon="2.04028">
        <ele>117</ele>
        <time>2014-01-26T10:30:32Z</time>
      </trkpt>
      <trkpt lat="47.92626" lon="2.03991">
        <ele>117</ele>
        <time>2014-01-26T10:30:36Z</time>
      </trkpt>
      <trkpt lat="47.92614" lon="2.03952">
        <ele>118</ele>
        <time>2014-01-26T10:30:40Z</time>
      </trkpt>
      <trkpt lat="47.92612" lon="2.0392">
        <ele>118</ele>
        <time>2014-01-26T10:30:44Z</time>
      </trkpt>
      <trkpt lat="47.92603" lon="2.03887">
        <ele>117</ele>
        <time>2014-01-26T10:30:48Z</time>
      </trkpt>
      <trkpt lat="47.92597" lon="2.03856">
        <ele>118</ele>
        <time>2014-01-26T10:30:52Z</time>
      </trkpt>
      <trkpt lat="47.92594" lon="2.03826">
        <ele>118</ele>
        <time>2014-01-26T10:30:56Z</time>
      </trkpt>
      <trkpt lat="47.92585" lon="2.03795">
        <ele>119</ele>
        <time>2014-01-26T10:31:00Z</time>
      </trkpt>
      <trkpt lat="47.92578" lon="2.03763">
        <ele>118</ele>
        <time>2014-01-26T10:31:04Z</time>
      </trkpt>
      <trkpt lat="47.9257" lon="2.03729">
        <ele>118</ele>
        <time>2014-01-26T10:31:08Z</time>
      </trkpt>
      <trkpt lat="47.92566" lon="2.03702">
        <ele>119</ele>
        <time>2014-01-26T10:31:12Z</time>
      </trkpt>
      <trkpt lat="47.92559" lon="2.03672">
        <ele>121</ele>
        <time>2014-01-26T10:31:16Z</time>
      </trkpt>
      <trkpt lat="47.92551" lon="2.03643">
        <ele>121</ele>
        <time>2014-01-26T10:31:20Z</time>
      </trkpt>
      <trkpt lat="47.92547" lon="2.03609">
        <ele>121</ele>
        <time>2014-01-26T10:31:24Z</time>
      </trkpt>
      <trkpt lat="47.92544" lon="2.03584">
        <ele>122</ele>
        <time>2014-01-26T10:31:28Z</time>
      </trkpt>
      <trkpt lat="47.92539" lon="2.03555">
        <ele>121</ele>
        <time>2014-01-26T10:31:32Z</time>
      </trkpt>
      <trkpt lat="47.92525" lon="2.03532">
        <ele>121</ele>
        <time>2014-01-26T10:31:36Z</time>
      </trkpt>
      <trkpt lat="47.92516" lon="2.03517">
        <ele>121</ele>
        <time>2014-01-26T10:31:40Z</time>
      </trkpt>
      <trkpt lat="47.92503" lon="2.03499">
        <ele>121</ele>
        <time>2014-01-26T10:31:44Z</time>
      </trkpt>
      <trkpt lat="47.92489" lon="2.03477">
        <ele>121</ele>
        <time>2014-01-26T10:31:48Z</time>
      </trkpt>
      <trkpt lat="47.92477" lon="2.03458">
        <ele>120</ele>
        <time>2014-01-26T10:31:52Z</time>
      </trkpt>
      <trkpt lat="47.92462" lon="2.03445">
        <ele>121</ele>
        <time>2014-01-26T10:31:56Z</time>
      </trkpt>
      <trkpt lat="47.92451" lon="2.03425">
        <ele>121</ele>
        <time>2014-01-26T10:32:00Z</time>
      </trkpt>
      <trkpt lat="47.9244" lon="2.03403">
        <ele>121</ele>
        <time>2014-01-26T10:32:04Z</time>
      </trkpt>
      <trkpt lat="47.92429" lon="2.03378">
        <ele>120</ele>
        <time>2014-01-26T10:32:08Z</time>
      </trkpt>
      <trkpt lat="47.92425" lon="2.03349">
        <ele>121</ele>
        <time>2014-01-26T10:32:12Z</time>
      </trkpt>
      <trkpt lat="47.92422" lon="2.03323">
        <ele>121</ele>
        <time>2014-01-26T10:32:16Z</time>
      </trkpt>
      <trkpt lat="47.92417" lon="2.03298">
        <ele>122</ele>
        <time>2014-01-26T10:32:20Z</time>
      </trkpt>
      <trkpt lat="47.92415" lon="2.03272">
        <ele>122</ele>
        <time>2014-01-26T10:32:24Z</time>
      </trkpt>
      <trkpt lat="47.92413" lon="2.0325">
        <ele>122</ele>
        <time>2014-01-26T10:32:28Z</time>
      </trkpt>
      <trkpt lat="47.92414" lon="2.03224">
        <ele>123</ele>
        <time>2014-01-26T10:32:32Z</time>
      </trkpt>
      <trkpt lat="47.92418" lon="2.03196">
        <ele>123</ele>
        <time>2014-01-26T10:32:36Z</time>
      </trkpt>
      <trkpt lat="47.9242" lon="2.03166">
        <ele>124</ele>
        <time>2014-01-26T10:32:40Z</time>
      </trkpt>
      <trkpt lat="47.92418" lon="2.03143">
        <ele>124</ele>
        <time>2014-01-26T10:32:44Z</time>
      </trkpt>
      <trkpt lat="47.92411" lon="2.03125">
        <ele>124</ele>
        <time>2014-01-26T10:32:48Z</time>
      </trkpt>
      <trkpt lat="47.92399" lon="2.03103">
        <ele>124</ele>
        <time>2014-01-26T10:32:52Z</time>
      </trkpt>
      <trkpt lat="47.92391" lon="2.03081">
        <ele>125</ele>
        <time>2014-01-26T10:32:56Z</time>
      </trkpt>
      <trkpt lat="47.92383" lon="2.03058">
        <ele>125</ele>
        <time>2014-01-26T10:33:00Z</time>
      </trkpt>
      <trkpt lat="47.92375" lon="2.03035">
        <ele>125</ele>
        <time>2014-01-26T10:33:04Z</time>
      </trkpt>
      <trkpt lat="47.92369" lon="2.03007">
        <ele>125</ele>
        <time>2014-01-26T10:33:08Z</time>
      </trkpt>
      <trkpt lat="47.92359" lon="2.02978">
        <ele>125</ele>
        <time>2014-01-26T10:33:12Z</time>
      </trkpt>
      <trkpt lat="47.92353" lon="2.02956">
        <ele>126</ele>
        <time>2014-01-26T10:33:16Z</time>
      </trkpt>
      <trkpt lat="47.92342" lon="2.02928">
        <ele>126</ele>
        <time>2014-01-26T10:33:20Z</time>
      </trkpt>
      <trkpt lat="47.92335" lon="2.02905">
        <ele>126</ele>
        <time>2014-01-26T10:33:24Z</time>
      </trkpt>
      <trkpt lat="47.92325" lon="2.02881">
        <ele>126</ele>
        <time>2014-01-26T10:33:28Z</time>
      </trkpt>
      <trkpt lat="47.92318" lon="2.02862">
        <ele>127</ele>
        <time>2014-01-26T10:33:32Z</time>
      </trkpt>
      <trkpt lat="47.92313" lon="2.02851">
        <ele>127</ele>
        <time>2014-01-26T10:33:36Z</time>
      </trkpt>
      <trkpt lat="47.92303" lon="2.02829">
        <ele>127</ele>
        <time>2014-01-26T10:33:52Z</time>
      </trkpt>
      <trkpt lat="47.92297" lon="2.02819">
        <ele>127</ele>
        <time>2014-01-26T10:33:56Z</time>
      </trkpt>
      <trkpt lat="47.92288" lon="2.02807">
        <ele>127</ele>
        <time>2014-01-26T10:34:00Z</time>
      </trkpt>
      <trkpt lat="47.92277" lon="2.02796">
        <ele>127</ele>
        <time>2014-01-26T10:34:04Z</time>
      </trkpt>
      <trkpt lat="47.92269" lon="2.02789">
        <ele>127</ele>
        <time>2014-01-26T10:34:08Z</time>
      </trkpt>
      <trkpt lat="47.92261" lon="2.02788">
        <ele>127</ele>
        <time>2014-01-26T10:34:12Z</time>
      </trkpt>
      <trkpt lat="47.92259" lon="2.0278">
        <ele>127</ele>
        <time>2014-01-26T10:34:28Z</time>
      </trkpt>
      <trkpt lat="47.92265" lon="2.02778">
        <ele>127</ele>
        <time>2014-01-26T10:34:36Z</time>
      </trkpt>
      <trkpt lat="47.92281" lon="2.02779">
        <ele>129</ele>
        <time>2014-01-26T10:41:04Z</time>
      </trkpt>
      <trkpt lat="47.92281" lon="2.02772">
        <ele>130</ele>
        <time>2014-01-26T10:41:28Z</time>
      </trkpt>
      <trkpt lat="47.92286" lon="2.02768">
        <ele>129</ele>
        <time>2014-01-26T10:41:40Z</time>
      </trkpt>
      <trkpt lat="47.92286" lon="2.02768">
        <ele>129</ele>
        <time>2014-01-26T10:41:56Z</time>
      </trkpt>
      <trkpt lat="47.92286" lon="2.02768">
        <ele>129</ele>
        <time>2014-01-26T10:42:00Z</time>
      </trkpt>
    </trkseg>
  </trk>
  <rte>
      <rtept lat="47.92301" lon="2.02727">
        <ele>112.2</ele>
      </rtept>
      <rtept lat="47.92286" lon="2.02768">
        <ele>112.2</ele>
      </rtept>
    </rte>
</gpx>